[[[{"header":{"parameterUnit":"kt","parameterCategory":2,"dx":1,"dy":1,"la1":29.587661999999998,"la2":31.0,"lo1":-88.76705300000003,"lo2":-86.6583820000003,"nx":115,"ny":88,"refTime":"2022-09-30T06:00:00:Z","depth":0,"parameterNumber":1,"parameterNumberName":"U-component_of_WINDS"},"data":[7.0765,7.0765,7.0765,7.0765,7.0765,7.0765,7.0765,7.0765,7.0765,7.0765,7.0863,7.0866,7.1061,7.1061,7.1159,7.1696,7.2577,7.2624,7.326,7.3944,7.4041,7.4139,7.4383,7.4871,7.5164,7.5749,7.653,7.7067,7.702,7.7263,7.7507,7.7653,7.7604,7.8288,7.8968,7.9163,7.9505,8.0289,8.0627,8.0923,8.1509,8.229,8.3467,8.3613,8.3613,8.4297,8.5023,8.5999,8.7122,8.8293,8.9367,8.9855,8.9992,8.9992,8.9992,8.9992,8.9992,8.8494,8.6675,8.5956,8.5428,8.3381,8.1786,8.1662,8.3243,8.4356,8.4888,8.5176,8.5572,8.7248,8.788,8.6669,8.7441,8.8337,8.8501,8.7626,8.7283,8.6842,8.4707,8.2043,8.0812,7.9337,7.6809,7.6458,7.6738,7.5298,7.5053,7.5053,7.5053,7.5053,7.5053,7.5053,7.5053,7.5053,7.5053,7.5053,7.5053,7.5053,7.5053,7.5053,7.5053,7.5053,7.5053,7.5053,7.5053,7.5053,7.5053,7.5053,7.5053,7.5053,7.5053,7.5053,7.5053,7.5053,7.5053,7.0765,7.0765,7.0765,7.0765,7.0765,7.0765,7.0765,7.0765,7.0765,7.0765,7.1059,7.1794,7.2087,7.2478,7.2967,7.3358,7.3651,7.37,7.3797,7.4334,7.5017,7.5261,7.5652,7.6091,7.6384,7.6774,7.7214,7.7311,7.7555,7.8141,7.8629,7.8724,7.9261,7.9944,8.0041,8.0236,8.0627,8.146,8.185,8.2294,8.2832,8.3461,8.3564,8.3613,8.3711,8.4199,8.4779,8.5657,8.6585,8.7903,8.9367,8.9855,8.9992,8.9992,8.9992,8.9992,8.9943,8.8316,8.6376,8.5609,8.5066,8.3929,8.1353,8.1353,8.3381,8.4507,8.5173,8.5401,8.5173,8.5949,8.6832,8.718,8.8837,9.0093,8.9769,8.9219,8.9622,8.982,8.5601,8.088,8.0675,8.099,7.9613,7.8753,7.7679,7.5722,7.5053,7.5053,7.5053,7.5053,7.5053,7.5053,7.5053,7.5053,7.5053,7.5053,7.5053,7.5053,7.5053,7.5053,7.5053,7.5053,7.5053,7.5053,7.5053,7.5053,7.5053,7.5053,7.5053,7.5053,7.5053,7.5053,7.5053,7.5053,7.5053,7.0765,7.0765,7.0765,7.0765,7.0765,7.0765,7.0765,7.0765,7.0765,7.1354,7.2479,7.2919,7.3163,7.3358,7.3651,7.4041,7.4822,7.4822,7.5066,7.5554,7.6286,7.6434,7.6629,7.6873,7.7214,7.7409,7.7702,7.8383,7.9017,7.9456,7.9602,7.9651,7.9944,8.048,8.1269,8.1314,8.1753,8.2783,8.288,8.3076,8.3418,8.3564,8.3613,8.3613,8.376,8.4193,8.4877,8.5846,8.6878,8.8195,8.9367,8.9855,8.9894,8.9943,8.9943,8.9992,8.9826,8.9308,8.8434,8.802,8.7961,8.7735,8.6016,8.4461,8.6076,8.3625,8.434,8.5896,8.5716,8.6675,8.7496,8.8104,8.9671,9.0317,9.0061,8.9344,8.9192,8.8429,8.4405,8.0442,7.978,7.9849,7.8406,7.747,7.6949,7.5053,7.5053,7.5053,7.5053,7.5053,7.5053,7.5053,7.5053,7.5053,7.5053,7.5053,7.5053,7.5053,7.5053,7.5053,7.5053,7.5053,7.5053,7.5053,7.5053,7.5053,7.5053,7.5053,7.5053,7.5053,7.5053,7.5053,7.5053,7.5053,7.5053,7.0765,7.0765,7.0765,7.0765,7.0765,7.0765,7.0912,7.111,7.1401,7.2382,7.37,7.409,7.4285,7.4383,7.4725,7.5261,7.5896,7.6043,7.6482,7.6774,7.697,7.6921,7.7116,7.7458,7.7604,7.7897,7.8529,7.9407,7.9944,8.0432,8.0675,8.0675,8.1261,8.1704,8.2343,8.2392,8.2636,8.332,8.3418,8.3515,8.3613,8.3613,8.3613,8.3613,8.3711,8.4096,8.4974,8.5846,8.6829,8.8,8.9025,8.9562,8.965,8.9845,8.9943,8.9992,8.9943,8.9072,8.8257,8.7557,8.7557,8.802,8.7319,8.802,8.7497,8.44,8.3671,8.5475,8.6842,8.8079,8.9003,8.9502,9.0018,9.0005,8.9957,8.879,8.7711,8.5192,8.2278,8.0333,7.9009,7.76,7.6004,7.5265,7.5053,7.5053,7.5053,7.5053,7.5053,7.5053,7.5053,7.5053,7.5053,7.5053,7.5053,7.5053,7.5053,7.5053,7.5053,7.5053,7.5053,7.5053,7.5053,7.5053,7.5053,7.5053,7.5053,7.5053,7.5053,7.5053,7.5053,7.5053,7.5053,7.5053,7.5053,7.0765,7.0765,7.0765,7.0814,7.0814,7.0912,7.145,7.2233,7.3163,7.3748,7.4139,7.5066,7.5506,7.5603,7.6091,7.6678,7.6776,7.6774,7.697,7.7165,7.7409,7.7555,7.7799,7.8141,7.8532,7.8968,7.9554,8.0334,8.0627,8.1314,8.1904,8.1952,8.2587,8.2924,8.3173,8.3222,8.3271,8.3613,8.3613,8.3613,8.3613,8.3613,8.3613,8.3613,8.3711,8.4004,8.4828,8.5365,8.5755,8.6878,8.7805,8.8488,8.8928,8.9318,8.9806,8.9953,8.9943,8.8955,8.7616,8.72,8.6675,8.5368,8.2892,8.4704,8.7319,8.6722,8.6782,8.8198,8.8257,8.919,8.8955,8.9169,8.8426,8.7945,8.6927,8.5411,8.3945,8.1623,7.8939,7.7007,7.5905,7.5899,7.4445,7.4602,7.4564,7.4901,7.4977,7.5053,7.5053,7.5053,7.5053,7.5053,7.5053,7.5053,7.5053,7.5053,7.5053,7.5053,7.5053,7.5053,7.5053,7.5053,7.5053,7.5053,7.5053,7.5053,7.5053,7.5053,7.5053,7.5053,7.5053,7.5053,7.5053,7.5053,7.5053,7.0765,7.0765,7.0765,7.111,7.1745,7.238,7.3308,7.4236,7.4773,7.5359,7.5896,7.6336,7.653,7.6579,7.6921,7.7214,7.7214,7.7311,7.7653,7.7897,7.819,7.8383,7.8919,7.9505,7.9651,8.0041,8.0679,8.1314,8.1659,8.2343,8.2929,8.2978,8.3271,8.3564,8.3613,8.3613,8.3613,8.3613,8.3613,8.3613,8.3613,8.3613,8.3613,8.3613,8.3613,8.376,8.4144,8.4925,8.5267,8.5853,8.6772,8.761,8.8546,8.8781,8.9172,8.9904,9.0001,8.8955,8.8079,8.7735,8.7913,8.7735,8.7259,8.6782,8.8139,8.8837,8.9474,8.9992,8.9992,8.9826,8.9131,8.8305,8.7005,8.5561,8.3704,8.1807,7.97,7.77,7.581,7.3642,7.3198,7.3463,7.3767,7.4033,7.4223,7.4337,7.4451,7.4564,7.4749,7.4673,7.4635,7.4597,7.4711,7.4863,7.5053,7.5053,7.5053,7.5015,7.5053,7.5053,7.5053,7.5053,7.5053,7.5053,7.5053,7.5053,7.5053,7.5053,7.5053,7.5053,7.5053,7.5053,7.5053,7.5053,7.5053,7.1208,7.1257,7.1501,7.2087,7.287,7.3895,7.4969,7.5994,7.6092,7.6434,7.7165,7.7165,7.7067,7.7165,7.7165,7.7409,7.7555,7.7799,7.8336,7.8773,7.9212,7.9651,8.0139,8.0529,8.0777,8.1167,8.1753,8.249,8.2636,8.3027,8.3515,8.3613,8.3564,8.3564,8.3613,8.3613,8.3613,8.3613,8.3613,8.3613,8.3613,8.3613,8.3613,8.3613,8.3613,8.3613,8.3808,8.4291,8.4486,8.4877,8.5755,8.6487,8.7667,8.8147,8.8586,8.9513,8.9904,8.9992,8.9992,8.9943,8.9767,8.9532,8.9532,8.9943,8.9992,8.9826,8.9826,8.9992,8.9992,8.9992,8.9532,8.8198,8.6757,8.4569,8.2035,7.9079,7.5226,7.3873,7.3804,7.2073,7.2173,7.2438,7.2894,7.3198,7.3426,7.3615,7.3805,7.4071,7.4147,7.3957,7.3913,7.3843,7.3919,7.3957,7.4223,7.4527,7.4749,7.4977,7.5053,7.5053,7.5053,7.5053,7.5053,7.5053,7.5053,7.5053,7.5053,7.5053,7.5053,7.5053,7.5053,7.5053,7.5053,7.5053,7.5053,7.2282,7.2382,7.3358,7.3748,7.3992,7.5066,7.6092,7.7019,7.7067,7.7067,7.7165,7.7165,7.7263,7.7214,7.7214,7.7799,7.848,7.8627,7.9358,7.9993,8.0236,8.048,8.0923,8.1509,8.1855,8.2294,8.2783,8.3222,8.3467,8.3613,8.3613,8.3613,8.3613,8.3613,8.3613,8.3613,8.3613,8.3613,8.3613,8.3613,8.3613,8.3613,8.3613,8.3613,8.3613,8.3613,8.3662,8.376,8.3808,8.4101,8.4633,8.5072,8.595,8.7268,8.8049,8.8781,8.9562,8.9855,8.9992,8.9992,8.9992,8.9992,8.9992,8.9992,8.9992,8.9992,8.9992,8.9992,8.9992,8.9992,8.9532,8.7961,8.6256,8.332,8.0423,7.6604,7.2258,7.1014,7.1159,7.1188,7.1291,7.1451,7.1869,7.2325,7.2552,7.2742,7.2932,7.316,7.3084,7.3001,7.3274,7.3236,7.3198,7.3236,7.3388,7.3691,7.3957,7.4489,7.464,7.4792,7.5053,7.5053,7.5053,7.5053,7.5053,7.5053,7.5053,7.5053,7.5053,7.5053,7.5053,7.5053,7.5053,7.5053,7.5053,7.3309,7.3358,7.3748,7.4285,7.5164,7.6189,7.6774,7.7116,7.7165,7.7165,7.7165,7.7214,7.7507,7.8092,7.8237,7.8724,7.97,7.9797,8.0334,8.1318,8.1415,8.1753,8.2241,8.2827,8.288,8.3125,8.3467,8.3613,8.3613,8.3613,8.3613,8.3613,8.3613,8.3613,8.3613,8.3613,8.3613,8.3613,8.3613,8.3613,8.3613,8.3613,8.3613,8.3613,8.3613,8.3613,8.3613,8.3613,8.3613,8.3711,8.4053,8.4388,8.5365,8.6487,8.7561,8.8537,8.9367,8.9904,9.0001,8.9992,8.9992,8.9992,8.9992,8.9992,8.9992,8.9992,8.9992,8.9992,8.9992,8.9943,8.9415,8.6842,8.4582,8.1292,7.8231,7.5004,7.1432,7.0547,7.0483,7.0445,7.0502,7.054,7.0768,7.1224,7.1717,7.1831,7.1983,7.1975,7.1899,7.2325,7.2742,7.2704,7.2704,7.2628,7.2704,7.2894,7.335,7.4033,7.4223,7.4337,7.4489,7.4559,7.4863,7.5053,7.4939,7.4901,7.4977,7.5015,7.4977,7.4977,7.5015,7.5053,7.5053,7.5053,7.5053,7.4432,7.4481,7.4822,7.5408,7.6189,7.6872,7.7165,7.7165,7.7165,7.736,7.7653,7.7702,7.8288,7.8968,7.931,7.9849,8.0728,8.0923,8.146,8.2392,8.2539,8.3076,8.332,8.3418,8.3515,8.3613,8.3613,8.3613,8.3613,8.3613,8.3613,8.3613,8.3613,8.3613,8.3613,8.3613,8.3613,8.3613,8.3613,8.3613,8.3613,8.3613,8.3613,8.3613,8.3613,8.3613,8.3613,8.3613,8.3613,8.3613,8.3662,8.39,8.4535,8.556,8.6626,8.7756,8.883,8.9562,8.9953,8.9992,8.9992,8.9992,8.9992,8.9992,8.9992,8.9992,8.9992,8.9992,8.9992,8.9014,8.8601,8.6016,8.2708,7.9425,7.7071,7.3754,7.1288,7.0405,7.0047,7.0047,7.0047,7.016,7.0236,7.0692,7.0844,7.0958,7.0996,7.092,7.0996,7.1527,7.1869,7.1869,7.1907,7.1945,7.1983,7.2059,7.2438,7.3084,7.3463,7.3653,7.3767,7.3767,7.4033,7.4337,7.4489,7.4749,7.4901,7.5053,7.4939,7.4863,7.5015,7.5053,7.5053,7.5091,7.5129,7.5652,7.5799,7.6678,7.7019,7.7067,7.7165,7.7165,7.7165,7.7311,7.7848,7.8676,7.8773,7.931,8.0139,8.0334,8.1021,8.1855,8.205,8.249,8.3173,8.3271,8.3467,8.3613,8.3613,8.3613,8.3613,8.3613,8.3613,8.3613,8.3613,8.3613,8.3613,8.3613,8.3613,8.3613,8.3613,8.3613,8.3613,8.3613,8.3613,8.3613,8.3613,8.3613,8.3613,8.3613,8.3613,8.3613,8.3613,8.3613,8.3613,8.3613,8.3662,8.4004,8.4828,8.5853,8.6821,8.7951,8.8976,8.9904,9.0001,8.9992,8.9992,8.9992,8.9992,8.9992,8.9992,8.9992,8.9992,8.9943,8.8542,8.6496,8.4582,8.0938,7.7979,7.6435,7.3908,7.1551,7.0047,7.0047,7.0047,7.0047,7.0047,7.0047,7.0047,7.0123,7.0123,7.0047,7.0085,7.0198,7.0502,7.0654,7.073,7.0768,7.0882,7.1148,7.1224,7.1595,7.2135,7.259,7.2742,7.2856,7.3084,7.335,7.3508,7.3729,7.3805,7.4337,7.4977,7.4337,7.3843,7.4337,7.4977,7.4982,7.5058,7.5319,7.6727,7.6776,7.7069,7.7165,7.7165,7.7165,7.7165,7.7311,7.7946,7.8873,7.9797,7.9846,8.0432,8.1216,8.1562,8.2148,8.2783,8.3027,8.332,8.3467,8.3613,8.3613,8.3613,8.3613,8.3613,8.3613,8.3613,8.3613,8.3613,8.3613,8.3613,8.3613,8.3613,8.3613,8.3613,8.3613,8.3613,8.3613,8.3613,8.3613,8.3613,8.3613,8.3613,8.3613,8.3613,8.3613,8.3613,8.3613,8.3613,8.3613,8.3613,8.3613,8.39,8.4584,8.5657,8.6731,8.7805,8.8928,8.9708,8.9992,8.9992,8.9992,8.9992,8.9992,8.9992,8.9992,8.9992,8.9943,8.9767,8.866,8.5549,8.3929,8.0876,7.6052,7.4489,7.3429,7.1091,7.0047,7.0047,7.0047,7.0047,7.0047,7.0047,7.0047,7.0085,7.0085,7.0047,7.0047,7.0047,7.0047,7.0047,7.0047,7.0047,7.0198,7.035,7.0578,7.0882,7.1451,7.1679,7.1831,7.2097,7.2514,7.2818,7.2856,7.2894,7.297,7.3426,7.4071,7.3691,7.316,7.3729,7.4527,7.4716,7.5362,7.5585,7.7165,7.7165,7.7165,7.7165,7.7165,7.7604,7.7751,7.7946,7.8871,7.9749,8.0334,8.0773,8.1558,8.2392,8.2685,8.3027,8.3515,8.3613,8.3613,8.3613,8.3613,8.3613,8.3613,8.3613,8.3613,8.3613,8.3613,8.3613,8.3613,8.3613,8.3613,8.3613,8.3613,8.3613,8.3613,8.3613,8.3613,8.3613,8.3613,8.3613,8.3613,8.3613,8.3613,8.3613,8.3613,8.3613,8.3613,8.3613,8.3613,8.3613,8.3613,8.3613,8.376,8.4096,8.4974,8.5943,8.7024,8.8147,8.9074,8.9757,8.9943,8.9992,8.9992,8.9992,8.9992,8.9992,8.9992,8.9415,8.8837,8.6196,8.332,8.1662,7.9819,7.522,7.2584,7.1774,7.0696,7.0141,7.0047,7.0047,7.0047,7.0047,7.0047,7.0047,7.0047,7.0047,7.0047,7.0047,7.0047,7.0047,7.0047,7.0047,7.0047,7.016,7.016,7.0198,7.0236,7.054,7.0806,7.092,7.1072,7.1603,7.2135,7.2059,7.2127,7.2438,7.2856,7.3312,7.3577,7.3577,7.3881,7.412,7.4835,7.559,7.6121,7.7165,7.7165,7.7263,7.7311,7.7409,7.8385,7.8873,7.8919,7.9944,8.048,8.0724,8.1558,8.2636,8.332,8.3418,8.3467,8.3613,8.3613,8.3613,8.3613,8.3613,8.3613,8.3613,8.3613,8.3613,8.3613,8.3613,8.3613,8.3613,8.3613,8.3613,8.3613,8.3613,8.3613,8.3613,8.3613,8.3613,8.3613,8.3613,8.3613,8.3613,8.3613,8.3613,8.3613,8.3613,8.3613,8.3613,8.3613,8.3613,8.3613,8.3613,8.3613,8.3613,8.3754,8.434,8.5365,8.6382,8.7366,8.8293,8.9074,8.9757,8.9943,8.9992,8.9992,8.9884,8.9884,8.9532,8.8896,8.6076,8.332,8.0049,7.7093,7.522,7.2297,7.1157,7.0603,7.0405,7.0047,7.0047,7.0047,7.0047,7.0047,7.0047,7.0047,7.0047,7.0085,7.0085,7.0502,7.0426,7.0654,7.0502,7.0464,7.0388,7.035,7.0312,7.054,7.0958,7.1224,7.1299,7.1072,7.0806,7.0844,7.1527,7.1603,7.2059,7.2135,7.2362,7.2856,7.3312,7.3729,7.3688,7.3281,7.3663,7.3725,7.4611,7.7165,7.7263,7.8043,7.8385,7.8432,7.9456,7.9895,8.0041,8.1118,8.1611,8.185,8.2685,8.3271,8.3564,8.3613,8.3613,8.3613,8.3613,8.3613,8.3613,8.3613,8.3613,8.3613,8.3613,8.3613,8.3613,8.3613,8.3613,8.3613,8.3613,8.3613,8.3613,8.3613,8.3613,8.3613,8.3613,8.3613,8.3613,8.3613,8.3613,8.3613,8.3613,8.3613,8.3613,8.3613,8.3613,8.3613,8.3613,8.3613,8.3613,8.3613,8.3613,8.3613,8.3662,8.4047,8.4925,8.5943,8.6724,8.7317,8.8293,8.9172,8.9708,8.9992,8.9943,8.9767,8.7379,8.6316,8.7081,8.3747,8.0236,7.7093,7.5732,7.304,7.1223,7.0047,7.0047,7.0047,7.0047,7.0047,7.0047,7.0047,7.0047,7.0198,7.0123,7.0198,7.0198,7.0464,7.092,7.1261,7.1679,7.1641,7.1679,7.1603,7.1603,7.1641,7.1793,7.1907,7.2097,7.2097,7.1983,7.1831,7.1793,7.1641,7.1831,7.2287,7.176,7.0189,7.1539,7.2787,7.1964,7.1428,7.1687,7.1412,7.1302,7.1281,7.7409,7.7897,7.8483,7.8968,7.9505,8.0581,8.1021,8.1265,8.2197,8.2685,8.2832,8.3369,8.3613,8.3613,8.3613,8.3613,8.3613,8.3613,8.3613,8.3613,8.3613,8.3613,8.3613,8.3613,8.3613,8.3613,8.3613,8.3613,8.3613,8.3613,8.3613,8.3613,8.3613,8.3613,8.3613,8.3613,8.3613,8.3613,8.3613,8.3613,8.3613,8.3613,8.3613,8.3613,8.3613,8.3613,8.3613,8.3613,8.3613,8.3613,8.3613,8.3613,8.3613,8.3662,8.3754,8.4535,8.5462,8.5943,8.6236,8.761,8.8537,8.922,8.9757,8.9943,8.965,8.8434,8.7379,8.6961,8.2876,7.98,7.7916,7.4641,7.2258,7.0762,7.0047,7.0047,7.0047,7.0047,7.0047,7.0047,7.0047,7.0388,7.0654,7.0958,7.1375,7.1375,7.1565,7.1793,7.2059,7.2438,7.2628,7.2704,7.2742,7.2704,7.278,7.278,7.2742,7.2666,7.2666,7.2666,7.2666,7.259,7.2287,7.2362,7.1734,7.0056,6.8163,6.8198,6.8232,6.8516,6.8908,6.8065,6.7326,6.7383,6.7446,7.7897,7.8776,7.902,7.9602,8.0578,8.1708,8.225,8.2294,8.3125,8.3613,8.3467,8.3613,8.3613,8.3613,8.3613,8.3613,8.3613,8.3613,8.3613,8.3613,8.3613,8.3613,8.3613,8.3613,8.3613,8.3613,8.3613,8.3613,8.3613,8.3613,8.3613,8.3613,8.3613,8.3613,8.3613,8.3613,8.3613,8.3613,8.3613,8.3613,8.3613,8.3613,8.3613,8.3613,8.3613,8.3613,8.3613,8.3613,8.3613,8.3613,8.3613,8.3613,8.3613,8.3613,8.3613,8.3906,8.434,8.5023,8.5511,8.6926,8.8195,8.8684,8.9513,8.9904,8.9884,8.9591,8.8837,8.9131,8.234,7.7852,7.6052,7.3065,7.096,7.0047,7.0047,7.0047,7.0047,7.0047,7.0047,7.0085,7.0806,7.1072,7.1299,7.1983,7.2552,7.2552,7.259,7.2628,7.278,7.3084,7.3312,7.3426,7.3501,7.3463,7.3501,7.3388,7.3312,7.316,7.316,7.316,7.3312,7.3426,7.3084,7.1101,7.0405,6.8941,6.6798,6.5035,6.3761,6.4275,6.5723,6.5085,6.359,6.3651,6.4096,7.8529,7.8922,8.0634,8.1513,8.1855,8.2832,8.3271,8.332,8.3515,8.3613,8.3613,8.3613,8.3613,8.3613,8.3613,8.3613,8.3613,8.3613,8.3613,8.3613,8.3613,8.3613,8.3613,8.3613,8.3613,8.3613,8.3613,8.3613,8.3613,8.3613,8.3613,8.3613,8.3613,8.3613,8.3613,8.3613,8.3613,8.3613,8.3613,8.3613,8.3613,8.3613,8.3613,8.3613,8.3613,8.3613,8.3613,8.3613,8.3613,8.3613,8.3613,8.3613,8.3613,8.3613,8.3613,8.3613,8.3808,8.4388,8.5121,8.6487,8.7561,8.8195,8.9367,8.9904,8.9992,8.9591,8.7901,8.2094,7.6584,7.3105,7.3429,7.096,7.0141,7.0047,7.0047,7.0047,7.0047,7.0123,7.016,7.0768,7.1489,7.1907,7.2173,7.2742,7.3084,7.3122,7.335,7.3426,7.3539,7.3843,7.3995,7.4147,7.4185,7.4147,7.33,7.2939,7.2444,7.1489,7.0962,7.0962,7.1992,7.2882,7.0973,6.8512,6.7548,6.5291,6.4783,6.3301,6.1332,6.0736,6.2445,6.2335,6.0476,6.0036,6.0313,7.9361,8.0438,8.1513,8.2294,8.2832,8.3369,8.3613,8.3613,8.3613,8.3613,8.3613,8.3613,8.3613,8.3613,8.3613,8.3613,8.3613,8.3613,8.3613,8.3613,8.3613,8.3613,8.3613,8.3613,8.3613,8.3613,8.3613,8.3613,8.3613,8.3613,8.3613,8.3613,8.3613,8.3613,8.3613,8.3613,8.3613,8.3613,8.3613,8.3613,8.3613,8.3613,8.3613,8.3613,8.3613,8.3613,8.3613,8.3613,8.3613,8.3613,8.3613,8.3613,8.3613,8.3613,8.3613,8.3613,8.3613,8.3852,8.4388,8.5901,8.6821,8.7707,8.9123,8.9904,8.9992,8.9591,8.7842,8.2647,7.6584,7.2389,7.2232,7.096,7.0207,7.0047,7.0047,7.0047,7.0123,7.0426,7.0882,7.1451,7.2287,7.2932,7.3122,7.3312,7.3577,7.3843,7.4109,7.4223,7.4337,7.4489,7.4711,7.4749,7.4711,7.3576,7.1335,7.0871,7.0335,6.8504,6.7527,6.7527,6.8031,6.7672,6.6468,6.4741,6.2308,5.9746,5.9048,5.8687,5.7875,5.7093,5.7726,5.7944,5.6799,5.6258,5.6327,8.039,8.2055,8.225,8.2836,8.3515,8.3613,8.3613,8.3613,8.3613,8.3613,8.3613,8.3613,8.3613,8.3613,8.3613,8.3613,8.3613,8.3613,8.3613,8.3613,8.3613,8.3613,8.3613,8.3613,8.3613,8.3613,8.3613,8.3613,8.3613,8.3613,8.3613,8.3613,8.3613,8.3613,8.3613,8.3613,8.3613,8.3613,8.3613,8.3613,8.3613,8.3613,8.3613,8.3613,8.3613,8.3613,8.3613,8.3613,8.3613,8.3613,8.3613,8.3613,8.3613,8.3613,8.3613,8.3613,8.3613,8.3613,8.3955,8.5365,8.6285,8.7065,8.8431,8.9562,8.9894,8.9767,8.8079,8.4279,7.9943,7.6075,7.522,7.184,7.0273,7.0085,7.016,7.0312,7.0502,7.1148,7.2021,7.2476,7.3236,7.3957,7.4071,7.4223,7.4369,7.4451,7.4564,7.464,7.4716,7.4901,7.5053,7.5053,7.5053,7.2594,6.9613,6.918,6.755,6.5434,6.4773,6.4847,6.448,6.3333,6.1034,5.8793,5.6489,5.5486,5.4304,5.3035,5.3089,5.4508,5.3836,5.3035,5.4327,5.5714,5.5027,8.1708,8.2103,8.2978,8.3418,8.3613,8.3613,8.3613,8.3613,8.3613,8.3613,8.3613,8.3613,8.3613,8.3613,8.3613,8.3613,8.3613,8.3613,8.3613,8.3613,8.3613,8.3613,8.3613,8.3613,8.3613,8.3613,8.3613,8.3613,8.3613,8.3613,8.3613,8.3613,8.3613,8.3613,8.3613,8.3613,8.3613,8.3613,8.3613,8.3613,8.3613,8.3613,8.3613,8.3613,8.3613,8.3613,8.3613,8.3613,8.3613,8.3613,8.3613,8.3613,8.3613,8.3613,8.3613,8.3613,8.3613,8.3613,8.3803,8.473,8.5797,8.6675,8.8,8.8976,8.9708,8.9621,8.8102,8.5622,8.2953,8.0068,7.5476,7.1827,7.0197,7.0123,7.0692,7.1101,7.1405,7.2476,7.316,7.3653,7.4109,7.4489,7.4716,7.4863,7.4977,7.5053,7.5015,7.5015,7.5015,7.5053,7.5053,7.5053,7.5053,7.3273,6.9613,6.8131,6.4553,6.2889,6.2413,6.2519,6.2445,6.0811,5.8493,5.4955,5.3028,5.2698,5.201,5.1758,5.2044,5.22,5.2693,5.355,5.4277,5.4927,5.5529,8.2348,8.288,8.3369,8.3613,8.3613,8.3613,8.3613,8.3613,8.3613,8.3613,8.3613,8.3613,8.3613,8.3613,8.3613,8.3613,8.3613,8.3613,8.3613,8.3613,8.3613,8.3613,8.3613,8.3613,8.3613,8.3613,8.3613,8.3613,8.3613,8.3613,8.3613,8.3613,8.3613,8.3613,8.3613,8.3613,8.3613,8.3613,8.3613,8.3613,8.3613,8.3613,8.3613,8.3613,8.3613,8.3613,8.3613,8.3613,8.3613,8.3613,8.3613,8.3613,8.3613,8.3613,8.3613,8.3613,8.3613,8.3613,8.3857,8.4535,8.5365,8.5853,8.7512,8.8147,8.8391,8.9464,8.804,8.505,8.2714,7.9756,7.3195,7.0231,6.9864,7.0009,7.0768,7.1329,7.1671,7.3122,7.4375,7.4489,7.4678,7.4977,7.5053,7.5015,7.5053,7.5053,7.5053,7.5053,7.5053,7.5053,7.5053,7.5053,7.5053,7.3273,6.9469,6.5727,6.2371,5.999,5.9093,5.8673,5.8673,5.7319,5.6064,5.4222,5.2188,5.1472,5.1914,5.2278,5.2667,5.3161,5.3836,5.4563,5.5238,5.5758,5.6251,8.2832,8.3613,8.3613,8.3613,8.3613,8.3613,8.3613,8.3613,8.3613,8.3613,8.3613,8.3613,8.3613,8.3613,8.3613,8.3613,8.3613,8.3613,8.3613,8.3613,8.3613,8.3613,8.3613,8.3613,8.3613,8.3613,8.3613,8.3613,8.3613,8.3613,8.3613,8.3613,8.3613,8.3613,8.3613,8.3613,8.3613,8.3613,8.3613,8.3613,8.3613,8.3613,8.3613,8.3613,8.3613,8.3613,8.3613,8.3613,8.3613,8.3613,8.3613,8.3613,8.3613,8.3613,8.3613,8.3613,8.3613,8.3613,8.376,8.4242,8.4877,8.5316,8.6829,8.7707,8.687,8.8781,8.8045,8.519,8.2367,7.9381,7.4061,7.0735,6.9646,7.0085,7.092,7.1633,7.1747,7.3274,7.4413,7.464,7.4792,7.5053,7.5053,7.5053,7.5053,7.5053,7.5053,7.5053,7.5053,7.5053,7.5053,7.5053,7.4486,7.2702,6.8746,6.4627,6.0139,5.6366,5.4651,5.3688,5.3612,5.2798,5.3495,5.2705,5.1499,5.2044,5.2667,5.3083,5.3836,5.4459,5.5108,5.568,5.6199,5.6589,5.6945,8.3467,8.3613,8.3613,8.3613,8.3613,8.3613,8.3613,8.3613,8.3613,8.3613,8.3613,8.3613,8.3613,8.3613,8.3613,8.3613,8.3613,8.3613,8.3613,8.3613,8.3613,8.3613,8.3613,8.3613,8.3613,8.3613,8.3613,8.3613,8.3613,8.3613,8.3613,8.3613,8.3613,8.3613,8.3613,8.3613,8.3613,8.3613,8.3613,8.3613,8.3613,8.3613,8.3613,8.3613,8.3613,8.3613,8.3613,8.3613,8.3613,8.3613,8.3613,8.3613,8.3613,8.3613,8.3613,8.3613,8.3613,8.3613,8.3662,8.376,8.4096,8.5023,8.609,8.6724,8.687,8.8342,8.8881,8.6966,8.5706,8.1798,7.7745,7.2921,7.0373,7.0123,7.1337,7.1831,7.1861,7.278,7.3773,7.3811,7.4564,7.4977,7.5053,7.5053,7.5053,7.5053,7.5053,7.5053,7.5053,7.5053,7.5053,7.484,7.3415,7.1878,6.7657,6.3448,5.8147,5.3383,5.1828,5.1317,5.1317,5.1369,5.1576,5.1914,5.2226,5.2694,5.3394,5.4277,5.5056,5.5706,5.6199,5.6719,5.7108,5.7282,5.7386,8.3613,8.3613,8.3613,8.3613,8.3613,8.3613,8.3613,8.3613,8.3613,8.3613,8.3613,8.3613,8.3613,8.3613,8.3613,8.3613,8.3613,8.3613,8.3613,8.3613,8.3613,8.3613,8.3613,8.3613,8.3613,8.3613,8.3613,8.3613,8.3613,8.3613,8.3613,8.3613,8.3613,8.3613,8.3613,8.3613,8.3613,8.3613,8.3613,8.3613,8.3613,8.3613,8.3613,8.3613,8.3613,8.3613,8.3613,8.3613,8.3613,8.3613,8.3613,8.3613,8.3613,8.3613,8.3613,8.3613,8.3613,8.3613,8.3613,8.3613,8.3857,8.4291,8.5218,8.5413,8.5462,8.6829,8.7659,8.6263,8.2577,8.0142,7.7642,7.2927,7.0029,6.9933,7.0616,7.1072,7.1367,7.2325,7.2894,7.3198,7.3691,7.4261,7.4223,7.4716,7.4977,7.5053,7.4977,7.5015,7.5053,7.5053,7.4911,7.4022,7.2808,6.9649,6.5727,6.1969,5.7093,5.3028,5.1317,5.1317,5.1317,5.1317,5.1784,5.2382,5.2824,5.3396,5.4407,5.542,5.6095,5.6641,5.729,5.7679,5.7731,5.78,5.7939,8.332,8.3613,8.3613,8.3613,8.3613,8.3613,8.3613,8.3613,8.3613,8.3613,8.3613,8.3613,8.3613,8.3613,8.3613,8.3613,8.3613,8.3613,8.3613,8.3613,8.3613,8.3613,8.3613,8.3613,8.3613,8.3613,8.3613,8.3613,8.3613,8.3613,8.3613,8.3613,8.3613,8.3613,8.3613,8.3613,8.3613,8.3613,8.3613,8.3613,8.3613,8.3613,8.3613,8.3613,8.3613,8.3613,8.3613,8.3613,8.3613,8.3613,8.3613,8.3613,8.3613,8.3613,8.3613,8.3613,8.3613,8.3613,8.3613,8.3613,8.3613,8.3656,8.4633,8.4681,8.3808,8.5511,8.5992,8.4499,8.0642,7.7567,7.6407,7.2203,6.9378,6.9325,6.9591,7.0047,7.0806,7.1641,7.2173,7.2287,7.2894,7.3312,7.3501,7.3843,7.4261,7.4489,7.4602,7.464,7.4977,7.5053,7.5053,7.388,7.2093,6.8166,6.4185,6.0556,5.6715,5.2722,5.1317,5.1317,5.1317,5.1343,5.1992,5.3032,5.35,5.4619,5.5602,5.6407,5.6874,5.7394,5.7809,5.7939,5.8095,5.806,5.8147,8.2685,8.3564,8.3613,8.3564,8.3613,8.3613,8.3613,8.3613,8.3613,8.3613,8.3613,8.3613,8.3613,8.3613,8.3613,8.3613,8.3613,8.3613,8.3613,8.3613,8.3613,8.3613,8.3613,8.3613,8.3613,8.3613,8.3613,8.3613,8.3613,8.3613,8.3613,8.3613,8.3613,8.3613,8.3613,8.3613,8.3613,8.3613,8.3613,8.3613,8.3613,8.3613,8.3613,8.3613,8.3613,8.3613,8.3613,8.3613,8.3613,8.3613,8.3613,8.3613,8.3613,8.3613,8.3613,8.3613,8.3613,8.3613,8.3613,8.3613,8.3613,8.3662,8.4388,8.4681,8.39,8.5169,8.5901,8.4837,8.0896,7.7906,7.6304,7.2276,6.8855,6.7909,6.8338,6.9059,6.9971,7.073,7.111,7.1443,7.2021,7.259,7.259,7.2704,7.316,7.3508,7.3881,7.4261,7.4602,7.4977,7.5053,7.4093,7.2808,6.8853,6.3891,6.0214,5.5988,5.2722,5.1317,5.1317,5.1317,5.1421,5.1836,5.3213,5.4303,5.568,5.6744,5.729,5.7783,5.7887,5.7939,5.8069,5.8147,5.8147,5.8147,8.1558,8.2539,8.2587,8.2978,8.3564,8.3613,8.3613,8.3613,8.3613,8.3613,8.3613,8.3613,8.3613,8.3613,8.3613,8.3613,8.3613,8.3613,8.3613,8.3613,8.3613,8.3613,8.3613,8.3613,8.3613,8.3613,8.3613,8.3613,8.3613,8.3613,8.3613,8.3613,8.3613,8.3613,8.3613,8.3613,8.3613,8.3613,8.3613,8.3613,8.3613,8.3613,8.3613,8.3613,8.3613,8.3613,8.3613,8.3613,8.3613,8.3613,8.3613,8.3613,8.3613,8.3613,8.3613,8.3613,8.3613,8.3613,8.3613,8.3613,8.3613,8.3662,8.3955,8.3955,8.3857,8.4047,8.4633,8.3864,8.0814,7.7998,7.6082,7.2377,6.9023,6.6296,6.7187,6.7807,6.7807,6.887,6.9667,7.0085,7.0958,7.1633,7.1937,7.2097,7.2666,7.2932,7.3388,7.3957,7.4147,7.464,7.4868,7.4519,7.2093,6.7948,6.3596,5.9467,5.523,5.3077,5.1368,5.1317,5.1369,5.1499,5.1836,5.3187,5.4511,5.5758,5.7186,5.7809,5.8095,5.8147,5.8095,5.8147,5.8147,5.8147,5.8147,8.0432,8.1464,8.1855,8.2441,8.3076,8.3467,8.3613,8.3613,8.3613,8.3613,8.3613,8.3613,8.3613,8.3613,8.3613,8.3613,8.3613,8.3613,8.3613,8.3613,8.3613,8.3613,8.3613,8.3613,8.3613,8.3613,8.3613,8.3613,8.3613,8.3613,8.3613,8.3613,8.3613,8.3613,8.3613,8.3613,8.3613,8.3613,8.3613,8.3613,8.3613,8.3613,8.3613,8.3613,8.3613,8.3613,8.3613,8.3613,8.3613,8.3613,8.3613,8.3613,8.3613,8.3613,8.3613,8.3613,8.3613,8.3613,8.3613,8.3613,8.3613,8.3613,8.3613,8.3613,8.3613,8.3662,8.3662,8.3341,8.101,7.8063,7.5434,7.2593,6.9833,6.677,6.6798,6.6921,6.6706,6.7643,6.8376,6.887,7.0009,7.0768,7.0996,7.1224,7.1717,7.2097,7.2552,7.3198,7.3584,7.4223,7.4461,7.3236,6.9252,6.5287,6.1746,5.8042,5.4727,5.2645,5.1598,5.1317,5.1447,5.1628,5.207,5.3005,5.4277,5.5628,5.7134,5.7887,5.7965,5.8017,5.8069,5.8121,5.8147,5.8147,5.8147,7.9358,8.0383,8.1562,8.1855,8.2148,8.3027,8.3564,8.3515,8.3564,8.3613,8.3613,8.3613,8.3613,8.3613,8.3613,8.3613,8.3613,8.3613,8.3613,8.3613,8.3613,8.3613,8.3613,8.3613,8.3613,8.3613,8.3613,8.3613,8.3613,8.3613,8.3613,8.3613,8.3613,8.3613,8.3613,8.3613,8.3613,8.3613,8.3613,8.3613,8.3613,8.3613,8.3613,8.3613,8.3613,8.3613,8.3613,8.3613,8.3613,8.3613,8.3613,8.3613,8.3613,8.3613,8.3613,8.3613,8.3613,8.3613,8.3613,8.3613,8.3613,8.3613,8.3613,8.3613,8.3613,8.3613,8.3613,8.333,8.1499,7.8735,7.5273,7.2693,7.066,6.9527,6.7388,6.6451,6.6389,6.6933,6.7769,6.8604,6.9553,6.9942,6.998,7.0208,7.0616,7.1215,7.1557,7.2089,7.3084,7.3622,7.2348,7.0192,6.7627,6.3932,6.0258,5.6791,5.4346,5.2415,5.1675,5.1421,5.1576,5.1992,5.2459,5.3109,5.4407,5.5368,5.6848,5.7264,5.7446,5.7835,5.7965,5.8017,5.8095,5.8147,5.8147,7.8288,7.9212,7.9654,8.0191,8.0972,8.205,8.249,8.2641,8.3271,8.3613,8.3613,8.3613,8.3613,8.3613,8.3613,8.3613,8.3613,8.3613,8.3613,8.3613,8.3613,8.3613,8.3613,8.3613,8.3613,8.3613,8.3613,8.3613,8.3613,8.3613,8.3613,8.3613,8.3613,8.3613,8.3613,8.3613,8.3613,8.3613,8.3613,8.3613,8.3613,8.3613,8.3613,8.3613,8.3613,8.3613,8.3613,8.3613,8.3613,8.3613,8.3613,8.3613,8.3613,8.3613,8.3613,8.3613,8.3613,8.3613,8.3613,8.3613,8.3613,8.3613,8.3613,8.3613,8.3613,8.3613,8.3613,8.345,8.2702,8.1104,7.7858,7.4794,7.2246,6.9805,6.7617,6.6047,6.5491,6.6136,6.6971,6.7883,6.9059,6.9857,7.0047,7.0047,7.016,7.035,7.1025,7.1443,7.2135,7.2756,7.2406,6.8872,6.6555,6.2803,5.8853,5.5042,5.2156,5.1802,5.142,5.1576,5.1836,5.2382,5.3032,5.3602,5.4407,5.5316,5.5991,5.6459,5.6926,5.742,5.7576,5.7653,5.7887,5.8043,5.7965,7.9699,7.9404,7.8988,7.9115,7.9846,8.0923,8.1415,8.1411,8.2143,8.2583,8.2978,8.3027,8.3222,8.3564,8.3173,8.3222,8.3564,8.3613,8.3613,8.3613,8.3613,8.3613,8.3613,8.3613,8.3613,8.3613,8.3613,8.3613,8.3613,8.3613,8.3613,8.3613,8.3613,8.3613,8.3613,8.3613,8.3613,8.3613,8.3613,8.3613,8.3613,8.3613,8.3613,8.3613,8.3613,8.3613,8.3613,8.3613,8.3613,8.3613,8.3613,8.3613,8.3613,8.3613,8.3613,8.3613,8.3613,8.3613,8.3613,8.3613,8.3613,8.3613,8.3613,8.3613,8.3613,8.3613,8.3613,8.3559,8.3559,8.2207,7.9185,7.6084,7.2979,6.9981,6.7365,6.5529,6.5163,6.5453,6.6275,6.7351,6.83,6.9336,6.9743,7.0047,7.0047,7.0018,7.0464,7.092,7.1443,7.2097,7.0892,6.6706,6.3864,6.1327,5.7344,5.3437,5.1186,5.129,5.1525,5.181,5.2174,5.2693,5.3239,5.3836,5.4407,5.5186,5.5399,5.5784,5.6355,5.6796,5.7004,5.7134,5.7472,5.729,5.7282,8.3169,8.1003,7.9604,7.9139,7.8929,7.9801,8.0236,8.0236,8.0383,8.0972,8.1855,8.1952,8.249,8.3271,8.2343,8.249,8.332,8.3418,8.3418,8.3418,8.3564,8.3613,8.3613,8.3613,8.3613,8.3613,8.3613,8.3613,8.3613,8.3613,8.3613,8.3613,8.3613,8.3613,8.3613,8.3613,8.3613,8.3613,8.3613,8.3613,8.3613,8.3613,8.3613,8.3613,8.3613,8.3613,8.3613,8.3613,8.3613,8.3613,8.3613,8.3613,8.3613,8.3613,8.3613,8.3613,8.3613,8.3613,8.3613,8.3613,8.3613,8.3613,8.3613,8.3613,8.3613,8.3613,8.3613,8.3613,8.3613,8.2481,7.9678,7.6426,7.3096,7.0315,6.7077,6.5181,6.4898,6.5012,6.5718,6.6971,6.7541,6.83,6.9705,6.9971,7.0009,7.0047,7.0047,7.0312,7.1025,7.1329,6.8898,6.4593,6.2038,6.0346,5.6256,5.2646,5.1076,5.1134,5.1525,5.2122,5.2537,5.2979,5.3498,5.4044,5.4619,5.4879,5.4931,5.5269,5.5732,5.6043,5.6225,5.6452,5.6822,5.6478,5.6556,8.4148,8.355,8.3109,8.1935,8.0242,7.9493,7.9163,7.9212,7.9993,8.048,8.0724,8.0724,8.0919,8.1114,8.0923,8.0923,8.1261,8.205,8.2441,8.2539,8.3271,8.3613,8.3613,8.3613,8.3613,8.3613,8.3613,8.3613,8.3613,8.3613,8.3613,8.3613,8.3613,8.3613,8.3613,8.3613,8.3613,8.3613,8.3613,8.3613,8.3613,8.3613,8.3613,8.3613,8.3613,8.3613,8.3613,8.3613,8.3613,8.3613,8.3613,8.3613,8.3613,8.3613,8.3613,8.3613,8.3613,8.3613,8.3613,8.3613,8.3613,8.3613,8.3613,8.3613,8.3613,8.3613,8.3613,8.3564,8.3613,8.3347,8.1823,7.745,7.4141,7.2804,6.8004,6.4959,6.4898,6.4898,6.5377,6.6402,6.7123,6.7921,6.8946,6.9629,7.0047,7.0047,7.0047,7.016,7.035,7.0786,6.9677,6.5223,6.253,5.8741,5.2757,5.0745,5.0736,5.0925,5.155,5.2252,5.285,5.3316,5.3862,5.4359,5.4593,5.4801,5.4853,5.4853,5.5165,5.5238,5.555,5.5939,5.6115,5.6322,5.6322,8.6487,8.6072,8.6072,8.4102,8.0804,7.8857,7.8141,7.8141,7.8724,7.9261,7.9554,7.9212,7.9261,7.9651,7.9651,7.9895,8.0334,8.1021,8.1314,8.1362,8.1948,8.2241,8.229,8.2734,8.2929,8.2929,8.3418,8.3613,8.3613,8.3613,8.3613,8.3613,8.3613,8.3613,8.3613,8.3613,8.3613,8.3613,8.3613,8.3613,8.3613,8.3613,8.3613,8.3564,8.3173,8.2929,8.2929,8.249,8.2241,8.2241,8.2241,8.2241,8.2241,8.2241,8.2241,8.2241,8.2241,8.2241,8.2241,8.2241,8.2436,8.2929,8.2929,8.3173,8.3515,8.3613,8.3369,8.3027,8.2929,8.2529,8.1342,7.7166,7.372,7.1968,6.8004,6.4898,6.4898,6.4898,6.5301,6.6199,6.6997,6.7769,6.868,6.9515,6.9971,7.0047,7.0047,7.0047,6.998,7.0426,6.855,6.4256,6.1511,5.7675,5.3017,5.0811,4.996,5.0226,5.1213,5.2148,5.2693,5.3394,5.4359,5.4697,5.4775,5.4775,5.4775,5.4801,5.4801,5.4879,5.5191,5.5316,5.5654,5.5732,5.5732,8.9138,8.8318,8.8143,8.5528,8.1358,7.8707,7.7665,7.7615,7.7265,7.7751,7.8432,7.7604,7.7751,7.848,7.8629,7.9117,7.9895,8.009,8.0139,8.0139,8.0184,8.0285,8.048,8.1362,8.1855,8.1952,8.2734,8.3125,8.3071,8.3119,8.3271,8.332,8.3418,8.3418,8.3467,8.3564,8.3613,8.3613,8.3418,8.3217,8.332,8.332,8.3271,8.3271,8.2343,8.1855,8.1806,8.0874,8.0334,8.0285,8.0383,8.0334,8.0334,8.0236,8.0188,8.0188,8.0038,8.0041,7.9993,8.0038,8.0675,8.1708,8.1855,8.2246,8.3022,8.3168,8.288,8.2099,8.1855,8.113,7.9147,7.5954,7.2841,7.0425,6.6944,6.4784,6.4746,6.486,6.5263,6.6085,6.6807,6.7655,6.8452,6.9287,6.9857,6.9905,7.0047,7.0047,6.998,7.0056,6.7901,6.2503,5.9468,5.7594,5.4377,5.1084,4.9477,4.9681,5.0903,5.1888,5.2433,5.3394,5.4645,5.4437,5.4645,5.4671,5.4723,5.4801,5.4801,5.4801,5.4827,5.4827,5.4801,5.4905,5.4931,8.8321,8.8101,8.8043,8.6971,8.4805,8.1436,8.0027,7.9832,7.7965,7.7311,7.7458,7.7263,7.7263,7.7507,7.7507,7.7653,7.7995,7.8727,7.9066,7.9163,7.9895,8.0285,8.0334,8.0529,8.0675,8.0724,8.0919,8.1017,8.107,8.1017,8.1017,8.1114,8.1952,8.2397,8.2392,8.3173,8.3613,8.3515,8.1895,8.1017,8.1017,8.1017,8.1017,8.1017,8.0773,8.0675,8.0675,8.0432,8.0285,8.0285,8.0285,8.0285,8.0236,7.9554,7.9066,7.8968,7.8336,7.7897,7.7897,7.8578,7.9554,8.0578,8.0675,8.0773,8.0968,8.1017,8.0919,8.0724,8.0578,8.0514,7.9483,7.5335,7.1742,7.0882,6.6807,6.4274,6.4086,6.4617,6.5073,6.5263,6.5984,6.682,6.7655,6.8528,6.9287,6.9857,7.0047,7.0047,7.0047,7.0047,6.8378,6.4314,6.0835,5.773,5.4205,5.0911,4.9294,4.9525,5.0668,5.1499,5.2122,5.2771,5.3552,5.4021,5.4125,5.4255,5.4671,5.4749,5.4723,5.4671,5.4697,5.4749,5.4749,5.4775,5.4775,8.7483,8.8006,8.8006,8.7048,8.5254,8.3304,8.1526,7.993,7.9089,7.8787,7.8739,7.8787,7.8474,7.7959,7.796,7.7669,7.7165,7.7751,7.8043,7.8092,7.8578,7.8922,7.8919,7.9358,7.9602,7.9602,8.009,8.0285,8.0285,8.0285,8.0285,8.0334,8.0923,8.1216,8.1265,8.1802,8.2094,8.2046,8.0383,7.9602,7.9554,7.9115,7.8822,7.8822,7.8334,7.8141,7.819,7.7603,7.7359,7.7359,7.6921,7.6872,7.7261,7.6384,7.6042,7.6383,7.5505,7.492,7.4968,7.5457,7.6482,7.7993,7.8629,7.8288,7.6823,7.7066,7.7749,7.8724,7.8822,7.9212,8.0031,7.6069,7.2711,7.1537,6.7703,6.476,6.3609,6.363,6.401,6.439,6.5149,6.5946,6.6782,6.7996,6.9022,6.9363,6.9857,7.0047,7.0047,6.998,6.8711,6.5017,6.1352,5.7705,5.4029,5.0637,4.8855,4.9109,5.0148,5.1057,5.168,5.2511,5.3057,5.3394,5.3526,5.3602,5.3891,5.4021,5.3995,5.4021,5.4177,5.4385,5.4437,5.4619,5.4567,8.6494,8.7541,8.7541,8.6352,8.459,8.459,8.2717,7.982,8.0523,8.0806,8.0657,8.0346,7.9675,7.8666,7.8386,7.7651,7.6727,7.6726,7.6774,7.6921,7.6921,7.7069,7.7214,7.8092,7.8532,7.8529,7.9407,7.9846,7.9846,7.9846,7.9846,7.9846,7.9846,7.9944,8.009,8.0184,8.009,7.9602,7.8776,7.8385,7.848,7.7653,7.7067,7.6921,7.6141,7.5555,7.5359,7.4285,7.3651,7.3651,7.2673,7.2382,7.3114,7.2235,7.1943,7.2626,7.1747,7.1354,7.1647,7.1647,7.2575,7.4724,7.5847,7.5066,7.1991,7.287,7.4432,7.6238,7.6678,7.7458,7.8911,7.6364,7.3417,7.1234,6.8257,6.5536,6.3185,6.279,6.293,6.3516,6.42,6.4921,6.5946,6.7389,6.8376,6.887,6.9553,7.0047,7.0047,7.0047,6.8645,6.5726,6.1761,5.7913,5.4881,5.0807,4.8463,4.8741,4.9651,5.0457,5.1057,5.1966,5.2538,5.2798,5.2772,5.2798,5.2824,5.2876,5.2954,5.2876,5.3396,5.3654,5.355,5.3862,5.4021,8.4613,8.4885,8.4846,8.5231,8.5839,8.5839,8.4871,8.3334,0.0,0.0,0.0,7.8736,7.7845,7.7495,7.562,7.4622,7.4432,7.4481,7.4969,7.5896,7.5896,7.6385,7.7165,7.736,7.7409,7.7458,7.7604,7.7751,7.7702,7.7702,7.7702,7.7702,7.7702,7.819,7.9017,7.9895,7.9017,7.653,7.6238,7.658,7.7409,7.7263,7.6726,7.5896,7.5701,7.5164,7.4188,7.3163,7.2577,7.2528,7.1599,7.0719,6.985,6.8872,6.7994,6.7355,6.6324,6.6519,6.814,6.8286,6.9258,7.1452,7.2575,7.1796,6.8575,7.0918,7.2771,7.3161,7.3944,7.4578,7.492,7.236,7.0407,6.9951,6.6622,6.4358,6.3754,6.3048,6.2474,6.2778,6.293,6.3576,6.4959,6.6123,6.7225,6.8528,6.9363,7.0047,7.0047,7.0009,6.9602,6.8341,6.336,5.8848,5.7151,5.2521,4.8385,4.8788,4.8928,4.9521,5.0379,5.0847,5.116,5.1602,5.1602,5.1602,5.1628,5.1914,5.2096,5.168,5.2486,5.3005,5.2589,5.2511,5.2511,8.2268,8.2364,8.3042,8.3644,0.0,8.4885,8.4086,8.2317,8.169,8.1116,8.0555,8.0139,7.9566,7.8902,7.8389,7.7262,7.5651,7.5604,7.5337,7.4773,7.4773,7.4969,7.5505,7.5505,7.5505,7.5505,7.5457,7.5798,7.6385,7.6385,7.6385,7.6385,7.6385,7.6335,7.6286,7.6773,7.6042,7.3943,7.5066,7.5848,7.6286,7.5848,7.4969,7.3992,7.3943,0.0,0.0,0.0,0.0,0.0,0.0,0.0,0.0,0.0,0.0,6.5109,6.3589,6.2864,6.336,6.3409,6.4133,6.5689,6.6769,6.6238,6.3604,6.6422,6.8717,6.9746,7.0332,7.1067,7.214,7.1055,6.9763,6.8767,6.6005,6.3645,6.2695,6.1148,6.0346,6.1106,6.1277,6.1884,6.3516,6.4466,6.5705,6.7301,6.8186,6.8984,6.9715,6.9667,6.9591,6.9668,6.5085,6.1147,5.8917,5.404,5.0457,4.9027,4.8746,4.9109,4.9888,5.0018,5.0096,5.0356,5.0434,5.0434,5.046,5.0642,5.0695,5.059,5.1186,5.1498,5.0616,5.0668,5.0773,8.0481,8.0598,8.1587,8.2032,8.2148,8.3062,8.2306,8.0481,8.0481,8.0481,8.0503,8.1117,8.0816,7.9886,8.0481,7.9237,7.6682,7.6275,7.5148,7.3535,7.3353,7.3358,7.3553,7.3797,7.3846,7.3846,7.3846,7.4334,7.531,7.531,7.531,7.531,7.5261,7.4676,7.3602,0.0,0.0,0.0,7.3992,7.5115,7.5261,7.4334,7.3358,7.2333,7.2284,0.0,7.0768,7.0374,7.0133,7.0036,6.8038,0.0,0.0,0.0,0.0,0.0,0.0,0.0,0.0,0.0,0.0,0.0,6.018,6.018,5.8775,6.1546,6.4182,6.6043,6.6818,6.7799,6.9405,6.9547,6.9023,6.769,6.5425,6.33,6.1536,5.9405,5.8252,5.9262,5.9454,6.027,6.1866,6.2757,6.3972,6.5718,6.6706,6.7769,6.9059,6.8794,6.8794,6.9232,6.7204,6.4065,6.0566,5.6942,5.3428,5.0551,4.9654,4.9648,4.9513,4.9447,4.9447,4.9447,4.9421,4.9421,4.9291,4.9369,4.9447,4.9291,4.9836,5.0015,4.885,4.9057,4.9421,8.0481,8.0481,8.0656,8.0714,8.0751,8.0852,8.0772,8.0481,8.0481,8.0481,8.0371,7.8498,7.7613,7.7336,7.5587,7.4575,7.4078,7.2292,7.1738,7.2226,7.1489,7.1647,7.2528,7.3456,7.3846,7.3846,7.3846,7.3992,7.409,7.409,7.409,7.409,7.409,7.3553,7.2431,7.0579,7.0042,7.0961,7.2136,7.3163,7.409,7.3944,7.3358,7.238,7.2284,7.1843,7.0768,6.8916,6.7847,6.7843,6.589,6.437,6.3409,6.1351,5.9214,0.0,5.525,0.0,0.0,0.0,0.0,0.0,0.0,0.0,0.0,5.819,6.0619,6.1782,6.4426,6.5842,6.5201,6.5152,6.5463,6.6009,6.4467,6.2767,6.1405,6.0245,5.8811,5.6859,5.7366,5.8522,6.0062,6.1087,6.2491,6.4617,6.5567,6.606,6.6731,6.7123,6.7541,6.7731,6.8026,6.6895,6.396,6.0601,5.6911,5.3706,5.2777,5.1924,4.9496,4.9043,4.8923,4.8923,4.8824,4.8694,4.8128,4.8538,4.8668,4.8232,4.888,4.9239,4.8284,4.846,4.8824,7.8292,7.8351,7.9143,7.8118,7.6175,7.614,7.614,7.614,7.614,7.614,7.607,7.5063,7.5014,7.572,7.6178,7.5678,7.4573,7.4265,7.3727,7.2976,7.2569,7.2614,7.3041,7.2933,7.2899,7.2854,7.1764,7.1457,7.2087,7.1503,7.1164,7.1213,7.1213,7.0588,6.9324,6.743,6.755,6.9701,7.0237,7.1601,7.3748,7.3846,7.3358,7.2333,7.2284,7.1503,6.9844,6.8872,6.8335,6.8286,6.633,6.4377,6.2628,5.9458,5.6141,0.0,0.0,0.0,0.0,0.0,0.0,0.0,0.0,0.0,0.0,0.0,5.6373,5.7398,6.1498,6.3401,6.1791,6.2221,6.271,6.3157,6.12,5.9617,5.9018,5.7667,5.598,5.3796,5.4684,5.5938,5.71,5.8353,6.01,6.2567,6.2036,6.1752,6.2681,6.4314,6.5567,6.606,6.7199,6.7541,6.6401,6.3048,5.9311,5.5963,5.5076,5.4003,5.0817,5.0448,4.9987,4.824,4.8071,4.8102,4.7895,4.805,4.8128,4.7895,4.7998,4.7993,4.7551,4.7863,4.8278,7.5698,7.564,7.5442,7.3814,7.1429,7.1661,7.201,7.2301,7.2559,7.2326,7.1894,7.2443,7.2592,7.2509,7.4778,7.5067,7.3792,7.4513,7.4234,7.3173,7.2927,7.2727,7.256,7.1968,7.1464,7.0995,6.9864,6.9605,6.9935,6.931,6.8989,6.8901,6.8453,6.7542,6.6261,6.5422,6.6108,6.8193,6.8729,7.0192,7.2627,7.3016,7.2577,7.1552,7.1503,7.0625,6.8681,6.8433,6.8242,6.8238,6.575,6.3499,6.1546,5.6922,0.0,0.0,0.0,0.0,0.0,0.0,0.0,0.0,0.0,4.4659,4.2756,0.0,5.2078,0.0,5.8092,6.0531,5.9253,5.935,0.0,0.0,5.8055,5.6512,5.6435,5.5186,5.3466,5.1338,5.2204,5.319,5.4076,5.5392,5.7154,5.9112,5.8125,5.7632,5.8961,6.1125,6.2719,6.3137,6.4276,6.5339,6.4954,6.3481,6.089,5.7632,5.727,5.6177,5.2806,5.2734,5.2285,4.9912,4.9038,4.8671,4.8698,4.79,4.7466,4.711,4.672,4.646,4.6642,4.6883,4.7246,7.2966,7.2617,6.8113,6.6717,6.7562,6.8811,6.9975,7.1138,7.2185,7.1396,6.9509,7.172,7.0149,6.5991,6.733,0.0,6.948,6.8876,6.9677,7.1671,7.0839,7.0047,6.9459,7.0288,6.9712,6.7949,6.9627,6.9505,6.7872,6.8535,6.89,6.86,6.6741,6.5141,6.3982,6.5825,6.6601,6.6177,6.7998,6.9119,6.9457,7.0429,7.0429,6.9314,6.9265,6.8729,6.7603,6.6671,6.6134,6.6037,6.223,5.9497,5.8179,0.0,0.0,0.0,0.0,0.0,0.0,0.0,0.0,0.0,0.0,0.0,0.0,0.0,0.0,0.0,5.4141,0.0,5.7984,5.6275,0.0,0.0,0.0,5.4725,5.4484,5.4105,5.303,5.0715,0.0,0.0,5.1481,5.2355,5.3266,5.4304,5.5506,5.6341,5.6493,5.7974,5.8847,5.8446,5.8978,5.9436,5.9986,6.121,6.1389,5.9347,5.9857,5.8718,5.5578,5.5296,5.5899,5.5164,5.3,5.0983,5.1052,4.8492,4.6062,4.5212,4.5003,4.5,4.5469,4.5704,4.5939,6.7039,6.3373,6.1394,6.0898,6.1336,6.186,6.3227,6.5117,6.5582,6.5203,6.4419,6.532,6.3838,6.0579,6.1045,0.0,0.0,0.0,6.6806,6.9952,6.9656,7.0076,7.1197,7.1104,7.0626,6.9769,6.8908,6.8,6.7221,6.657,6.5321,6.3455,0.0,0.0,6.1136,6.299,6.397,6.4021,6.5994,6.775,6.8973,6.9457,6.9457,6.8973,6.8388,6.7603,6.653,6.6134,6.4963,6.3011,6.0131,5.6568,0.0,0.0,0.0,0.0,0.0,0.0,0.0,0.0,0.0,0.0,0.0,3.8802,0.0,0.0,0.0,0.0,4.7459,4.9166,5.0955,5.2698,0.0,0.0,0.0,0.0,0.0,0.0,0.0,4.6568,4.8924,5.0841,5.0684,4.9984,4.9536,4.9925,5.095,5.1899,5.2381,0.0,5.6014,5.6645,5.7442,5.8125,5.8657,5.915,5.9287,5.8421,5.8961,5.8199,5.5014,5.5659,5.6104,5.4745,5.3539,5.2243,5.0357,4.9208,4.8173,4.7767,4.7943,4.7566,4.6096,4.6437,4.6423,5.9632,0.0,0.0,0.0,0.0,5.5693,5.6866,5.8836,5.9004,5.8636,5.7997,5.8695,0.0,0.0,0.0,0.0,0.0,0.0,6.3053,6.5728,6.8055,6.9454,7.0136,6.9911,6.9456,6.8851,6.6665,6.527,6.4674,6.2729,6.0614,5.8459,0.0,0.0,0.0,0.0,6.2315,6.2531,6.4726,6.6622,6.8047,6.8388,6.8583,6.8534,6.7555,6.6574,6.5451,6.4524,6.2815,6.018,5.6703,0.0,0.0,0.0,0.0,0.0,0.0,0.0,0.0,0.0,0.0,0.0,0.0,0.0,0.0,0.0,0.0,0.0,0.0,0.0,4.5128,4.8271,4.9735,0.0,0.0,0.0,0.0,0.0,0.0,0.0,0.0,0.0,4.9627,4.8538,4.7909,0.0,0.0,4.9241,4.9574,5.1405,5.2924,5.3557,5.4215,0.0,5.5392,5.543,5.5506,5.6052,5.7002,5.6943,5.4772,5.5482,5.5806,5.4047,5.3499,5.2317,4.9235,4.86,4.8527,4.7971,4.8119,4.7681,4.6105,4.6246,4.6186,0.0,0.0,0.0,0.0,0.0,0.0,0.0,0.0,5.3693,5.2549,0.0,5.2781,0.0,0.0,0.0,0.0,5.0466,5.5342,0.0,0.0,6.5379,6.7252,6.4451,6.547,6.4989,6.3132,6.2442,6.1122,5.9017,5.6667,0.0,0.0,0.0,0.0,0.0,0.0,6.2498,6.2061,6.4559,6.5939,6.6037,6.6969,6.7506,6.7457,6.6482,6.5451,6.4321,6.1351,5.9165,5.7972,5.1037,0.0,0.0,0.0,0.0,0.0,0.0,0.0,0.0,0.0,0.0,0.0,0.0,0.0,0.0,0.0,0.0,0.0,0.0,0.0,0.0,4.2951,0.0,0.0,0.0,0.0,0.0,0.0,0.0,0.0,0.0,0.0,4.7764,4.831,4.9122,5.0096,0.0,0.0,0.0,0.0,4.9574,4.8095,4.7754,4.7867,4.7905,4.9271,5.0826,5.2343,0.0,0.0,5.5901,5.5485,5.4964,5.4912,5.3351,5.1088,4.7197,4.6578,4.596,4.3921,4.3559,4.3443,4.3822,4.4132,4.4249,0.0,0.0,0.0,0.0,0.0,0.0,0.0,0.0,0.0,4.8046,0.0,4.7369,0.0,0.0,0.0,0.0,0.0,0.0,0.0,0.0,5.6073,5.7993,5.8541,5.9828,6.0084,0.0,5.8684,5.5617,0.0,0.0,0.0,0.0,0.0,0.0,0.0,0.0,5.9622,5.8449,6.2602,6.5249,6.5842,6.6232,6.6476,6.6384,6.6086,6.4426,6.1254,5.8032,5.4518,0.0,0.0,0.0,0.0,0.0,0.0,0.0,0.0,0.0,0.0,0.0,0.0,0.0,0.0,0.0,0.0,0.0,0.0,0.0,0.0,0.0,0.0,0.0,4.095,0.0,0.0,0.0,0.0,0.0,0.0,0.0,0.0,0.0,4.5888,4.5513,4.6071,4.8162,4.7408,4.7185,4.8604,0.0,0.0,0.0,0.0,0.0,0.0,0.0,4.9203,4.9157,4.9279,4.9735,5.115,5.1557,5.1698,5.1747,0.0,0.0,4.4726,4.4815,4.5352,4.4514,4.4275,4.3887,4.2858,4.2913,4.2986,0.0,0.0,0.0,0.0,0.0,0.0,0.0,0.0,0.0,4.2736,4.2696,0.0,0.0,0.0,0.0,0.0,0.0,0.0,0.0,0.0,0.0,0.0,5.3024,5.4328,0.0,0.0,0.0,0.0,0.0,0.0,0.0,0.0,0.0,0.0,0.0,0.0,5.7104,5.6228,6.1081,6.4084,6.4768,6.5158,6.5396,6.5396,6.5012,6.3157,5.9555,0.0,0.0,0.0,0.0,0.0,0.0,0.0,0.0,0.0,0.0,0.0,0.0,0.0,0.0,0.0,0.0,0.0,0.0,0.0,0.0,0.0,0.0,0.0,0.0,0.0,3.7216,0.0,0.0,0.0,0.0,0.0,0.0,0.0,0.0,0.0,0.0,0.0,4.4477,4.6297,4.6098,4.6237,4.7744,4.7958,4.8452,0.0,0.0,0.0,0.0,0.0,0.0,0.0,0.0,0.0,0.0,0.0,0.0,0.0,0.0,4.3999,4.0965,4.1346,4.222,4.2486,0.0,0.0,0.0,0.0,0.0,0.0,0.0,0.0,0.0,0.0,0.0,0.0,0.0,0.0,0.0,3.6472,0.0,0.0,3.6339,0.0,0.0,0.0,0.0,0.0,0.0,0.0,0.0,0.0,0.0,0.0,0.0,0.0,0.0,0.0,0.0,0.0,0.0,0.0,0.0,0.0,0.0,5.534,5.5424,6.0145,6.2628,6.2718,6.3743,6.437,6.4273,6.3157,6.1506,5.9312,0.0,0.0,0.0,0.0,0.0,0.0,0.0,0.0,0.0,0.0,0.0,0.0,0.0,0.0,0.0,0.0,0.0,0.0,0.0,0.0,0.0,0.0,0.0,0.0,0.0,0.0,3.421,3.6703,3.8509,0.0,0.0,0.0,0.0,0.0,0.0,0.0,0.0,0.0,0.0,4.6325,4.713,4.6438,4.6368,4.6792,4.7381,4.685,4.6584,4.726,4.6774,4.6508,0.0,0.0,0.0,0.0,0.0,0.0,0.0,0.0,0.0,0.0,0.0,0.0,0.0,0.0,0.0,0.0,0.0,0.0,0.0,0.0,0.0,0.0,0.0,0.0,0.0,0.0,0.0,0.0,0.0,0.0,0.0,0.0,0.0,0.0,0.0,0.0,0.0,0.0,0.0,0.0,0.0,0.0,0.0,0.0,0.0,0.0,0.0,0.0,0.0,0.0,0.0,0.0,0.0,0.0,5.3079,5.394,5.9635,6.262,6.258,6.3694,6.398,6.3108,6.136,5.9057,0.0,0.0,0.0,0.0,0.0,0.0,0.0,0.0,0.0,0.0,0.0,0.0,0.0,0.0,0.0,0.0,0.0,0.0,0.0,0.0,0.0,0.0,0.0,0.0,0.0,0.0,0.0,0.0,3.7924,3.7948,3.6436,0.0,0.0,0.0,0.0,0.0,0.0,0.0,0.0,0.0,0.0,4.689,4.7055,4.8363,4.8771,4.6842,4.6888,4.6729,4.5819,4.5971,4.5749,4.431,0.0,0.0,0.0,0.0,0.0,0.0,0.0,0.0,0.0,0.0,0.0,0.0,0.0,0.0,0.0,0.0,0.0,0.0,0.0,0.0,0.0,0.0,0.0,0.0,0.0,0.0,0.0,0.0,0.0,0.0,0.0,0.0,0.0,0.0,0.0,0.0,0.0,0.0,0.0,0.0,0.0,0.0,0.0,0.0,0.0,0.0,0.0,0.0,0.0,0.0,0.0,0.0,0.0,5.1305,5.2085,5.861,6.1986,6.2083,6.354,6.3784,6.262,6.0141,5.7154,0.0,0.0,0.0,0.0,0.0,0.0,0.0,0.0,0.0,0.0,0.0,0.0,0.0,0.0,0.0,0.0,0.0,0.0,0.0,0.0,0.0,0.0,0.0,0.0,0.0,0.0,0.0,0.0,3.6143,3.6338,3.5483,0.0,0.0,0.0,0.0,0.0,0.0,0.0,0.0,0.0,0.0,4.626,4.7054,4.8632,0.0,0.0,4.7304,4.6726,4.5607,4.5592,4.4913,4.2446,4.1802,0.0,0.0,0.0,0.0,0.0,0.0,0.0,0.0,0.0,0.0,0.0,0.0,0.0,0.0,0.0,0.0,0.0,0.0,0.0,0.0,0.0,0.0,0.0,0.0,0.0,0.0,0.0,0.0,0.0,0.0,0.0,0.0,0.0,0.0,0.0,0.0,0.0,0.0,0.0,0.0,0.0,0.0,0.0,0.0,0.0,0.0,0.0,0.0,0.0,0.0,0.0,0.0,0.0,5.0533,5.7337,6.0961,6.1098,6.3052,6.3589,6.2523,5.9301,5.5628,0.0,0.0,0.0,0.0,0.0,0.0,0.0,0.0,0.0,0.0,0.0,0.0,0.0,0.0,0.0,0.0,0.0,0.0,0.0,0.0,0.0,0.0,0.0,0.0,0.0,0.0,0.0,0.0,0.0,0.0,0.0,0.0,0.0,0.0,0.0,0.0,0.0,0.0,0.0,0.0,0.0,4.5301,4.6398,4.7553,4.8542,0.0,4.757,4.6309,4.5878,4.5112,4.3692,4.1191,0.0,0.0,0.0,0.0,0.0,0.0,0.0,0.0,0.0,0.0,0.0,0.0,0.0,0.0,0.0,0.0,0.0,0.0,0.0,0.0,0.0,0.0,0.0,0.0,0.0,0.0,0.0,0.0,0.0,0.0,0.0,0.0,0.0,0.0,0.0,0.0,0.0,0.0,0.0,0.0,0.0,0.0,0.0,0.0,0.0,0.0,0.0,0.0,0.0,0.0,0.0,0.0,0.0,0.0,5.1499,5.7039,6.0277,6.101,6.1546,6.1693,6.1351,5.68,0.0,0.0,0.0,0.0,0.0,0.0,0.0,0.0,0.0,0.0,0.0,0.0,0.0,0.0,0.0,0.0,0.0,0.0,0.0,0.0,0.0,0.0,0.0,0.0,0.0,0.0,0.0,2.7589,0.0,0.0,0.0,0.0,0.0,0.0,0.0,0.0,0.0,0.0,0.0,0.0,0.0,0.0,4.5032,4.5277,4.766,4.8656,0.0,0.0,4.3817,4.1917,4.1424,4.0206,0.0,0.0,0.0,0.0,0.0,0.0,0.0,0.0,0.0,0.0,0.0,0.0,0.0,0.0,0.0,0.0,0.0,0.0,0.0,0.0,0.0,0.0,0.0,0.0,0.0,0.0,0.0,0.0,0.0,0.0,0.0,0.0,0.0,0.0,0.0,0.0,0.0,0.0,0.0,0.0,0.0,0.0,0.0,0.0,0.0,0.0,0.0,0.0,0.0,0.0,0.0,0.0,0.0,0.0,4.7706,5.1235,5.5303,5.8374,6.0277,6.0766,6.0814,6.0336,5.5628,5.1623,0.0,0.0,0.0,0.0,0.0,0.0,0.0,0.0,0.0,0.0,0.0,0.0,0.0,0.0,0.0,0.0,0.0,0.0,0.0,0.0,0.0,0.0,0.0,0.0,0.0,0.0,0.0,0.0,0.0,0.0,0.0,0.0,0.0,0.0,0.0,0.0,0.0,0.0,0.0,0.0,0.0,0.0,4.4704,4.6459,0.0,0.0,0.0,4.2565,4.068,0.0,0.0,0.0,0.0,0.0,0.0,0.0,0.0,0.0,0.0,0.0,0.0,0.0,0.0,0.0,0.0,0.0,0.0,0.0,0.0,0.0,0.0,0.0,0.0,0.0,0.0,0.0,0.0,0.0,0.0,0.0,0.0,0.0,0.0,0.0,0.0,0.0,0.0,0.0,0.0,0.0,0.0,0.0,0.0,0.0,0.0,0.0,0.0,0.0,0.0,0.0,0.0,0.0,0.0,0.0,0.0,0.0,5.0003,5.2969,5.6031,5.9116,6.018,6.0229,5.9301,5.5153,5.0939,0.0,0.0,0.0,0.0,0.0,0.0,0.0,0.0,0.0,0.0,0.0,0.0,0.0,0.0,0.0,0.0,0.0,0.0,0.0,0.0,0.0,0.0,0.0,0.0,0.0,0.0,0.0,0.0,0.0,0.0,0.0,0.0,0.0,0.0,0.0,0.0,0.0,0.0,0.0,0.0,0.0,4.1025,4.4113,4.4523,4.4268,0.0,0.0,4.1699,4.0408,4.0095,0.0,0.0,0.0,0.0,0.0,0.0,0.0,0.0,0.0,0.0,0.0,0.0,0.0,0.0,0.0,0.0,0.0,0.0,0.0,0.0,0.0,0.0,0.0,0.0,0.0,0.0,0.0,0.0,0.0,0.0,0.0,0.0,0.0,0.0,0.0,0.0,0.0,0.0,0.0,0.0,0.0,0.0,0.0,0.0,0.0,0.0,0.0,0.0,0.0,0.0,0.0,0.0,0.0,0.0,0.0,0.0,4.876,5.1817,5.4993,5.8081,5.8423,5.8423,5.8179,5.4065,5.0191,0.0,0.0,0.0,0.0,0.0,0.0,0.0,0.0,0.0,0.0,0.0,0.0,0.0,0.0,0.0,0.0,0.0,0.0,0.0,0.0,0.0,0.0,0.0,0.0,0.0,0.0,0.0,0.0,0.0,0.0,0.0,0.0,0.0,0.0,0.0,0.0,0.0,0.0,0.0,0.0,0.0,3.8777,4.1975,4.2386,0.0,0.0,0.0,0.0,3.6926,3.5763,0.0,0.0,0.0,0.0,0.0,0.0,0.0,0.0,0.0,0.0,0.0,0.0,0.0,0.0,0.0,0.0,0.0,0.0,0.0,0.0,0.0,0.0,0.0,0.0,0.0,0.0,0.0,0.0,0.0,0.0,0.0,0.0,0.0,0.0,0.0,0.0,0.0,0.0,0.0,0.0,0.0,0.0,0.0,0.0,0.0,0.0,0.0,0.0,0.0,0.0,0.0,0.0,0.0,0.0,0.0,0.0,4.674,4.8919,5.2273,5.6873,5.7105,5.7068,5.7007,5.3479,4.9506,0.0,0.0,0.0,0.0,0.0,0.0,0.0,0.0,0.0,0.0,0.0,0.0,0.0,0.0,0.0,0.0,0.0,0.0,0.0,0.0,0.0,0.0,0.0,0.0,0.0,0.0,0.0,0.0,0.0,0.0,0.0,0.0,0.0,0.0,0.0,0.0,0.0,0.0,0.0,0.0,3.5776,3.6387,3.907,0.0,0.0,0.0,0.0,0.0,0.0,3.5736,3.4369,0.0,0.0,0.0,0.0,0.0,0.0,0.0,0.0,0.0,0.0,0.0,0.0,0.0,0.0,0.0,0.0,0.0,0.0,0.0,0.0,0.0,0.0,0.0,0.0,0.0,0.0,0.0,0.0,0.0,0.0,0.0,0.0,0.0,0.0,0.0,0.0,0.0,0.0,0.0,0.0,0.0,0.0,0.0,0.0,0.0,0.0,0.0,0.0,0.0,0.0,0.0,0.0,0.0,0.0,0.0,4.458,4.6005,4.9491,5.5214,5.5751,5.5946,5.5812,5.2698,4.84,4.3048,0.0,0.0,0.0,0.0,0.0,0.0,0.0,0.0,0.0,0.0,0.0,0.0,0.0,0.0,0.0,0.0,0.0,0.0,0.0,0.0,0.0,0.0,0.0,0.0,0.0,0.0,0.0,0.0,0.0,0.0,0.0,0.0,0.0,0.0,0.0,0.0,0.0,0.0,0.0,3.397,3.4312,0.0,0.0,0.0,0.0,0.0,0.0,0.0,0.0,3.5543,0.0,0.0,0.0,0.0,0.0,0.0,0.0,0.0,0.0,0.0,0.0,0.0,0.0,0.0,0.0,0.0,0.0,0.0,0.0,0.0,0.0,0.0,0.0,0.0,0.0,0.0,0.0,0.0,0.0,0.0,0.0,0.0,0.0,0.0,0.0,0.0,0.0,0.0,0.0,0.0,0.0,0.0,0.0,0.0,0.0,0.0,0.0,0.0,0.0,0.0,0.0,0.0,0.0,0.0,0.0,0.0,4.5096,4.8498,5.2097,5.3932,5.4824,5.4811,5.0906,4.6221,4.0954,0.0,0.0,0.0,0.0,0.0,0.0,0.0,0.0,0.0,0.0,0.0,0.0,0.0,0.0,0.0,0.0,0.0,0.0,0.0,0.0,0.0,0.0,0.0,0.0,0.0,0.0,0.0,0.0,0.0,0.0,0.0,0.0,0.0,0.0,0.0,0.0,0.0,0.0,3.109,3.1899,0.0,0.0,0.0,0.0,0.0,0.0,0.0,0.0,3.3142,0.0,0.0,0.0,0.0,0.0,0.0,0.0,0.0,0.0,0.0,0.0,0.0,0.0,0.0,0.0,0.0,0.0,0.0,0.0,0.0,0.0,0.0,0.0,0.0,0.0,0.0,0.0,0.0,0.0,0.0,0.0,0.0,0.0,0.0,0.0,0.0,0.0,0.0,0.0,0.0,0.0,0.0,0.0,0.0,0.0,0.0,0.0,0.0,0.0,0.0,0.0,0.0,0.0,0.0,0.0,0.0,0.0,0.0,4.6758,5.05,5.2663,5.3493,5.2795,4.7636,4.3369,0.0,0.0,0.0,0.0,0.0,0.0,0.0,0.0,0.0,0.0,0.0,0.0,0.0,0.0,0.0,0.0,0.0,0.0,0.0,0.0,0.0,0.0,0.0,0.0,0.0,0.0,0.0,0.0,0.0,0.0,0.0,0.0,0.0,0.0,0.0,0.0,0.0,0.0,0.0,0.0,0.0,0.0,0.0,0.0,0.0,0.0,0.0,0.0,0.0,0.0,0.0,0.0,0.0,0.0,0.0,0.0,0.0,0.0,0.0,0.0,0.0,0.0,0.0,0.0,0.0,0.0,0.0,0.0,0.0,0.0,0.0,0.0,0.0,0.0,0.0,0.0,0.0,0.0,0.0,0.0,0.0,0.0,0.0,0.0,0.0,0.0,0.0,0.0,0.0,0.0,0.0,0.0,0.0,0.0,0.0,0.0,0.0,0.0,0.0,0.0,0.0,0.0,0.0,0.0,0.0,0.0,0.0,0.0,4.5362,4.8661,5.0939,5.177,5.1119,4.5079,4.0976,0.0,0.0,0.0,0.0,0.0,0.0,0.0,0.0,0.0,0.0,0.0,0.0,0.0,0.0,0.0,0.0,0.0,0.0,0.0,0.0,0.0,0.0,0.0,0.0,0.0,0.0,0.0,0.0,0.0,0.0,0.0,0.0,0.0,0.0,0.0,0.0,0.0,0.0,0.0,0.0,0.0,0.0,0.0,0.0,0.0,0.0,0.0,0.0,3.4117,0.0,0.0,0.0,0.0,0.0,0.0,0.0,0.0,0.0,0.0,0.0,0.0,0.0,0.0,0.0,0.0,0.0,0.0,0.0,0.0,0.0,0.0,0.0,0.0,0.0,0.0,0.0,0.0,0.0,0.0,0.0,0.0,0.0,0.0,0.0,0.0,0.0,0.0,0.0,0.0,0.0,0.0,0.0,0.0,0.0,0.0,0.0,0.0,0.0,0.0,0.0,0.0,0.0,0.0,0.0,0.0,0.0,0.0,0.0,4.5193,4.544,4.7605,4.9117,4.9735,4.4659,3.9951,0.0,0.0,0.0,0.0,0.0,0.0,0.0,0.0,0.0,0.0,0.0,0.0,0.0,0.0,0.0,0.0,0.0,0.0,0.0,0.0,0.0,0.0,0.0,0.0,0.0,0.0,0.0,0.0,0.0,0.0,0.0,0.0,0.0,0.0,0.0,0.0,0.0,0.0,0.0,0.0,0.0,0.0,0.0,0.0,0.0,0.0,0.0,0.0,0.0,0.0,0.0,0.0,0.0,0.0,0.0,0.0,0.0,0.0,0.0,0.0,0.0,0.0,0.0,0.0,0.0,0.0,0.0,0.0,0.0,0.0,0.0,0.0,0.0,0.0,0.0,0.0,0.0,0.0,0.0,0.0,0.0,0.0,0.0,0.0,0.0,0.0,0.0,0.0,0.0,0.0,0.0,0.0,0.0,0.0,0.0,0.0,0.0,0.0,0.0,0.0,0.0,0.0,0.0,0.0,0.0,0.0,0.0,0.0,4.191,4.3125,4.5215,4.5313,4.3264,3.9876,3.7191,0.0,0.0,0.0,0.0,0.0,0.0,0.0,0.0,0.0,0.0,0.0,0.0,0.0,0.0,0.0,0.0,0.0,0.0,0.0,0.0,0.0,0.0,0.0,0.0,0.0,0.0,0.0,0.0,0.0,0.0,0.0,0.0,0.0,0.0,0.0,0.0,0.0,0.0,0.0,0.0,0.0,0.0,0.0,0.0,0.0,0.0,0.0,0.0,0.0,0.0,0.0,0.0,0.0,0.0,0.0,0.0,0.0,0.0,0.0,0.0,0.0,0.0,0.0,0.0,0.0,0.0,0.0,0.0,0.0,0.0,0.0,0.0,0.0,0.0,0.0,0.0,0.0,0.0,0.0,0.0,0.0,0.0,0.0,0.0,0.0,0.0,0.0,0.0,0.0,0.0,0.0,0.0,0.0,0.0,0.0,0.0,0.0,0.0,0.0,0.0,0.0,0.0,0.0,0.0,0.0,0.0,0.0,0.0,0.0,4.0884,4.1888,4.0923,3.7801,3.6192,3.4995,0.0,0.0,0.0,0.0,0.0,0.0,0.0,0.0,0.0,0.0,0.0,0.0,0.0,0.0,0.0,0.0,0.0,0.0,0.0,0.0,0.0,0.0,0.0,0.0,0.0,0.0,0.0,0.0,0.0,0.0,0.0,0.0,0.0,0.0,0.0,0.0,0.0,0.0,0.0,0.0,0.0,0.0,0.0,0.0,0.0,0.0,0.0,0.0,0.0,0.0,0.0,0.0,0.0,0.0,0.0,0.0,0.0,0.0,0.0,0.0,0.0,0.0,0.0,0.0,0.0,0.0,0.0,0.0,0.0,0.0,0.0,0.0,0.0,0.0,0.0,0.0,0.0,0.0,0.0,0.0,0.0,0.0,0.0,0.0,0.0,0.0,0.0,0.0,0.0,0.0,0.0,0.0,0.0,0.0,0.0,0.0,0.0,0.0,0.0,0.0,0.0,0.0,0.0,0.0,0.0,0.0,0.0,0.0,0.0,3.8688,3.683,3.5802,3.5581,3.5434,3.3899,0.0,0.0,0.0,0.0,0.0,0.0,0.0,0.0,0.0,0.0,0.0,0.0,0.0,0.0,0.0,0.0,0.0,0.0,0.0,0.0,0.0,0.0,0.0,0.0,0.0,0.0,0.0,0.0,0.0,0.0,0.0,0.0,0.0,0.0,0.0,0.0,0.0,0.0,0.0,0.0,0.0,0.0,0.0,0.0,0.0,0.0,0.0,0.0,0.0,0.0,0.0,0.0,0.0,0.0,0.0,0.0,0.0,0.0,0.0,0.0,0.0,0.0,0.0,0.0,0.0,0.0,0.0,0.0,0.0,0.0,0.0,0.0,0.0,0.0,0.0,0.0,0.0,0.0,0.0,0.0,0.0,0.0,0.0,0.0,0.0,0.0,0.0,0.0,0.0,0.0,0.0,0.0,0.0,0.0,0.0,0.0,0.0,0.0,0.0,0.0,0.0,0.0,0.0,0.0,0.0,0.0,0.0,0.0,0.0,3.4575,3.3718,3.3314,3.3336,3.3292,3.2408,3.0602,0.0,0.0,0.0,0.0,0.0,0.0,0.0,0.0,0.0,0.0,0.0,0.0,0.0,0.0,0.0,0.0,0.0,0.0,0.0,0.0,0.0,0.0,0.0,0.0,0.0,0.0,0.0,0.0,0.0,0.0,0.0,0.0,0.0,0.0,0.0,0.0,0.0,0.0,0.0,0.0,0.0,0.0,0.0,0.0,0.0,0.0,0.0,0.0,0.0,0.0,0.0,0.0,0.0,0.0,0.0,0.0,0.0,0.0,0.0,0.0,0.0,0.0,0.0,0.0,0.0,0.0,0.0,0.0,0.0,0.0,0.0,0.0,0.0,0.0,0.0,0.0,0.0,0.0,0.0,0.0,0.0,0.0,0.0,0.0,0.0,0.0,0.0,0.0,0.0,0.0,0.0,0.0,0.0,0.0,0.0,0.0,0.0,0.0,0.0,0.0,0.0,0.0,0.0,0.0,0.0,0.0,0.0,0.0,3.1535,3.1563,3.1607,3.1579,3.1607,3.107,0.0,0.0,0.0,0.0,0.0,0.0,0.0,0.0,0.0,0.0,0.0,0.0,0.0,0.0,0.0,0.0,0.0,0.0,0.0,0.0,0.0,0.0,0.0,0.0,0.0,0.0,0.0,0.0,0.0,0.0,0.0,0.0,0.0,0.0,0.0,0.0,0.0,0.0,0.0,0.0,0.0,0.0,0.0,0.0,0.0,0.0,0.0,0.0,0.0,0.0,0.0,0.0,0.0,0.0,0.0,0.0,0.0,0.0,0.0,0.0,0.0,0.0,0.0,0.0,0.0,0.0,0.0,0.0,0.0,0.0,0.0,0.0,0.0,0.0,0.0,0.0,0.0,0.0,0.0,0.0,0.0,0.0,0.0,0.0,0.0,0.0,0.0,0.0,0.0,0.0,0.0,0.0,0.0,0.0,0.0,0.0,0.0,0.0,0.0,0.0,0.0,0.0,0.0,0.0,0.0,0.0,0.0,0.0,3.0832,3.0227,3.0422,3.0643,3.0593,3.0564,3.0075,0.0,0.0,0.0,0.0,0.0,0.0,0.0,0.0,0.0,0.0,0.0,0.0,0.0,0.0,0.0,0.0,0.0,0.0,0.0,0.0,0.0,0.0,0.0,0.0,0.0,0.0,0.0,0.0,0.0,0.0,0.0,0.0,0.0,0.0,0.0,0.0,0.0,0.0,0.0,0.0,0.0,0.0,0.0,0.0,0.0,0.0,0.0,0.0,0.0,0.0,0.0,0.0,0.0,0.0,0.0,0.0,0.0,0.0,0.0,0.0,0.0,0.0,0.0,0.0,0.0,0.0,0.0,0.0,0.0,0.0,0.0,0.0,0.0,0.0,0.0,0.0,0.0,0.0,0.0,0.0,0.0,0.0,0.0,0.0,0.0,0.0,0.0,0.0,0.0,0.0,0.0,0.0,0.0,0.0,0.0,0.0,0.0,0.0,0.0,0.0,0.0,0.0,0.0,0.0,0.0,0.0,0.0,0.0,0.0,3.0724,0.0,3.105,0.0,3.0517,2.9786,0.0,0.0,0.0,0.0,0.0,0.0,0.0,0.0,0.0,0.0,0.0,0.0,0.0,0.0,0.0,0.0,0.0,0.0,0.0,0.0,0.0,0.0,0.0,0.0,0.0,0.0,0.0,0.0,0.0,0.0,0.0,0.0,0.0,0.0,0.0,0.0,0.0,0.0,0.0,0.0,0.0,0.0,0.0,0.0,0.0,0.0,0.0,0.0,0.0,0.0,0.0,0.0,0.0,0.0,0.0,0.0,0.0,0.0,0.0,0.0,0.0,0.0,0.0,0.0,0.0,0.0,0.0,0.0,0.0,0.0,0.0,0.0,0.0,0.0,0.0,0.0,0.0,0.0,0.0,0.0,0.0,0.0,0.0,0.0,0.0,0.0,0.0,0.0,0.0,0.0,0.0,0.0,0.0,0.0,0.0,0.0,0.0,0.0,0.0,0.0,0.0,0.0,0.0,0.0,0.0,0.0,0.0,0.0,0.0,2.9704,2.9862,3.0026,0.0,3.0124,2.9378,0.0,0.0,0.0,0.0,0.0,0.0,0.0,0.0,0.0,0.0,0.0,0.0,0.0,0.0,0.0,0.0,0.0,0.0,0.0,0.0,0.0,0.0,0.0,0.0,0.0,0.0,0.0,0.0,0.0,0.0,0.0,0.0,0.0,0.0,0.0,0.0,0.0,0.0,0.0,0.0,0.0,0.0,0.0,0.0,0.0,0.0,0.0,0.0,0.0,0.0,0.0,0.0,0.0,0.0,0.0,0.0,0.0,0.0,0.0,0.0,0.0,0.0,0.0,0.0,0.0,0.0,0.0,0.0,0.0,0.0,0.0,0.0,0.0,0.0,0.0,0.0,0.0,0.0,0.0,0.0,0.0,0.0,0.0,0.0,0.0,0.0,0.0,0.0,0.0,0.0,0.0,0.0,0.0,0.0,0.0,0.0,0.0,0.0,0.0,0.0,0.0,0.0,0.0,0.0,0.0,0.0,0.0,0.0,0.0,0.0,2.7641,2.7917,2.8757,2.9294,2.9013,0.0,0.0,0.0,0.0,0.0,0.0,0.0,0.0,0.0,0.0,0.0,0.0,0.0,0.0,0.0,0.0,0.0,0.0,0.0,0.0,0.0,0.0,0.0,0.0,0.0,0.0,0.0,0.0,0.0,0.0,0.0,0.0,0.0,0.0,0.0,0.0,0.0,0.0,0.0,0.0,0.0,0.0,0.0,0.0,0.0,0.0,0.0,0.0,0.0,0.0,0.0,0.0,0.0,0.0,0.0,0.0,0.0,0.0,0.0,0.0,0.0,0.0,0.0,0.0,0.0,0.0,0.0,0.0,0.0,0.0,0.0,0.0,0.0,0.0,0.0,0.0,0.0,0.0,0.0,0.0,0.0,0.0,0.0,0.0,0.0,0.0,0.0,0.0,0.0,0.0,0.0,0.0,0.0,0.0,0.0,0.0,0.0,0.0,0.0,0.0,0.0,0.0,0.0,0.0,0.0,0.0,0.0,0.0,0.0,0.0,2.932,0.0,3.0058,2.9152,2.842,2.7991,0.0,0.0,0.0,0.0,0.0,0.0,0.0,0.0,0.0,0.0,0.0,0.0,0.0,0.0,0.0,0.0,0.0,0.0,0.0,0.0,0.0,0.0,0.0,0.0,0.0,0.0,0.0,0.0,0.0,0.0,0.0,0.0,0.0,0.0,0.0,0.0,0.0,0.0,0.0,0.0,0.0,0.0,0.0,0.0,0.0,0.0,0.0,0.0,0.0,0.0,0.0,0.0,0.0,0.0,0.0,0.0,0.0,0.0,0.0,0.0,0.0,0.0,0.0,0.0,0.0,0.0,0.0,0.0,0.0,0.0,0.0,0.0,0.0,0.0,0.0,0.0,0.0,0.0,0.0,0.0,0.0,0.0,0.0,0.0,0.0,0.0,0.0,0.0,0.0,0.0,0.0,0.0,0.0,0.0,0.0,0.0,0.0,0.0,0.0,0.0,0.0,0.0,0.0,0.0,0.0,0.0,0.0,0.0,0.0,0.0,0.0,3.0724,2.9347,2.8524,0.0,0.0,0.0,0.0,0.0,0.0,0.0,0.0,0.0,0.0,0.0,0.0,0.0,0.0,0.0,0.0,0.0,0.0,0.0,0.0,0.0,0.0,0.0,0.0,0.0,0.0,0.0,0.0,0.0,0.0,0.0,0.0,0.0,0.0,0.0,0.0,0.0,0.0,0.0,0.0,0.0,0.0,0.0,0.0,0.0,0.0,0.0,0.0,0.0,0.0,0.0,0.0,0.0,0.0,0.0,0.0,0.0,0.0,0.0,0.0,0.0,0.0,0.0,0.0,0.0,0.0,0.0,0.0,0.0,0.0,0.0,0.0,0.0,0.0,0.0,0.0,0.0,0.0,0.0,0.0,0.0,0.0,0.0,0.0,0.0,0.0,0.0,0.0,0.0,0.0,0.0,0.0,0.0,0.0,0.0,0.0,0.0,0.0,0.0,0.0,0.0,0.0,0.0,0.0,0.0,0.0,0.0,0.0,0.0,0.0,0.0,2.7978,3.0274,2.9543,0.0,2.8002,0.0,0.0,0.0,0.0,0.0,0.0,0.0,0.0,0.0,0.0,0.0,0.0,0.0,0.0,0.0,0.0,0.0,0.0,0.0,0.0,0.0,0.0,0.0,0.0,0.0,0.0,0.0,0.0,0.0,0.0,0.0,0.0,0.0,0.0,0.0,0.0,0.0,0.0,0.0,0.0,0.0,0.0,0.0,0.0,0.0,0.0,0.0,0.0,0.0,0.0,0.0,0.0,0.0,0.0,0.0,0.0,0.0,0.0,0.0,0.0,0.0,0.0,0.0,0.0,0.0,0.0,0.0,0.0,0.0,0.0,0.0,0.0,0.0,0.0,0.0,0.0,0.0,0.0,0.0,0.0,0.0,0.0,0.0,0.0,0.0,0.0,0.0,0.0,0.0,0.0,0.0,0.0,0.0,0.0,0.0,0.0,0.0,0.0,0.0,0.0,0.0,0.0,0.0,0.0,0.0,0.0,0.0,0.0,0.0,0.0,0.0,0.0,2.7484,2.7,2.627,0.0,0.0,0.0,0.0,0.0,0.0,0.0,0.0,0.0,0.0,0.0,0.0,0.0,0.0,0.0,0.0,0.0,0.0,0.0,0.0,0.0,0.0,0.0,0.0,0.0,0.0,0.0,0.0,0.0,0.0,0.0,0.0,0.0,0.0,0.0,0.0,0.0,0.0,0.0,0.0,0.0,0.0,0.0,0.0,0.0,0.0,0.0,0.0,0.0,0.0,0.0,0.0,0.0,0.0,0.0,0.0,0.0,0.0,0.0,0.0,0.0,0.0,0.0,0.0,0.0,0.0,0.0,0.0,0.0,0.0,0.0,0.0,0.0,0.0,0.0,0.0,0.0,0.0,0.0,0.0,0.0,0.0,0.0,0.0,0.0,0.0,0.0,0.0,0.0,0.0,0.0,0.0,0.0,0.0,0.0,0.0,0.0,0.0,0.0,0.0,0.0,0.0,0.0,0.0,0.0,0.0,0.0,0.0,0.0,0.0,2.6245,2.679,2.679,2.6605,2.616,0.0,0.0,0.0,0.0,0.0,0.0,0.0,0.0,0.0,0.0,0.0,0.0,0.0,0.0,0.0,0.0,0.0,0.0,0.0,0.0,0.0,0.0,0.0,0.0,0.0,0.0,0.0,0.0,0.0,0.0,0.0,0.0,0.0,0.0,0.0,0.0,0.0,0.0,0.0,0.0,0.0,0.0,0.0,0.0,0.0,0.0,0.0,0.0,0.0,0.0,0.0,0.0,0.0,0.0,0.0,0.0,0.0,0.0,0.0,0.0,0.0,0.0,0.0,0.0,0.0,0.0,0.0,0.0,0.0,0.0,0.0,0.0,0.0,0.0,0.0,0.0,0.0,0.0,0.0,0.0,0.0,0.0,0.0,0.0,0.0,0.0,0.0,0.0,0.0,0.0,0.0,0.0,0.0,0.0,0.0,0.0,0.0,0.0,0.0,0.0,0.0,0.0,0.0,0.0,0.0,0.0,0.0,0.0,0.0,0.0,0.0,0.0,0.0,0.0,2.6267,0.0,0.0,0.0,0.0,0.0,0.0,0.0,0.0,0.0,0.0,0.0,0.0,0.0,0.0,0.0,0.0,0.0,0.0,0.0,0.0,0.0,0.0,0.0,0.0,0.0,0.0,0.0,0.0,0.0,0.0,0.0,0.0,0.0,0.0,0.0,0.0,0.0,0.0,0.0,0.0,0.0,0.0,0.0,0.0,0.0,0.0,0.0,0.0,0.0,0.0,0.0,0.0,0.0,0.0,0.0,0.0,0.0,0.0,0.0,0.0,0.0,0.0,0.0,0.0,0.0,0.0,0.0,0.0,0.0,0.0,0.0,0.0,0.0,0.0,0.0,0.0,0.0,0.0,0.0,0.0,0.0,0.0,0.0,0.0,0.0,0.0,0.0,0.0,0.0,0.0,0.0,0.0,0.0,0.0,0.0,0.0,0.0,0.0,0.0,0.0,0.0,0.0,0.0,0.0,0.0,0.0,0.0,0.0,0.0,0.0,0.0,0.0,0.0,0.0,0.0,0.0,0.0,0.0,0.0,0.0,0.0,0.0,0.0,0.0,0.0,0.0,0.0,0.0,0.0,0.0,0.0,0.0,0.0,0.0,0.0,0.0,0.0,0.0,0.0,0.0,0.0,0.0,0.0,0.0,0.0,0.0,0.0,0.0,0.0,0.0,0.0,0.0,0.0,0.0,0.0,0.0,0.0,0.0,0.0,0.0,0.0,0.0,0.0,0.0,0.0,0.0,0.0,0.0,0.0,0.0,0.0,0.0,0.0,0.0,0.0,0.0,0.0,0.0,0.0,0.0,0.0,0.0,0.0,0.0,0.0,0.0,0.0,0.0,0.0,0.0,0.0,0.0,0.0,0.0,0.0,0.0,0.0,0.0,0.0,0.0,0.0,0.0,0.0,0.0,0.0,0.0,0.0,0.0,0.0,0.0,0.0,0.0,0.0,0.0,0.0,0.0,0.0,0.0,0.0,0.0,0.0,0.0,0.0,0.0,0.0,0.0,0.0,0.0,0.0,0.0,0.0,0.0,0.0,0.0,0.0,0.0,0.0,0.0,0.0,0.0,0.0,0.0,0.0,0.0,0.0,0.0,0.0,0.0,0.0,0.0,0.0,0.0,0.0,0.0,0.0,0.0,0.0,0.0,0.0,0.0,0.0,0.0,0.0,0.0,0.0,0.0,0.0,0.0,0.0,0.0,0.0,0.0,0.0,0.0,0.0,0.0,0.0,0.0,0.0,0.0,0.0,0.0,0.0,0.0,0.0,0.0,0.0,0.0,0.0,0.0,0.0,0.0,0.0,0.0,0.0,0.0,0.0,0.0,0.0,0.0,0.0,0.0,0.0,0.0,0.0,0.0,0.0,0.0,0.0,0.0,0.0,0.0,0.0,0.0,0.0,0.0,0.0,0.0,0.0,0.0,0.0,0.0,0.0,0.0,0.0,0.0,0.0,0.0,0.0,0.0,0.0,0.0,0.0,0.0,0.0,0.0,0.0,0.0,0.0,0.0,0.0,0.0,0.0,0.0,0.0,0.0,0.0,0.0,0.0,0.0,0.0,0.0,0.0,0.0,0.0,0.0,0.0,0.0,0.0,0.0,0.0,0.0,0.0,0.0,0.0,0.0,0.0,0.0,0.0,0.0,0.0,0.0,0.0,0.0,0.0,0.0,0.0,0.0,0.0,0.0,0.0,0.0,0.0,0.0,0.0,0.0,0.0,0.0,0.0,0.0,0.0,0.0,0.0,0.0,0.0,0.0,0.0,0.0,0.0,0.0,0.0,0.0,0.0,0.0,0.0,0.0,0.0,0.0,0.0,0.0,0.0,0.0,0.0,0.0,0.0,0.0,0.0,0.0,0.0,0.0,0.0,0.0,0.0,0.0,0.0,0.0,0.0,0.0,0.0,0.0,0.0,0.0,0.0,0.0,0.0,0.0,0.0,0.0,0.0,0.0,0.0,0.0,0.0,0.0,0.0,0.0,0.0,0.0,0.0,0.0,0.0,0.0,0.0,0.0,0.0,0.0,0.0,0.0,0.0,0.0,0.0,0.0,0.0,0.0,0.0,0.0,0.0,0.0,0.0,0.0,0.0,0.0,0.0,0.0,0.0,0.0,0.0,0.0,0.0,0.0,0.0,0.0,0.0,0.0,0.0,0.0,0.0,0.0,0.0,0.0,0.0,0.0,0.0,0.0,0.0,0.0,0.0,0.0,0.0,0.0,0.0,0.0,0.0,0.0,0.0,0.0,0.0,0.0,0.0,0.0,0.0,0.0,0.0,0.0,0.0,0.0,0.0,0.0,0.0,0.0,0.0,0.0,0.0,0.0,0.0,0.0,0.0,0.0,0.0,0.0,0.0,0.0,0.0,0.0,0.0,0.0,0.0,0.0,0.0,0.0,0.0,0.0,0.0,0.0,0.0,0.0,0.0,0.0,0.0,0.0,0.0,0.0,0.0,0.0,0.0,0.0,0.0,0.0,0.0,0.0,0.0,0.0,0.0,0.0,0.0,0.0,0.0,0.0,0.0,0.0,0.0,0.0,0.0,0.0,0.0,0.0,0.0,0.0,0.0,0.0,0.0,0.0,0.0,0.0,0.0,0.0,0.0,0.0,0.0,0.0,0.0,0.0,0.0,0.0,0.0,0.0,0.0,0.0,0.0,0.0,0.0,0.0,0.0,0.0,0.0,0.0,0.0,0.0,0.0,0.0,0.0,0.0,0.0,0.0,0.0,0.0,0.0,0.0,0.0,0.0,0.0,0.0,0.0,0.0,0.0,0.0,0.0,0.0,0.0,0.0,0.0,0.0,0.0,0.0,0.0,0.0,0.0,0.0,0.0,0.0,0.0,0.0,0.0,0.0,0.0,0.0,0.0,0.0,0.0,0.0,0.0,0.0,0.0,0.0,0.0,0.0,0.0,0.0,0.0,0.0,0.0,0.0,0.0,0.0,0.0,0.0,0.0,0.0,0.0,0.0,0.0,0.0,0.0,0.0,0.0,0.0,0.0,0.0,0.0,0.0,0.0,0.0,0.0,0.0,0.0,0.0,0.0,0.0,0.0,0.0,0.0,0.0,0.0,0.0,0.0,0.0,0.0,0.0,0.0,0.0,0.0,0.0,0.0,0.0,0.0,0.0,0.0,0.0,0.0,0.0,0.0,0.0,0.0,0.0,0.0,0.0,0.0,0.0,0.0,0.0,0.0,0.0,0.0,0.0,0.0,0.0,0.0,0.0,0.0,0.0,0.0,0.0,0.0,0.0,0.0,0.0,0.0,0.0,0.0,0.0,0.0,0.0,0.0,0.0,0.0,0.0,0.0,0.0,0.0,0.0,0.0,0.0,0.0,0.0,0.0,0.0,0.0,0.0,0.0,0.0,0.0,0.0,0.0,0.0,0.0,0.0,0.0,0.0,0.0,0.0,0.0,0.0,0.0,0.0,0.0,0.0,0.0,0.0,0.0,0.0,0.0,0.0,0.0,0.0,0.0,0.0,0.0,0.0,0.0,0.0,0.0,0.0,0.0,0.0,0.0,0.0,0.0,0.0,0.0,0.0,0.0,0.0,0.0,0.0,0.0,0.0,0.0,0.0,0.0,0.0,0.0,0.0,0.0,0.0,0.0,0.0,0.0,0.0,0.0,0.0,0.0,0.0,0.0,0.0,0.0,0.0,0.0,0.0,0.0,0.0,0.0,0.0,0.0,0.0,0.0,0.0,0.0,0.0,0.0,0.0,0.0,0.0,0.0,0.0,0.0,0.0,0.0,0.0,0.0,0.0,0.0,0.0,0.0,0.0,0.0,0.0,0.0,0.0,0.0,0.0,0.0,0.0,0.0,0.0,0.0,0.0,0.0,0.0,0.0,0.0,0.0,0.0,0.0,0.0,0.0,0.0,0.0,0.0,0.0,0.0,0.0,0.0,0.0,0.0,0.0,0.0,0.0,0.0,0.0,0.0,0.0,0.0,0.0,0.0,0.0,0.0,0.0,0.0,0.0,0.0,0.0,0.0,0.0,0.0,0.0,0.0,0.0,0.0,0.0,0.0,0.0,0.0,0.0,0.0,0.0,0.0,0.0,0.0,0.0,0.0,0.0,0.0,0.0,0.0,0.0,0.0,0.0,0.0,0.0,0.0,0.0,0.0,0.0,0.0,0.0,0.0,0.0,0.0,0.0,0.0,0.0,0.0,0.0,0.0,0.0,0.0,0.0,0.0,0.0,0.0,0.0,0.0,0.0,0.0,0.0,0.0,0.0,0.0,0.0,0.0,0.0,0.0,0.0,0.0,0.0,0.0,0.0,0.0,0.0,0.0,0.0,0.0,0.0,0.0,0.0,0.0,0.0,0.0,0.0,0.0,0.0,0.0,0.0,0.0,0.0,0.0,0.0,0.0]}],[{"header":{"parameterUnit":"kt","parameterCategory":2,"dx":1,"dy":1,"la1":29.587661999999998,"la2":31.0,"lo1":-88.76705300000003,"lo2":-86.6583820000003,"nx":115,"ny":88,"refTime":"2022-09-30T06:00:00:Z","depth":0,"parameterNumber":2,"parameterNumberName":"V-component_of_WINDS"},"data":[8.4148,8.4148,8.4148,8.4148,8.4148,8.4148,8.4148,8.4148,8.4148,8.4148,8.4264,8.4361,8.4594,8.4594,8.471,8.535,8.6494,8.6454,8.7308,8.8123,8.8239,8.8355,8.8646,8.9228,8.9577,9.0275,9.1205,9.1845,9.1687,9.2078,9.2369,9.2543,9.2485,9.3299,9.4215,9.4448,9.4855,9.5684,9.6194,9.644,9.7138,9.8069,9.9361,9.9536,9.9536,10.035,10.1326,10.249,10.3828,10.5224,10.6503,10.7085,10.7367,10.7367,10.7367,10.7367,10.7367,10.8311,10.9578,11.0143,11.0457,11.1915,11.3086,11.3176,11.2113,11.1564,11.1255,11.113,11.1017,11.0673,11.0852,11.2568,11.3699,11.6168,11.8517,11.9918,12.1105,12.1608,12.3105,12.4987,12.5787,12.6812,12.8624,12.8833,12.8666,12.9602,12.9832,12.9832,12.9832,12.9832,12.9832,12.9832,12.9832,12.9832,12.9832,12.9832,12.9832,12.9832,12.9832,12.9832,12.9832,12.9832,12.9832,12.9832,12.9832,12.9832,12.9832,12.9832,12.9832,12.9832,12.9832,12.9832,12.9832,12.9832,12.9832,8.4148,8.4148,8.4148,8.4148,8.4148,8.4148,8.4148,8.4148,8.4148,8.4148,8.4497,8.5466,8.5815,8.628,8.6959,8.7425,8.7774,8.7832,8.7948,8.8588,8.9303,8.9594,9.0158,9.0682,9.1031,9.1496,9.202,9.2136,9.2427,9.3125,9.3707,9.3924,9.4564,9.5379,9.5495,9.5728,9.6194,9.708,9.7546,9.7966,9.8606,9.9465,9.9478,9.9536,9.9652,10.0233,10.1036,10.2083,10.3188,10.4758,10.6503,10.7085,10.7367,10.7367,10.7367,10.7367,10.7308,10.8455,10.9814,11.0317,11.0736,11.1505,11.3398,11.3398,11.1915,11.1258,11.0749,11.067,11.0749,11.063,11.0518,11.121,11.1934,11.3263,11.5547,11.7596,11.8529,11.9331,12.2393,12.5743,12.5875,12.5762,12.6638,12.7264,12.8011,12.9355,12.9832,12.9832,12.9832,12.9832,12.9832,12.9832,12.9832,12.9832,12.9832,12.9832,12.9832,12.9832,12.9832,12.9832,12.9832,12.9832,12.9832,12.9832,12.9832,12.9832,12.9832,12.9832,12.9832,12.9832,12.9832,12.9832,12.9832,12.9832,12.9832,8.4148,8.4148,8.4148,8.4148,8.4148,8.4148,8.4148,8.4148,8.4148,8.4943,8.6378,8.6901,8.7192,8.7425,8.7774,8.8239,8.9071,8.917,8.946,9.0042,9.0915,9.0989,9.1222,9.1512,9.202,9.2252,9.2601,9.3517,9.4273,9.4797,9.4972,9.503,9.5379,9.6019,9.6745,9.6906,9.7429,9.8547,9.8664,9.8896,9.9303,9.9478,9.9536,9.9536,9.971,10.0338,10.1152,10.242,10.3537,10.5107,10.6503,10.7085,10.725,10.7308,10.7308,10.7367,10.7407,10.7739,10.8359,10.8696,10.8744,10.8828,11.0096,11.1198,11.0049,11.1733,11.129,11.019,11.033,10.9578,10.9507,10.9409,10.9996,11.1036,11.3095,11.578,11.7426,11.9233,12.2667,12.5663,12.6444,12.64,12.7478,12.8138,12.854,12.9832,12.9832,12.9832,12.9832,12.9832,12.9832,12.9832,12.9832,12.9832,12.9832,12.9832,12.9832,12.9832,12.9832,12.9832,12.9832,12.9832,12.9832,12.9832,12.9832,12.9832,12.9832,12.9832,12.9832,12.9832,12.9832,12.9832,12.9832,12.9832,12.9832,8.4148,8.4148,8.4148,8.4148,8.4148,8.4148,8.4323,8.4652,8.4904,8.6261,8.7832,8.8297,8.853,8.8646,8.9053,8.9693,9.035,9.0524,9.1047,9.1496,9.1729,9.1671,9.1903,9.2311,9.2485,9.2834,9.3691,9.4739,9.5379,9.5961,9.6252,9.6252,9.695,9.7371,9.8024,9.8082,9.8373,9.9187,9.9303,9.942,9.9536,9.9536,9.9536,9.9536,9.9652,10.0221,10.1268,10.242,10.3479,10.4875,10.6096,10.6736,10.6959,10.7192,10.7308,10.7367,10.7308,10.7934,10.8504,10.8972,10.8972,10.8696,10.9163,10.8696,10.902,11.1244,11.1794,11.0517,10.9543,10.8648,10.8089,10.7973,10.8235,10.9428,11.084,11.3902,11.6926,11.9987,12.3283,12.5192,12.6748,12.7882,12.919,12.9709,12.9832,12.9832,12.9832,12.9832,12.9832,12.9832,12.9832,12.9832,12.9832,12.9832,12.9832,12.9832,12.9832,12.9832,12.9832,12.9832,12.9832,12.9832,12.9832,12.9832,12.9832,12.9832,12.9832,12.9832,12.9832,12.9832,12.9832,12.9832,12.9832,12.9832,12.9832,8.4148,8.4148,8.4148,8.4206,8.4206,8.4323,8.4962,8.5989,8.7192,8.789,8.8355,8.9361,8.9885,9.0001,9.0682,9.128,9.1396,9.1496,9.1729,9.1962,9.2252,9.2427,9.2718,9.3125,9.359,9.4215,9.4913,9.5844,9.6194,9.6906,9.7501,9.7559,9.8315,9.8825,9.9013,9.9071,9.9129,9.9536,9.9536,9.9536,9.9536,9.9536,9.9536,9.9536,9.9652,10.0001,10.1094,10.1734,10.2199,10.3537,10.4642,10.5456,10.598,10.6445,10.7027,10.7201,10.7308,10.8031,10.8924,10.9258,10.9578,11.0503,11.2278,11.1013,10.9163,10.9637,10.959,10.8552,10.8504,10.7836,10.8031,10.8051,10.8953,11.0315,11.1889,11.438,11.7145,11.9879,12.3019,12.5664,12.6953,12.7575,12.878,12.9215,12.9149,12.9569,12.97,12.9832,12.9832,12.9832,12.9832,12.9832,12.9832,12.9832,12.9832,12.9832,12.9832,12.9832,12.9832,12.9832,12.9832,12.9832,12.9832,12.9832,12.9832,12.9832,12.9832,12.9832,12.9832,12.9832,12.9832,12.9832,12.9832,12.9832,12.9832,8.4148,8.4148,8.4148,8.4652,8.5408,8.6164,8.7268,8.8373,8.9012,8.971,9.0449,9.0873,9.1205,9.1264,9.1671,9.202,9.202,9.2136,9.2543,9.2834,9.3183,9.3517,9.4157,9.4855,9.503,9.5495,9.615,9.6906,9.721,9.8024,9.8722,9.878,9.9129,9.9478,9.9536,9.9536,9.9536,9.9536,9.9536,9.9536,9.9536,9.9536,9.9536,9.9536,9.9536,9.971,10.0279,10.121,10.1617,10.2315,10.3526,10.4409,10.5408,10.5805,10.6271,10.7143,10.7259,10.8031,10.8648,10.8828,10.8685,10.8828,10.921,10.959,10.86,10.8128,10.77,10.7367,10.7367,10.7407,10.7885,10.8562,10.9995,11.1505,11.3378,11.522,11.7606,11.9933,12.2657,12.5645,12.6782,12.7242,12.7769,12.8229,12.8558,12.8755,12.8952,12.9149,12.9306,12.9175,12.9109,12.9043,12.924,12.9503,12.9832,12.9832,12.9832,12.9766,12.9832,12.9832,12.9832,12.9832,12.9832,12.9832,12.9832,12.9832,12.9832,12.9832,12.9832,12.9832,12.9832,12.9832,12.9832,12.9832,12.9832,8.4768,8.4826,8.5117,8.5815,8.6843,8.8064,8.9344,9.0466,9.0582,9.0989,9.1962,9.1962,9.1845,9.1962,9.1962,9.2252,9.2427,9.2718,9.3358,9.3982,9.4506,9.503,9.5612,9.6077,9.6266,9.6731,9.7429,9.8199,9.8373,9.8838,9.942,9.9536,9.9478,9.9478,9.9536,9.9536,9.9536,9.9536,9.9536,9.9536,9.9536,9.9536,9.9536,9.9536,9.9536,9.9536,9.9768,10.0454,10.0687,10.1152,10.2199,10.3071,10.4361,10.5049,10.5573,10.6678,10.7143,10.7367,10.7367,10.7308,10.7456,10.7651,10.7651,10.7308,10.7367,10.7407,10.7407,10.7367,10.7367,10.7367,10.7651,10.8552,10.9804,11.1593,11.3562,11.6008,11.9082,12.0994,12.1925,12.4363,12.5007,12.5467,12.6256,12.6782,12.7177,12.7506,12.7834,12.8295,12.8426,12.8097,12.786,12.79,12.8032,12.8097,12.8558,12.9084,12.9306,12.97,12.9832,12.9832,12.9832,12.9832,12.9832,12.9832,12.9832,12.9832,12.9832,12.9832,12.9832,12.9832,12.9832,12.9832,12.9832,12.9832,12.9832,8.6047,8.6261,8.7425,8.789,8.8181,8.9361,9.0582,9.1787,9.1845,9.1845,9.1962,9.1962,9.2078,9.202,9.202,9.2718,9.3633,9.3808,9.4681,9.5437,9.5728,9.6019,9.644,9.7138,9.7443,9.7966,9.8547,9.9071,9.9361,9.9536,9.9536,9.9536,9.9536,9.9536,9.9536,9.9536,9.9536,9.9536,9.9536,9.9536,9.9536,9.9536,9.9536,9.9536,9.9536,9.9536,9.9594,9.971,9.9768,10.0117,10.0861,10.1385,10.2432,10.4002,10.4933,10.5805,10.6736,10.7085,10.7367,10.7367,10.7367,10.7367,10.7367,10.7367,10.7367,10.7367,10.7367,10.7367,10.7367,10.7367,10.7651,10.8744,10.9908,11.1961,11.406,11.684,12.0109,12.1465,12.2171,12.2682,12.3324,12.3757,12.4481,12.527,12.5664,12.5993,12.6322,12.6716,12.6585,12.6282,12.6914,12.6848,12.6782,12.6848,12.7111,12.7637,12.8097,12.9018,12.9281,12.9544,12.9832,12.9832,12.9832,12.9832,12.9832,12.9832,12.9832,12.9832,12.9832,12.9832,12.9832,12.9832,12.9832,12.9832,12.9832,8.7366,8.7425,8.789,8.853,8.9478,9.0699,9.1496,9.1903,9.1962,9.1962,9.1962,9.202,9.2369,9.3067,9.3342,9.3924,9.5088,9.5204,9.5844,9.6803,9.692,9.7429,9.8011,9.8709,9.8664,9.8954,9.9361,9.9536,9.9536,9.9536,9.9536,9.9536,9.9536,9.9536,9.9536,9.9536,9.9536,9.9536,9.9536,9.9536,9.9536,9.9536,9.9536,9.9536,9.9536,9.9536,9.9536,9.9536,9.9536,9.9652,10.0059,10.057,10.1734,10.3071,10.4351,10.5514,10.6503,10.7143,10.7259,10.7367,10.7367,10.7367,10.7367,10.7367,10.7367,10.7367,10.7367,10.7367,10.7367,10.7308,10.7749,10.9543,11.1106,11.3442,11.5574,11.7874,12.0514,12.1122,12.1773,12.1708,12.2113,12.2179,12.2574,12.3363,12.4218,12.4415,12.4678,12.4507,12.4376,12.527,12.5993,12.5927,12.5927,12.5796,12.5927,12.6256,12.7045,12.8229,12.8558,12.8755,12.9018,12.8977,12.9503,12.9832,12.9635,12.9569,12.97,12.9766,12.97,12.97,12.9766,12.9832,12.9832,12.9832,12.9832,8.8704,8.8762,8.917,8.9868,9.0699,9.1613,9.1962,9.1962,9.1962,9.2194,9.2543,9.2601,9.3299,9.4215,9.4622,9.5161,9.6208,9.644,9.708,9.8082,9.8257,9.8896,9.9187,9.9303,9.942,9.9536,9.9536,9.9536,9.9536,9.9536,9.9536,9.9536,9.9536,9.9536,9.9536,9.9536,9.9536,9.9536,9.9536,9.9536,9.9536,9.9536,9.9536,9.9536,9.9536,9.9536,9.9536,9.9536,9.9536,9.9536,9.9594,9.9989,10.0745,10.1966,10.3351,10.4584,10.5863,10.6736,10.7201,10.7367,10.7367,10.7367,10.7367,10.7367,10.7367,10.7367,10.7367,10.7367,10.7367,10.7982,10.8321,11.0096,11.2414,11.4757,11.6442,11.875,12.0422,12.1029,12.1324,12.1324,12.1324,12.1522,12.1653,12.2442,12.2705,12.2902,12.2968,12.2837,12.2968,12.3889,12.4481,12.4481,12.4546,12.4612,12.4678,12.4809,12.5467,12.6585,12.7242,12.7571,12.7769,12.7769,12.8229,12.8755,12.9018,12.9306,12.9569,12.9832,12.9635,12.9503,12.9766,12.9832,12.9832,12.9898,12.9963,9.0059,9.0233,9.128,9.1787,9.1845,9.1962,9.1962,9.1962,9.2136,9.2776,9.3866,9.3982,9.4622,9.5612,9.5844,9.6557,9.7443,9.7675,9.8199,9.9013,9.9129,9.9361,9.9536,9.9536,9.9536,9.9536,9.9536,9.9536,9.9536,9.9536,9.9536,9.9536,9.9536,9.9536,9.9536,9.9536,9.9536,9.9536,9.9536,9.9536,9.9536,9.9536,9.9536,9.9536,9.9536,9.9536,9.9536,9.9536,9.9536,9.9536,9.9536,9.9594,10.0001,10.1094,10.2315,10.3584,10.4816,10.6038,10.7143,10.7259,10.7367,10.7367,10.7367,10.7367,10.7367,10.7367,10.7367,10.7367,10.7308,10.837,10.9719,11.1106,11.3602,11.5744,11.686,11.8564,12.0266,12.1324,12.1324,12.1324,12.1324,12.1324,12.1324,12.1324,12.1456,12.1456,12.1324,12.139,12.1587,12.2113,12.2376,12.2508,12.2574,12.2771,12.3231,12.3363,12.385,12.4941,12.573,12.5993,12.619,12.6585,12.7045,12.748,12.7703,12.7834,12.8755,12.97,12.8755,12.79,12.8755,12.97,12.9873,13.0004,13.0292,9.1338,9.1396,9.1745,9.1962,9.1962,9.1962,9.1962,9.2136,9.2892,9.3997,9.5204,9.5262,9.5961,9.6789,9.7094,9.7792,9.8547,9.8838,9.9187,9.9361,9.9536,9.9536,9.9536,9.9536,9.9536,9.9536,9.9536,9.9536,9.9536,9.9536,9.9536,9.9536,9.9536,9.9536,9.9536,9.9536,9.9536,9.9536,9.9536,9.9536,9.9536,9.9536,9.9536,9.9536,9.9536,9.9536,9.9536,9.9536,9.9536,9.9536,9.9536,9.9536,9.9989,10.0803,10.2083,10.3362,10.4642,10.598,10.691,10.7367,10.7367,10.7367,10.7367,10.7367,10.7367,10.7367,10.7367,10.7308,10.7456,10.8273,11.0363,11.1505,11.3646,11.711,11.82,11.895,12.0539,12.1324,12.1324,12.1324,12.1324,12.1324,12.1324,12.1324,12.139,12.139,12.1324,12.1324,12.1324,12.1324,12.1324,12.1324,12.1324,12.1587,12.185,12.2245,12.2771,12.3757,12.4152,12.4415,12.4875,12.5599,12.6125,12.619,12.6256,12.6388,12.7177,12.8295,12.7637,12.6716,12.7703,12.9084,12.9413,13.053,13.0752,9.1962,9.1962,9.1962,9.1962,9.1962,9.2485,9.266,9.2892,9.4099,9.5146,9.5844,9.6368,9.7197,9.8082,9.8431,9.8838,9.942,9.9536,9.9536,9.9536,9.9536,9.9536,9.9536,9.9536,9.9536,9.9536,9.9536,9.9536,9.9536,9.9536,9.9536,9.9536,9.9536,9.9536,9.9536,9.9536,9.9536,9.9536,9.9536,9.9536,9.9536,9.9536,9.9536,9.9536,9.9536,9.9536,9.9536,9.9536,9.9536,9.9536,9.9536,9.9536,9.971,10.0221,10.1268,10.2537,10.3711,10.5049,10.6154,10.6969,10.7308,10.7367,10.7367,10.7367,10.7367,10.7367,10.7367,10.7749,10.8128,10.9955,11.1961,11.3176,11.4391,11.7646,11.9468,12.0045,12.0771,12.1182,12.1324,12.1324,12.1324,12.1324,12.1324,12.1324,12.1324,12.1324,12.1324,12.1324,12.1324,12.1324,12.1324,12.1324,12.1324,12.1522,12.1522,12.1587,12.1653,12.2179,12.2639,12.2837,12.31,12.402,12.4941,12.4809,12.477,12.5467,12.619,12.6979,12.744,12.744,12.7966,12.8704,12.9782,13.0925,13.1846,9.1962,9.1962,9.2078,9.2136,9.2252,9.3416,9.3997,9.4157,9.5379,9.6019,9.631,9.7197,9.8373,9.9187,9.9303,9.9361,9.9536,9.9536,9.9536,9.9536,9.9536,9.9536,9.9536,9.9536,9.9536,9.9536,9.9536,9.9536,9.9536,9.9536,9.9536,9.9536,9.9536,9.9536,9.9536,9.9536,9.9536,9.9536,9.9536,9.9536,9.9536,9.9536,9.9536,9.9536,9.9536,9.9536,9.9536,9.9536,9.9536,9.9536,9.9536,9.9536,9.9536,9.9814,10.0512,10.1734,10.306,10.4118,10.5224,10.6154,10.6969,10.7308,10.7367,10.7367,10.7358,10.7358,10.7651,10.8079,11.0049,11.1961,11.4322,11.6336,11.7646,11.9731,12.05,12.0913,12.1029,12.1324,12.1324,12.1324,12.1324,12.1324,12.1324,12.1324,12.1324,12.139,12.139,12.2113,12.1982,12.2376,12.2113,12.2048,12.1916,12.185,12.1785,12.2179,12.2902,12.3363,12.3494,12.31,12.2639,12.2705,12.3889,12.402,12.4809,12.4941,12.5335,12.619,12.6979,12.7703,12.8602,12.9359,13.0364,13.1984,13.3228,9.1962,9.2078,9.3009,9.3416,9.3575,9.4797,9.5321,9.5495,9.6673,9.7152,9.7546,9.8431,9.9129,9.9478,9.9536,9.9536,9.9536,9.9536,9.9536,9.9536,9.9536,9.9536,9.9536,9.9536,9.9536,9.9536,9.9536,9.9536,9.9536,9.9536,9.9536,9.9536,9.9536,9.9536,9.9536,9.9536,9.9536,9.9536,9.9536,9.9536,9.9536,9.9536,9.9536,9.9536,9.9536,9.9536,9.9536,9.9536,9.9536,9.9536,9.9536,9.9536,9.9536,9.9594,10.0163,10.121,10.2537,10.3468,10.406,10.5224,10.6271,10.691,10.7367,10.7308,10.7456,10.9115,10.9861,10.9353,11.1642,11.4191,11.6336,11.7317,11.919,12.0461,12.1324,12.1324,12.1324,12.1324,12.1324,12.1324,12.1324,12.1324,12.1587,12.1456,12.1587,12.1587,12.2048,12.2837,12.3428,12.4152,12.4086,12.4152,12.402,12.402,12.4086,12.4349,12.4546,12.4875,12.4875,12.4678,12.4415,12.4349,12.4086,12.4415,12.5204,12.6031,12.7607,12.6767,12.623,12.8009,12.9525,13.0162,13.1697,13.3222,13.5125,9.2252,9.2834,9.3532,9.4215,9.4855,9.6033,9.6557,9.6848,9.785,9.8431,9.8606,9.9245,9.9536,9.9536,9.9536,9.9536,9.9536,9.9536,9.9536,9.9536,9.9536,9.9536,9.9536,9.9536,9.9536,9.9536,9.9536,9.9536,9.9536,9.9536,9.9536,9.9536,9.9536,9.9536,9.9536,9.9536,9.9536,9.9536,9.9536,9.9536,9.9536,9.9536,9.9536,9.9536,9.9536,9.9536,9.9536,9.9536,9.9536,9.9536,9.9536,9.9536,9.9536,9.9594,9.9814,10.0745,10.185,10.2537,10.2886,10.4409,10.5514,10.6329,10.6969,10.7308,10.7553,10.8359,10.9115,10.9448,11.2384,11.4497,11.5787,11.8014,11.9666,12.0732,12.1324,12.1324,12.1324,12.1324,12.1324,12.1324,12.1324,12.1916,12.2376,12.2902,12.3626,12.3626,12.3955,12.4349,12.4809,12.5467,12.5796,12.5927,12.5993,12.5927,12.6059,12.6059,12.5993,12.5862,12.5862,12.5862,12.5862,12.573,12.5204,12.5335,12.6308,12.8026,13.0073,13.0312,13.0551,13.0574,13.0454,13.269,13.4851,13.6264,13.8094,9.2834,9.3881,9.4172,9.4972,9.6135,9.7268,9.7805,9.7966,9.8954,9.9536,9.9361,9.9536,9.9536,9.9536,9.9536,9.9536,9.9536,9.9536,9.9536,9.9536,9.9536,9.9536,9.9536,9.9536,9.9536,9.9536,9.9536,9.9536,9.9536,9.9536,9.9536,9.9536,9.9536,9.9536,9.9536,9.9536,9.9536,9.9536,9.9536,9.9536,9.9536,9.9536,9.9536,9.9536,9.9536,9.9536,9.9536,9.9536,9.9536,9.9536,9.9536,9.9536,9.9536,9.9536,9.9536,9.9885,10.0512,10.1326,10.1908,10.3595,10.5107,10.5689,10.6678,10.7143,10.7358,10.7602,10.8128,10.7885,11.2684,11.5829,11.711,11.9086,12.0616,12.1324,12.1324,12.1324,12.1324,12.1324,12.1324,12.139,12.2639,12.31,12.3494,12.4678,12.5664,12.5664,12.573,12.5796,12.6059,12.6585,12.6979,12.7177,12.7308,12.7242,12.7308,12.7111,12.6979,12.6716,12.6716,12.6716,12.6979,12.7177,12.6585,12.7448,12.7834,12.9318,13.1631,13.3526,13.4811,13.4567,13.3273,13.4936,13.774,13.9467,14.085,9.3691,9.4056,9.5989,9.7036,9.7443,9.8606,9.9129,9.9187,9.942,9.9536,9.9536,9.9536,9.9536,9.9536,9.9536,9.9536,9.9536,9.9536,9.9536,9.9536,9.9536,9.9536,9.9536,9.9536,9.9536,9.9536,9.9536,9.9536,9.9536,9.9536,9.9536,9.9536,9.9536,9.9536,9.9536,9.9536,9.9536,9.9536,9.9536,9.9536,9.9536,9.9536,9.9536,9.9536,9.9536,9.9536,9.9536,9.9536,9.9536,9.9536,9.9536,9.9536,9.9536,9.9536,9.9536,9.9536,9.9768,10.057,10.1443,10.3071,10.4351,10.5107,10.6503,10.7143,10.7367,10.7602,10.8792,11.2863,11.6672,11.915,11.895,12.0616,12.1182,12.1324,12.1324,12.1324,12.1324,12.1456,12.1522,12.2574,12.3823,12.4546,12.5007,12.5993,12.6585,12.6651,12.7045,12.7177,12.7374,12.79,12.8163,12.8426,12.8492,12.8426,12.8737,12.8592,12.8698,12.897,12.9347,12.9347,12.9212,12.9148,13.0207,13.1261,13.1504,13.2216,13.3564,13.5363,13.635,13.6616,13.5843,13.6979,14.0129,14.2298,14.3829,9.4579,9.5757,9.7036,9.7966,9.8606,9.9245,9.9536,9.9536,9.9536,9.9536,9.9536,9.9536,9.9536,9.9536,9.9536,9.9536,9.9536,9.9536,9.9536,9.9536,9.9536,9.9536,9.9536,9.9536,9.9536,9.9536,9.9536,9.9536,9.9536,9.9536,9.9536,9.9536,9.9536,9.9536,9.9536,9.9536,9.9536,9.9536,9.9536,9.9536,9.9536,9.9536,9.9536,9.9536,9.9536,9.9536,9.9536,9.9536,9.9536,9.9536,9.9536,9.9536,9.9536,9.9536,9.9536,9.9536,9.9536,9.993,10.057,10.2373,10.3584,10.4526,10.6212,10.7143,10.7367,10.7602,10.884,11.2459,11.6672,11.9587,11.977,12.0616,12.1144,12.1324,12.1324,12.1324,12.1456,12.1982,12.2771,12.3757,12.5204,12.6322,12.6651,12.6979,12.744,12.79,12.836,12.8558,12.8755,12.9018,12.924,12.9306,12.924,12.9715,13.0702,13.0868,13.107,13.2122,13.2709,13.2709,13.2622,13.2635,13.3497,13.4596,13.5739,13.6389,13.7437,13.7839,13.8017,13.826,13.9149,14.0538,14.3049,14.5137,14.6738,9.5699,9.7572,9.7805,9.8502,9.942,9.9536,9.9536,9.9536,9.9536,9.9536,9.9536,9.9536,9.9536,9.9536,9.9536,9.9536,9.9536,9.9536,9.9536,9.9536,9.9536,9.9536,9.9536,9.9536,9.9536,9.9536,9.9536,9.9536,9.9536,9.9536,9.9536,9.9536,9.9536,9.9536,9.9536,9.9536,9.9536,9.9536,9.9536,9.9536,9.9536,9.9536,9.9536,9.9536,9.9536,9.9536,9.9536,9.9536,9.9536,9.9536,9.9536,9.9536,9.9536,9.9536,9.9536,9.9536,9.9536,9.9536,9.9943,10.1734,10.2944,10.3875,10.5504,10.6736,10.725,10.7456,10.8648,11.1336,11.4304,11.7005,11.7646,12.0006,12.1105,12.139,12.1522,12.1785,12.2113,12.3231,12.4744,12.5533,12.6848,12.8097,12.8295,12.8558,12.8649,12.8952,12.9149,12.9281,12.9413,12.9569,12.9832,12.9832,12.9832,13.0962,13.2313,13.254,13.3293,13.4345,13.4665,13.4629,13.4805,13.5432,13.6483,13.7464,13.8508,13.9077,13.9868,14.0679,14.0821,14.0848,14.2568,14.4486,14.6276,14.8027,14.966,9.7268,9.7631,9.878,9.9303,9.9536,9.9536,9.9536,9.9536,9.9536,9.9536,9.9536,9.9536,9.9536,9.9536,9.9536,9.9536,9.9536,9.9536,9.9536,9.9536,9.9536,9.9536,9.9536,9.9536,9.9536,9.9536,9.9536,9.9536,9.9536,9.9536,9.9536,9.9536,9.9536,9.9536,9.9536,9.9536,9.9536,9.9536,9.9536,9.9536,9.9536,9.9536,9.9536,9.9536,9.9536,9.9536,9.9536,9.9536,9.9536,9.9536,9.9536,9.9536,9.9536,9.9536,9.9536,9.9536,9.9536,9.9536,9.9872,10.0977,10.2362,10.341,10.4875,10.6038,10.691,10.7281,10.8434,11.021,11.2233,11.4216,11.7482,11.9836,12.0974,12.1456,12.2442,12.2995,12.3521,12.5533,12.6716,12.7571,12.836,12.9018,12.9413,12.9503,12.97,12.9832,12.9766,12.9766,12.9766,12.9832,12.9832,12.9832,12.9832,13.0671,13.2313,13.2997,13.477,13.5638,13.5774,13.5809,13.5843,13.6583,13.7592,13.9287,14.0195,14.0481,14.098,14.2205,14.2989,14.3418,14.4773,14.7128,14.9126,15.091,15.2306,9.7921,9.8664,9.9245,9.9536,9.9536,9.9536,9.9536,9.9536,9.9536,9.9536,9.9536,9.9536,9.9536,9.9536,9.9536,9.9536,9.9536,9.9536,9.9536,9.9536,9.9536,9.9536,9.9536,9.9536,9.9536,9.9536,9.9536,9.9536,9.9536,9.9536,9.9536,9.9536,9.9536,9.9536,9.9536,9.9536,9.9536,9.9536,9.9536,9.9536,9.9536,9.9536,9.9536,9.9536,9.9536,9.9536,9.9536,9.9536,9.9536,9.9536,9.9536,9.9536,9.9536,9.9536,9.9536,9.9536,9.9536,9.9536,9.9827,10.0745,10.1734,10.2315,10.4293,10.5049,10.534,10.662,10.7995,10.9597,11.1654,11.4434,11.9006,12.0427,12.0552,12.1258,12.2574,12.339,12.3981,12.6651,12.8821,12.9018,12.9347,12.97,12.9832,12.9766,12.9832,12.9832,12.9832,12.9832,12.9832,12.9832,12.9832,12.9832,12.9832,13.0671,13.2389,13.4202,13.5877,13.6945,13.7335,13.7597,13.7597,13.8167,13.8763,13.9656,14.0752,14.1178,14.2633,14.3632,14.4702,14.6058,14.7913,14.9911,15.1766,15.3193,15.4549,9.8606,9.9536,9.9536,9.9536,9.9536,9.9536,9.9536,9.9536,9.9536,9.9536,9.9536,9.9536,9.9536,9.9536,9.9536,9.9536,9.9536,9.9536,9.9536,9.9536,9.9536,9.9536,9.9536,9.9536,9.9536,9.9536,9.9536,9.9536,9.9536,9.9536,9.9536,9.9536,9.9536,9.9536,9.9536,9.9536,9.9536,9.9536,9.9536,9.9536,9.9536,9.9536,9.9536,9.9536,9.9536,9.9536,9.9536,9.9536,9.9536,9.9536,9.9536,9.9536,9.9536,9.9536,9.9536,9.9536,9.9536,9.9536,9.971,10.0396,10.1152,10.1675,10.3479,10.4526,10.3642,10.5805,10.7402,10.8428,11.1439,11.4695,11.8379,11.9338,12.0328,12.139,12.2837,12.3916,12.4113,12.6914,12.8886,12.9281,12.9544,12.9832,12.9832,12.9832,12.9832,12.9832,12.9832,12.9832,12.9832,12.9832,12.9832,12.9832,13.0158,13.0989,13.2766,13.4735,13.688,13.864,13.9407,13.9862,13.9891,14.0281,14.0505,14.0965,14.1491,14.2989,14.4702,14.5844,14.7913,14.9625,15.1409,15.2979,15.4406,15.5476,15.672,9.9361,9.9536,9.9536,9.9536,9.9536,9.9536,9.9536,9.9536,9.9536,9.9536,9.9536,9.9536,9.9536,9.9536,9.9536,9.9536,9.9536,9.9536,9.9536,9.9536,9.9536,9.9536,9.9536,9.9536,9.9536,9.9536,9.9536,9.9536,9.9536,9.9536,9.9536,9.9536,9.9536,9.9536,9.9536,9.9536,9.9536,9.9536,9.9536,9.9536,9.9536,9.9536,9.9536,9.9536,9.9536,9.9536,9.9536,9.9536,9.9536,9.9536,9.9536,9.9536,9.9536,9.9536,9.9536,9.9536,9.9536,9.9536,9.9594,9.971,10.0221,10.1326,10.2711,10.3468,10.3642,10.5282,10.6513,10.5733,10.9085,11.2327,11.5261,11.8996,12.052,12.1456,12.356,12.4415,12.431,12.6059,12.794,12.8006,12.9149,12.97,12.9832,12.9832,12.9832,12.9832,12.9832,12.9832,12.9832,12.9832,12.9832,12.9955,13.0591,13.1356,13.3324,13.5294,13.7821,13.9979,14.0723,14.0992,14.0992,14.1134,14.1705,14.2633,14.3246,14.453,14.67,14.9126,15.1266,15.305,15.4406,15.5833,15.6903,15.7648,15.7933,9.9536,9.9536,9.9536,9.9536,9.9536,9.9536,9.9536,9.9536,9.9536,9.9536,9.9536,9.9536,9.9536,9.9536,9.9536,9.9536,9.9536,9.9536,9.9536,9.9536,9.9536,9.9536,9.9536,9.9536,9.9536,9.9536,9.9536,9.9536,9.9536,9.9536,9.9536,9.9536,9.9536,9.9536,9.9536,9.9536,9.9536,9.9536,9.9536,9.9536,9.9536,9.9536,9.9536,9.9536,9.9536,9.9536,9.9536,9.9536,9.9536,9.9536,9.9536,9.9536,9.9536,9.9536,9.9536,9.9536,9.9536,9.9536,9.9536,9.9536,9.9827,10.0454,10.1559,10.1792,10.185,10.3479,10.4467,10.3951,10.786,11.0433,11.2574,11.6849,11.993,12.1127,12.2311,12.31,12.3455,12.527,12.6256,12.6782,12.7637,12.8623,12.8558,12.9413,12.97,12.9832,12.97,12.9766,12.9832,12.9832,12.9914,13.0335,13.0843,13.238,13.4202,13.5978,13.826,14.0195,14.0992,14.0992,14.0992,14.0992,14.2276,14.3917,14.4887,14.6457,14.9483,15.2265,15.412,15.5619,15.7403,15.8473,15.8616,15.9075,15.9186,9.9187,9.9536,9.9536,9.9536,9.9536,9.9536,9.9536,9.9536,9.9536,9.9536,9.9536,9.9536,9.9536,9.9536,9.9536,9.9536,9.9536,9.9536,9.9536,9.9536,9.9536,9.9536,9.9536,9.9536,9.9536,9.9536,9.9536,9.9536,9.9536,9.9536,9.9536,9.9536,9.9536,9.9536,9.9536,9.9536,9.9536,9.9536,9.9536,9.9536,9.9536,9.9536,9.9536,9.9536,9.9536,9.9536,9.9536,9.9536,9.9536,9.9536,9.9536,9.9536,9.9536,9.9536,9.9536,9.9536,9.9536,9.9536,9.9536,9.9536,9.9536,9.9698,10.0861,10.0919,9.9768,10.1908,10.2595,10.2847,10.7137,11.0777,11.1303,11.569,11.8815,12.0075,12.0535,12.1324,12.2639,12.4086,12.5007,12.5204,12.6256,12.6979,12.7308,12.79,12.8623,12.9018,12.9215,12.9281,12.97,12.9832,12.9832,13.0416,13.1239,13.3065,13.4946,13.6613,13.8416,14.031,14.0992,14.0992,14.0992,14.1063,14.2847,14.5458,14.6742,14.981,15.2765,15.4977,15.6261,15.7688,15.883,15.9186,15.9615,15.9789,15.9757,9.8431,9.9478,9.9536,9.9478,9.9536,9.9536,9.9536,9.9536,9.9536,9.9536,9.9536,9.9536,9.9536,9.9536,9.9536,9.9536,9.9536,9.9536,9.9536,9.9536,9.9536,9.9536,9.9536,9.9536,9.9536,9.9536,9.9536,9.9536,9.9536,9.9536,9.9536,9.9536,9.9536,9.9536,9.9536,9.9536,9.9536,9.9536,9.9536,9.9536,9.9536,9.9536,9.9536,9.9536,9.9536,9.9536,9.9536,9.9536,9.9536,9.9536,9.9536,9.9536,9.9536,9.9536,9.9536,9.9536,9.9536,9.9536,9.9536,9.9536,9.9536,9.9594,10.057,10.0919,9.9989,10.1501,10.2373,10.1779,10.7231,11.1003,11.1283,11.5107,11.7625,11.7473,11.8365,11.9615,12.1193,12.2508,12.3165,12.3587,12.4744,12.573,12.573,12.5927,12.6716,12.748,12.7966,12.8623,12.9215,12.97,12.9832,13.0295,13.0843,13.2796,13.5086,13.6847,13.8793,14.031,14.0992,14.0992,14.0992,14.1277,14.2419,14.62,14.9197,15.2979,15.5904,15.7403,15.8758,15.9044,15.9186,15.9543,15.9757,15.9757,15.9757,9.7197,9.8257,9.8315,9.878,9.9478,9.9536,9.9536,9.9536,9.9536,9.9536,9.9536,9.9536,9.9536,9.9536,9.9536,9.9536,9.9536,9.9536,9.9536,9.9536,9.9536,9.9536,9.9536,9.9536,9.9536,9.9536,9.9536,9.9536,9.9536,9.9536,9.9536,9.9536,9.9536,9.9536,9.9536,9.9536,9.9536,9.9536,9.9536,9.9536,9.9536,9.9536,9.9536,9.9536,9.9536,9.9536,9.9536,9.9536,9.9536,9.9536,9.9536,9.9536,9.9536,9.9536,9.9536,9.9536,9.9536,9.9536,9.9536,9.9536,9.9536,9.9594,9.9943,9.9943,9.9827,10.0163,10.0861,10.0613,10.4138,10.711,10.9036,11.2523,11.4168,11.4108,11.6224,11.7444,11.7444,11.9286,12.0667,12.139,12.2902,12.3916,12.4441,12.4875,12.5862,12.6322,12.7111,12.8097,12.8426,12.9281,12.9676,13.0052,13.1239,13.3176,13.5225,13.7173,13.9097,14.0095,14.0892,14.0992,14.1134,14.1491,14.2419,14.6129,14.9768,15.3193,15.7117,15.883,15.9615,15.9757,15.9615,15.9757,15.9757,15.9757,15.9757,9.5961,9.6978,9.7443,9.814,9.8896,9.9361,9.9536,9.9536,9.9536,9.9536,9.9536,9.9536,9.9536,9.9536,9.9536,9.9536,9.9536,9.9536,9.9536,9.9536,9.9536,9.9536,9.9536,9.9536,9.9536,9.9536,9.9536,9.9536,9.9536,9.9536,9.9536,9.9536,9.9536,9.9536,9.9536,9.9536,9.9536,9.9536,9.9536,9.9536,9.9536,9.9536,9.9536,9.9536,9.9536,9.9536,9.9536,9.9536,9.9536,9.9536,9.9536,9.9536,9.9536,9.9536,9.9536,9.9536,9.9536,9.9536,9.9536,9.9536,9.9536,9.9536,9.9536,9.9536,9.9536,9.9594,9.9594,9.9763,10.1957,10.442,10.7357,10.9936,11.162,11.1536,11.4254,11.5764,11.5537,11.7013,11.8431,11.9286,12.1258,12.2574,12.2968,12.3363,12.4218,12.4875,12.5664,12.6782,12.7611,12.8558,12.9297,13.0605,13.2503,13.4416,13.6079,13.7782,13.9377,14.0339,14.0808,14.0992,14.1348,14.1848,14.3061,14.563,14.9126,15.2836,15.6974,15.9044,15.9258,15.94,15.9543,15.9686,15.9757,15.9757,15.9757,9.4681,9.5903,9.7094,9.7443,9.7792,9.8838,9.9478,9.942,9.9478,9.9536,9.9536,9.9536,9.9536,9.9536,9.9536,9.9536,9.9536,9.9536,9.9536,9.9536,9.9536,9.9536,9.9536,9.9536,9.9536,9.9536,9.9536,9.9536,9.9536,9.9536,9.9536,9.9536,9.9536,9.9536,9.9536,9.9536,9.9536,9.9536,9.9536,9.9536,9.9536,9.9536,9.9536,9.9536,9.9536,9.9536,9.9536,9.9536,9.9536,9.9536,9.9536,9.9536,9.9536,9.9536,9.9536,9.9536,9.9536,9.9536,9.9536,9.9536,9.9536,9.9536,9.9536,9.9536,9.9536,9.9536,9.9536,9.9971,10.2344,10.496,10.6263,10.905,11.0648,10.9928,11.2848,11.4807,11.4844,11.5932,11.7379,11.8825,12.0469,12.1297,12.1362,12.1757,12.2311,12.3192,12.3784,12.4704,12.6585,12.7677,12.9187,13.1319,13.3084,13.4982,13.6745,13.8385,13.9526,14.0425,14.078,14.1277,14.1705,14.2847,14.4131,14.5915,14.9483,15.2123,15.619,15.7331,15.7831,15.8901,15.9258,15.94,15.9615,15.9757,15.9757,9.3299,9.4506,9.4928,9.5568,9.6499,9.7675,9.8199,9.827,9.9129,9.9536,9.9536,9.9536,9.9536,9.9536,9.9536,9.9536,9.9536,9.9536,9.9536,9.9536,9.9536,9.9536,9.9536,9.9536,9.9536,9.9536,9.9536,9.9536,9.9536,9.9536,9.9536,9.9536,9.9536,9.9536,9.9536,9.9536,9.9536,9.9536,9.9536,9.9536,9.9536,9.9536,9.9536,9.9536,9.9536,9.9536,9.9536,9.9536,9.9536,9.9536,9.9536,9.9536,9.9536,9.9536,9.9536,9.9536,9.9536,9.9536,9.9536,9.9536,9.9536,9.9536,9.9536,9.9536,9.9536,9.9536,9.9536,9.9672,10.0884,10.2076,10.3909,10.6322,10.8252,10.9572,11.2533,11.4252,11.3433,11.4551,11.5998,11.7576,11.9615,12.0995,12.1324,12.1324,12.1522,12.185,12.2864,12.3587,12.4941,12.6336,12.8632,13.073,13.2944,13.526,13.719,13.8844,14.0197,14.0652,14.1035,14.1705,14.2419,14.3917,14.5458,14.7271,14.9483,15.198,15.3835,15.5119,15.6404,15.7759,15.8187,15.8402,15.9044,15.9472,15.9258,9.0281,9.195,9.3305,9.439,9.5262,9.644,9.692,9.7022,9.7895,9.8418,9.878,9.8838,9.9071,9.9478,9.9013,9.9071,9.9478,9.9536,9.9536,9.9536,9.9536,9.9536,9.9536,9.9536,9.9536,9.9536,9.9536,9.9536,9.9536,9.9536,9.9536,9.9536,9.9536,9.9536,9.9536,9.9536,9.9536,9.9536,9.9536,9.9536,9.9536,9.9536,9.9536,9.9536,9.9536,9.9536,9.9536,9.9536,9.9536,9.9536,9.9536,9.9536,9.9536,9.9536,9.9536,9.9536,9.9536,9.9536,9.9536,9.9536,9.9536,9.9536,9.9536,9.9536,9.9536,9.9536,9.9536,9.9581,9.9581,10.0504,10.2615,10.4841,10.6933,10.9189,11.1976,11.3499,11.3008,11.3367,11.4647,11.6655,11.8299,12.0244,12.0798,12.1324,12.1324,12.1428,12.2048,12.2837,12.3587,12.4875,12.7565,13.0741,13.3332,13.5352,13.7169,13.8982,14.0393,14.0678,14.1562,14.2347,14.3346,14.4773,14.6272,14.7913,14.9483,15.1623,15.195,15.3264,15.4834,15.6047,15.6618,15.6974,15.7902,15.7403,15.7648,8.5936,8.8496,9.1978,9.3276,9.3752,9.5103,9.5728,9.5728,9.5903,9.6499,9.7443,9.7559,9.8199,9.9129,9.8024,9.8199,9.9187,9.9303,9.9303,9.9303,9.9478,9.9536,9.9536,9.9536,9.9536,9.9536,9.9536,9.9536,9.9536,9.9536,9.9536,9.9536,9.9536,9.9536,9.9536,9.9536,9.9536,9.9536,9.9536,9.9536,9.9536,9.9536,9.9536,9.9536,9.9536,9.9536,9.9536,9.9536,9.9536,9.9536,9.9536,9.9536,9.9536,9.9536,9.9536,9.9536,9.9536,9.9536,9.9536,9.9536,9.9536,9.9536,9.9536,9.9536,9.9536,9.9536,9.9536,9.9536,9.9536,10.028,10.2328,10.4591,10.6853,10.8794,11.1086,11.2472,11.2548,11.2745,11.3828,11.5998,11.6984,11.8299,12.0732,12.1193,12.1258,12.1324,12.1324,12.1785,12.2864,12.339,12.6236,13.0443,13.2852,13.3962,13.5813,13.7822,13.9382,14.025,14.1562,14.3204,14.4345,14.5558,14.6985,14.8484,14.981,15.0523,15.0666,15.1593,15.3121,15.3978,15.4477,15.5364,15.6118,15.5436,15.565,8.4978,8.5673,8.6627,8.8153,9.0002,9.3075,9.4448,9.4506,9.5437,9.6019,9.631,9.631,9.6543,9.6776,9.644,9.644,9.695,9.7675,9.814,9.8257,9.9129,9.9536,9.9536,9.9536,9.9536,9.9536,9.9536,9.9536,9.9536,9.9536,9.9536,9.9536,9.9536,9.9536,9.9536,9.9536,9.9536,9.9536,9.9536,9.9536,9.9536,9.9536,9.9536,9.9536,9.9536,9.9536,9.9536,9.9536,9.9536,9.9536,9.9536,9.9536,9.9536,9.9536,9.9536,9.9536,9.9536,9.9536,9.9536,9.9536,9.9536,9.9536,9.9536,9.9536,9.9536,9.9536,9.9536,9.9478,9.9536,9.966,10.0817,10.3836,10.6131,10.7052,11.0431,11.2513,11.2548,11.2548,11.3236,11.5011,11.6261,11.7642,11.9417,12.0601,12.1324,12.1324,12.1324,12.1522,12.185,12.2914,12.4417,12.7491,13.0182,13.2517,13.5663,13.7319,13.8455,13.968,14.1634,14.356,14.4959,14.6486,14.7984,14.9096,14.9738,15.0309,15.0452,15.0452,15.1308,15.1766,15.2622,15.3692,15.4436,15.5007,15.5007,8.1715,8.3028,8.3028,8.5024,8.8473,9.172,9.3125,9.3125,9.3924,9.4564,9.4913,9.4506,9.4564,9.503,9.503,9.5321,9.5844,9.6557,9.6906,9.6964,9.7662,9.8011,9.8069,9.8489,9.8722,9.8722,9.9303,9.9536,9.9536,9.9536,9.9536,9.9536,9.9536,9.9536,9.9536,9.9536,9.9536,9.9536,9.9536,9.9536,9.9536,9.9536,9.9536,9.9478,9.9013,9.8722,9.8722,9.8199,9.8011,9.8011,9.8011,9.8011,9.8011,9.8011,9.8011,9.8011,9.8011,9.8011,9.8011,9.8011,9.8244,9.8722,9.8722,9.9013,9.942,9.9536,9.9245,9.8838,9.8722,9.9451,10.1011,10.4046,10.6516,10.7708,11.0431,11.2548,11.2548,11.2548,11.3104,11.4515,11.5896,11.7379,11.8957,12.0404,12.1193,12.1324,12.1324,12.1324,12.1362,12.1982,12.3827,12.645,12.8061,13.0498,13.3521,13.5674,13.6799,13.7995,14.0706,14.3275,14.4773,14.67,14.9096,15.0024,15.0238,15.0238,15.0238,15.0309,15.0309,15.0523,15.1379,15.198,15.2907,15.3121,15.3121,7.7316,7.9959,8.0151,8.3045,8.7342,9.0343,9.1539,9.1582,9.1877,9.266,9.3575,9.2485,9.266,9.3633,9.3707,9.4288,9.5321,9.5553,9.5612,9.5612,9.5772,9.5786,9.6019,9.6964,9.7443,9.7559,9.8489,9.8954,9.9,9.9058,9.9129,9.9187,9.9303,9.9303,9.9361,9.9478,9.9536,9.9536,9.9303,9.9174,9.9187,9.9187,9.9129,9.9129,9.8024,9.7443,9.7385,9.6382,9.5844,9.5786,9.5903,9.5844,9.5844,9.5728,9.567,9.567,9.5597,9.5495,9.5437,9.5597,9.6252,9.7268,9.7443,9.7908,9.8942,9.9116,9.8664,9.7733,9.7443,9.8638,10.1875,10.4183,10.6108,10.7544,11.0456,11.2351,11.2285,11.2482,11.3039,11.4318,11.5567,11.7181,11.8562,12.0009,12.0995,12.1231,12.1324,12.1324,12.1362,12.1494,12.2972,12.6395,12.7348,12.804,13.0673,13.2647,13.4792,13.6496,14.0092,14.2561,14.406,14.67,14.9881,14.931,14.9881,14.9952,15.0095,15.0309,15.0309,15.0309,15.038,15.038,15.0309,15.0594,15.0666,7.4769,7.5495,7.5446,7.7709,8.1717,8.6853,8.9074,8.9249,9.1084,9.2136,9.2311,9.2078,9.2078,9.2369,9.2369,9.2543,9.295,9.3823,9.4331,9.4448,9.5321,9.5786,9.5844,9.6077,9.6252,9.631,9.6543,9.6659,9.6615,9.6659,9.6659,9.6776,9.7559,9.7979,9.8082,9.9013,9.9536,9.942,9.7707,9.6659,9.6659,9.6659,9.6659,9.6659,9.6368,9.6252,9.6252,9.5961,9.5786,9.5786,9.5786,9.5786,9.5728,9.4913,9.4331,9.4215,9.3358,9.2834,9.2834,9.3749,9.4913,9.6135,9.6252,9.6368,9.6601,9.6659,9.6543,9.631,9.6135,9.6486,9.7826,10.0771,10.3175,10.386,10.7958,11.0628,11.1,11.1921,11.271,11.3039,11.4288,11.5735,11.7181,11.8694,12.0009,12.0995,12.1324,12.1324,12.1324,12.1324,12.2098,12.4373,12.5773,12.7228,12.9264,13.1981,13.4293,13.6068,13.9208,14.1491,14.3204,14.4987,14.6885,14.8169,14.8454,14.8811,14.9952,15.0166,15.0095,14.9952,15.0024,15.0166,15.0166,15.0238,15.0238,7.3407,7.3846,7.3846,7.567,7.8808,8.1952,8.4884,8.742,8.7261,8.7023,8.7066,8.7023,8.8019,8.9484,8.9584,9.0438,9.1962,9.266,9.3009,9.3067,9.3749,9.4056,9.4157,9.4681,9.4972,9.4972,9.5553,9.5786,9.5786,9.5786,9.5786,9.5844,9.644,9.6789,9.6848,9.7487,9.7836,9.7778,9.5903,9.4972,9.4913,9.439,9.404,9.404,9.3458,9.3125,9.3183,9.2586,9.2295,9.2295,9.1671,9.1613,9.2178,9.1031,9.0624,9.1131,8.9984,8.9286,8.9245,8.9926,9.1147,9.3051,9.3707,9.3299,9.1554,9.1945,9.276,9.3924,9.404,9.4506,9.5801,9.8689,10.1001,10.1929,10.5509,10.8314,10.9346,11.0211,11.0869,11.1526,11.2841,11.4222,11.5669,11.7773,11.9549,12.0141,12.0995,12.1324,12.1324,12.1362,12.1911,12.3578,12.5269,12.699,12.8844,13.1273,13.3322,13.4927,13.7781,14.0278,14.1991,14.4274,14.5772,14.67,14.6813,14.7271,14.7812,14.8169,14.8097,14.8169,14.8597,14.9167,14.931,14.981,14.9667,7.2577,7.3456,7.3456,7.4734,7.6836,7.6836,8.0054,8.5037,8.1941,8.0806,8.1275,8.1583,8.3502,8.6415,8.6771,8.8544,9.1338,9.1438,9.1496,9.1671,9.1671,9.1745,9.202,9.3067,9.359,9.3691,9.4739,9.5262,9.5262,9.5262,9.5262,9.5262,9.5262,9.5379,9.5553,9.5772,9.5553,9.4972,9.3881,9.3416,9.3633,9.2543,9.1845,9.1671,9.064,8.9943,8.971,8.853,8.7774,8.7774,8.6512,8.6261,8.7134,8.6087,8.5738,8.6552,8.5505,8.4943,8.5292,8.5292,8.6396,8.8954,9.0391,8.946,8.5796,8.6843,8.8704,9.0856,9.128,9.2311,9.4461,9.6434,9.8318,10.0097,10.2881,10.5262,10.6866,10.7802,10.8862,11.0014,11.1197,11.2447,11.4222,11.6721,11.8431,11.9286,12.0469,12.1324,12.1324,12.1324,12.1949,12.3288,12.5067,12.6895,12.8318,13.023,13.2253,13.3687,13.6184,13.8395,14.0278,14.2533,14.4102,14.4816,14.4745,14.4816,14.4887,14.503,14.5244,14.503,14.6457,14.7413,14.7128,14.7984,14.8169,7.1156,7.1306,7.1352,7.2073,7.3233,7.3233,7.5501,7.9081,0.0,0.0,0.0,8.3243,8.4489,8.5222,8.6991,8.8147,8.8704,8.8762,8.9344,9.035,9.035,9.0931,9.1962,9.2194,9.2252,9.2311,9.2485,9.266,9.2601,9.2601,9.2601,9.2601,9.2601,9.3183,9.4273,9.5321,9.4273,9.1205,9.0757,9.1164,9.2252,9.2078,9.1438,9.035,9.0117,8.9478,8.8413,8.7192,8.6494,8.6436,8.5233,8.4187,8.3429,8.2169,8.1121,8.027,7.8954,7.9187,8.1296,8.1471,8.2539,8.5059,8.6396,8.5563,8.1724,8.4516,8.6629,8.7094,8.8123,8.8879,8.9385,9.1276,9.2695,9.304,9.8308,10.1878,10.2525,10.5711,10.8073,10.8599,10.8862,10.9979,11.2513,11.4384,11.629,11.8694,12.0141,12.1324,12.1324,12.1258,12.1317,12.2032,12.435,12.638,12.724,12.9384,13.2039,13.3589,13.4427,13.5827,13.8181,13.9466,14.0322,14.1534,14.1776,14.1776,14.1848,14.2633,14.3132,14.1991,14.396,14.563,14.4488,14.4274,14.4274,6.9108,6.9112,6.9603,7.0185,0.0,7.1306,7.1895,7.2429,7.1877,7.2638,7.4383,7.6049,7.7848,7.9594,8.1263,8.3581,8.6359,8.64,8.7336,8.9012,8.9012,8.9344,8.9984,8.9984,8.9984,8.9984,8.9926,9.0333,9.0931,9.0931,9.0931,9.0931,9.0931,9.0973,9.0915,9.1596,9.0624,8.8024,8.9361,9.0292,9.0915,9.0292,8.9344,8.8082,8.8024,0.0,0.0,0.0,0.0,0.0,0.0,0.0,0.0,0.0,0.0,7.7594,7.5698,7.4919,7.5593,7.5651,7.6431,7.8198,7.9572,7.9027,7.5884,7.9071,8.1803,8.312,8.3818,8.4788,8.6068,8.7064,8.8296,9.0127,9.3937,9.719,9.8886,10.1893,10.4391,10.5706,10.6134,10.7186,11.0014,11.1658,11.366,11.6421,11.8102,11.9483,12.0902,12.0667,12.0535,12.1279,12.3542,12.5369,12.6348,12.8674,13.1017,13.334,13.3928,13.4927,13.7067,13.7424,13.7638,13.8352,13.8566,13.8566,13.8637,13.9136,13.9521,13.8994,14.0393,14.1249,13.9065,13.9208,13.9735,6.7457,6.7555,6.8384,6.8681,6.8778,6.9697,6.9063,6.7457,6.7457,6.7457,6.755,6.8823,7.103,7.3765,7.5132,7.8291,8.2773,8.3148,8.4474,8.648,8.7032,8.7425,8.7657,8.7948,8.8006,8.8006,8.8006,8.8588,8.9652,8.9652,8.9652,8.9652,8.9594,8.8995,8.7715,0.0,0.0,0.0,8.8082,8.9419,8.9594,8.8588,8.7425,8.6203,8.6145,0.0,8.4245,8.3683,8.3489,8.3373,8.1084,0.0,0.0,0.0,0.0,0.0,0.0,0.0,0.0,0.0,0.0,0.0,7.172,7.172,7.0123,7.3348,7.6489,7.8794,7.963,8.0889,8.2713,8.2791,8.3918,8.6834,8.9025,9.1565,9.4758,9.7178,9.9637,10.2387,10.2978,10.426,10.7021,10.8699,11.0803,11.3828,11.5537,11.7379,11.9615,11.9154,11.9154,12.0216,12.1709,12.3561,12.5566,12.7334,12.9587,13.2119,13.3027,13.3677,13.5345,13.5854,13.5854,13.5854,13.5783,13.5783,13.5426,13.564,13.5854,13.5426,13.6925,13.7183,13.4213,13.4784,13.5783,6.7457,6.7457,6.7603,6.7652,6.7608,6.7843,6.7701,6.7457,6.7457,6.7457,6.7589,6.9755,7.0964,7.1489,7.3554,7.4901,7.5712,7.7524,7.9064,8.0568,8.3334,8.5292,8.6436,8.7541,8.8006,8.8006,8.8006,8.8181,8.8297,8.8297,8.8297,8.8297,8.8297,8.7657,8.6319,8.4206,8.3566,8.4381,8.5873,8.7192,8.8297,8.8123,8.7425,8.6164,8.6145,8.5524,8.4245,8.2131,8.0947,8.0852,7.8525,7.6629,7.5651,7.3116,7.0647,0.0,6.5845,0.0,0.0,0.0,0.0,0.0,0.0,0.0,0.0,6.9425,7.2243,7.3547,7.678,7.8467,7.7617,7.7559,7.8189,7.9809,8.2607,8.5701,8.8721,9.288,9.6206,9.7988,9.9361,10.1236,10.403,10.5805,10.8238,11.1921,11.3565,11.442,11.5435,11.6261,11.6984,11.7313,11.872,12.0838,12.3359,12.5465,12.7264,12.9061,12.9608,13.0769,13.3491,13.4062,13.4187,13.4187,13.4142,13.3785,13.2456,13.3357,13.3714,13.2741,13.4525,13.5283,13.2884,13.3143,13.4142,6.5695,6.5744,6.6335,6.5549,6.3848,6.3889,6.3889,6.3889,6.3889,6.3889,6.3972,6.5036,6.5785,6.6477,6.8591,7.0263,7.1544,7.306,7.478,7.6565,7.7991,7.8984,7.9623,8.2074,8.3217,8.3257,8.4397,8.5253,8.5815,8.5214,8.4904,8.4962,8.4962,8.3105,7.9485,7.9212,8.0503,8.3158,8.3798,8.5331,8.789,8.8006,8.7425,8.6203,8.6145,8.5214,8.3237,8.2169,8.1529,8.1471,7.9049,7.6722,7.472,7.0938,6.6981,0.0,0.0,0.0,0.0,0.0,0.0,0.0,0.0,0.0,0.0,0.0,6.7183,6.8404,7.329,7.5559,7.3639,7.407,7.4652,7.5268,7.7545,8.0476,8.4091,8.7853,9.0905,9.2478,9.4597,9.6766,9.8901,10.1071,10.4096,10.837,10.7449,10.6824,10.8567,11.1395,11.3565,11.442,11.6392,11.8472,11.9636,12.1437,12.3136,12.4777,12.5171,12.5885,12.8186,12.931,13.0221,13.1202,13.2073,13.2384,13.1813,13.2242,13.2456,13.1813,13.2099,13.1859,13.0646,13.1502,13.2643,6.3589,6.354,6.3304,6.1937,5.9936,6.0131,6.0424,6.0668,6.0952,6.0756,6.0326,6.0854,6.0912,6.0775,6.2677,6.4682,6.6588,6.8278,7.0138,7.2221,7.3007,7.3846,7.4647,7.7514,7.9108,7.9631,8.0725,8.1948,8.316,8.1601,8.0776,8.0851,8.0236,7.7613,7.3268,7.4928,7.7745,8.145,8.209,8.3837,8.665,8.7017,8.6494,8.5272,8.5214,8.4167,8.2032,8.1645,8.1508,8.1412,7.8445,7.5675,7.3348,6.7912,0.0,0.0,0.0,0.0,0.0,0.0,0.0,0.0,0.0,5.3223,5.0954,0.0,6.2064,0.0,6.9308,7.2218,7.0614,7.0731,0.0,0.0,7.2577,7.4739,7.8755,8.23,8.5047,8.6613,8.9627,9.2128,9.3545,9.5941,9.8869,10.2386,10.0676,9.9821,10.2123,10.5871,10.8633,10.9356,11.1329,11.317,11.3216,11.5264,11.7595,11.9984,12.0746,12.1509,12.3094,12.4611,12.6033,12.7318,12.8796,12.9746,12.9817,13.0275,13.0192,12.9433,12.8362,12.7649,12.8148,12.903,13.0029,6.1293,6.1,5.7154,5.5982,5.6629,5.7739,5.8716,5.9692,6.057,5.9975,5.8325,6.018,5.8862,5.5312,5.6434,0.0,5.8949,6.1948,6.4338,6.6543,6.9613,7.2536,7.5387,7.679,7.8536,8.0265,7.8612,7.8821,8.0529,7.755,7.6103,7.6272,7.3961,7.2029,7.0825,7.2946,7.5611,7.878,8.1217,8.2556,8.2867,8.3935,8.3935,8.2789,8.2731,8.209,8.0656,7.9456,7.8816,7.87,7.4163,7.0905,6.9335,0.0,0.0,0.0,0.0,0.0,0.0,0.0,0.0,0.0,0.0,0.0,0.0,0.0,0.0,0.0,6.4595,0.0,6.9102,6.7066,0.0,0.0,0.0,6.7655,7.1894,7.5941,7.9084,8.0768,0.0,0.0,8.9168,9.0681,9.2259,9.3939,9.6139,9.7585,9.7848,10.0413,10.1925,10.1105,10.2025,10.3076,10.4161,10.696,11.0607,11.4461,11.6846,11.7931,11.9527,12.1162,12.2305,12.2639,12.392,12.5009,12.4981,12.5915,12.6339,12.3173,12.2603,12.3009,12.4292,12.4934,12.5576,5.619,5.3117,5.1459,5.0986,5.141,5.1849,5.3054,5.47,5.5091,5.4833,5.4114,5.4931,5.3626,5.0776,5.1166,0.0,0.0,0.0,5.833,6.1077,6.2444,6.4353,6.6829,6.9342,7.1012,7.1854,7.4138,7.5688,7.6482,7.6244,7.2071,6.4221,0.0,0.0,6.4354,6.8441,7.2464,7.6129,7.8736,8.0831,8.2381,8.2867,8.2867,8.2381,8.1683,8.0656,7.9376,7.8816,7.742,7.5093,7.1661,6.7415,0.0,0.0,0.0,0.0,0.0,0.0,0.0,0.0,0.0,0.0,0.0,4.6243,0.0,0.0,0.0,0.0,5.6622,5.8659,6.0726,6.2733,0.0,0.0,0.0,0.0,0.0,0.0,0.0,7.0524,7.8485,8.399,8.373,8.4856,8.5907,8.6472,8.8248,8.9892,9.0841,0.0,9.6897,9.8112,9.9492,10.0676,10.1597,10.2452,10.3599,10.5394,10.6918,10.8456,11.0191,11.3176,11.5831,11.7737,11.9373,12.0691,12.1572,11.8432,11.5408,11.4261,11.4681,11.5906,11.7396,11.922,12.0935,4.8343,0.0,0.0,0.0,0.0,4.5605,4.6929,4.8716,4.9346,4.9311,4.8773,4.936,0.0,0.0,0.0,0.0,0.0,0.0,5.2908,5.5153,5.7105,5.8862,6.0634,6.3294,6.4911,6.5552,6.7987,6.9536,7.0194,7.0825,6.5571,5.4992,0.0,0.0,0.0,0.0,6.9056,7.2811,7.6627,7.9398,8.1275,8.1683,8.1915,8.1857,8.0598,7.9339,7.8002,7.6896,7.4861,7.172,6.7501,0.0,0.0,0.0,0.0,0.0,0.0,0.0,0.0,0.0,0.0,0.0,0.0,0.0,0.0,0.0,0.0,0.0,0.0,0.0,5.3721,5.7527,5.9272,0.0,0.0,0.0,0.0,0.0,0.0,0.0,0.0,0.0,7.5964,7.8724,8.1231,0.0,0.0,8.5289,8.5973,8.9037,9.1667,9.288,9.3903,0.0,9.5941,9.6007,9.6139,9.6963,9.8607,10.039,10.1936,10.4484,10.7059,10.9145,11.1692,11.2837,11.173,10.7107,10.4216,10.4807,10.5741,10.6937,10.8452,11.0453,11.2368,0.0,0.0,0.0,0.0,0.0,0.0,0.0,0.0,4.4212,4.4045,0.0,4.424,0.0,0.0,0.0,0.0,4.2393,4.6386,0.0,0.0,5.486,5.8397,5.9253,6.0388,6.201,6.3686,6.0168,5.9348,6.0914,5.9067,0.0,0.0,0.0,0.0,0.0,0.0,6.5573,6.8774,7.5173,7.8583,7.87,7.9899,8.054,8.0481,7.9317,7.8002,7.657,7.3116,7.0589,6.9012,6.0756,0.0,0.0,0.0,0.0,0.0,0.0,0.0,0.0,0.0,0.0,0.0,0.0,0.0,0.0,0.0,0.0,0.0,0.0,0.0,0.0,5.1187,0.0,0.0,0.0,0.0,0.0,0.0,0.0,0.0,0.0,0.0,6.5441,7.2558,7.8898,8.017,0.0,0.0,0.0,0.0,8.5973,8.3408,8.2816,8.3013,8.3079,8.5447,8.8144,9.0775,0.0,0.0,9.7313,9.6589,9.5925,9.5955,9.9682,10.0265,9.3384,9.191,9.256,9.5136,9.572,9.6439,9.785,9.8543,9.924,0.0,0.0,0.0,0.0,0.0,0.0,0.0,0.0,0.0,4.0315,0.0,3.9704,0.0,0.0,0.0,0.0,0.0,0.0,0.0,0.0,4.7051,4.9367,5.1057,5.2122,5.2983,0.0,5.4306,5.1694,0.0,0.0,0.0,0.0,0.0,0.0,0.0,0.0,6.3797,6.7609,7.3948,7.7675,7.8467,7.8932,7.9223,7.9201,7.8758,7.678,7.2999,6.916,6.4972,0.0,0.0,0.0,0.0,0.0,0.0,0.0,0.0,0.0,0.0,0.0,0.0,0.0,0.0,0.0,0.0,0.0,0.0,0.0,0.0,0.0,0.0,0.0,4.8802,0.0,0.0,0.0,0.0,0.0,0.0,0.0,0.0,0.0,6.1731,6.8034,7.4089,7.717,7.9586,8.1829,8.4078,0.0,0.0,0.0,0.0,0.0,0.0,0.0,8.5223,8.525,8.5354,8.6143,8.8483,8.93,8.9657,8.9629,0.0,0.0,8.121,8.1161,8.2772,8.3828,8.4041,8.4757,8.7148,8.8473,9.0123,0.0,0.0,0.0,0.0,0.0,0.0,0.0,0.0,0.0,3.4338,3.4267,0.0,0.0,0.0,0.0,0.0,0.0,0.0,0.0,0.0,0.0,0.0,4.4542,4.5586,0.0,0.0,0.0,0.0,0.0,0.0,0.0,0.0,0.0,0.0,0.0,0.0,6.137,6.5112,7.2152,7.6373,7.7187,7.7653,7.785,7.785,7.7478,7.5268,7.1054,0.0,0.0,0.0,0.0,0.0,0.0,0.0,0.0,0.0,0.0,0.0,0.0,0.0,0.0,0.0,0.0,0.0,0.0,0.0,0.0,0.0,0.0,0.0,0.0,0.0,4.4303,0.0,0.0,0.0,0.0,0.0,0.0,0.0,0.0,0.0,0.0,0.0,6.8082,7.215,7.541,7.8691,8.2383,8.2961,8.3816,0.0,0.0,0.0,0.0,0.0,0.0,0.0,0.0,0.0,0.0,0.0,0.0,0.0,0.0,7.6304,7.0953,7.1523,7.3035,7.3495,0.0,0.0,0.0,0.0,0.0,0.0,0.0,0.0,0.0,0.0,0.0,0.0,0.0,0.0,0.0,2.6015,0.0,0.0,2.607,0.0,0.0,0.0,0.0,0.0,0.0,0.0,0.0,0.0,0.0,0.0,0.0,0.0,0.0,0.0,0.0,0.0,0.0,0.0,0.0,0.0,0.0,5.8444,6.075,6.9956,7.472,7.4744,7.5966,7.6629,7.6512,7.5268,7.3382,7.0763,0.0,0.0,0.0,0.0,0.0,0.0,0.0,0.0,0.0,0.0,0.0,0.0,0.0,0.0,0.0,0.0,0.0,0.0,0.0,0.0,0.0,0.0,0.0,0.0,0.0,0.0,4.0679,4.3741,4.5894,0.0,0.0,0.0,0.0,0.0,0.0,0.0,0.0,0.0,0.0,7.159,7.7004,7.9629,8.0109,8.0741,8.2066,8.1146,8.0686,8.1961,8.1014,8.0554,0.0,0.0,0.0,0.0,0.0,0.0,0.0,0.0,0.0,0.0,0.0,0.0,0.0,0.0,0.0,0.0,0.0,0.0,0.0,0.0,0.0,0.0,0.0,0.0,0.0,0.0,0.0,0.0,0.0,0.0,0.0,0.0,0.0,0.0,0.0,0.0,0.0,0.0,0.0,0.0,0.0,0.0,0.0,0.0,0.0,0.0,0.0,0.0,0.0,0.0,0.0,0.0,0.0,0.0,5.661,5.9841,6.9593,7.4628,7.4662,7.5908,7.6164,7.521,7.3207,7.0382,0.0,0.0,0.0,0.0,0.0,0.0,0.0,0.0,0.0,0.0,0.0,0.0,0.0,0.0,0.0,0.0,0.0,0.0,0.0,0.0,0.0,0.0,0.0,0.0,0.0,0.0,0.0,0.0,4.5196,4.5175,4.347,0.0,0.0,0.0,0.0,0.0,0.0,0.0,0.0,0.0,0.0,7.1947,7.6694,7.8921,8.0273,8.0624,8.1212,8.104,7.9461,7.9724,7.9239,7.665,0.0,0.0,0.0,0.0,0.0,0.0,0.0,0.0,0.0,0.0,0.0,0.0,0.0,0.0,0.0,0.0,0.0,0.0,0.0,0.0,0.0,0.0,0.0,0.0,0.0,0.0,0.0,0.0,0.0,0.0,0.0,0.0,0.0,0.0,0.0,0.0,0.0,0.0,0.0,0.0,0.0,0.0,0.0,0.0,0.0,0.0,0.0,0.0,0.0,0.0,0.0,0.0,0.0,5.4838,5.8037,6.8472,7.3872,7.3988,7.564,7.5931,7.4628,7.1752,6.8113,0.0,0.0,0.0,0.0,0.0,0.0,0.0,0.0,0.0,0.0,0.0,0.0,0.0,0.0,0.0,0.0,0.0,0.0,0.0,0.0,0.0,0.0,0.0,0.0,0.0,0.0,0.0,0.0,4.3121,4.3354,4.2287,0.0,0.0,0.0,0.0,0.0,0.0,0.0,0.0,0.0,0.0,6.6606,7.2112,7.4709,0.0,0.0,7.9118,7.8931,7.8795,7.9066,7.7792,7.3518,7.2311,0.0,0.0,0.0,0.0,0.0,0.0,0.0,0.0,0.0,0.0,0.0,0.0,0.0,0.0,0.0,0.0,0.0,0.0,0.0,0.0,0.0,0.0,0.0,0.0,0.0,0.0,0.0,0.0,0.0,0.0,0.0,0.0,0.0,0.0,0.0,0.0,0.0,0.0,0.0,0.0,0.0,0.0,0.0,0.0,0.0,0.0,0.0,0.0,0.0,0.0,0.0,0.0,0.0,5.5755,6.6763,7.265,7.2733,7.5059,7.5698,7.4512,7.0673,6.6222,0.0,0.0,0.0,0.0,0.0,0.0,0.0,0.0,0.0,0.0,0.0,0.0,0.0,0.0,0.0,0.0,0.0,0.0,0.0,0.0,0.0,0.0,0.0,0.0,0.0,0.0,0.0,0.0,0.0,0.0,0.0,0.0,0.0,0.0,0.0,0.0,0.0,0.0,0.0,0.0,0.0,6.1221,6.6417,6.8389,7.1211,0.0,7.5121,7.4835,7.8373,7.794,7.5867,7.1524,0.0,0.0,0.0,0.0,0.0,0.0,0.0,0.0,0.0,0.0,0.0,0.0,0.0,0.0,0.0,0.0,0.0,0.0,0.0,0.0,0.0,0.0,0.0,0.0,0.0,0.0,0.0,0.0,0.0,0.0,0.0,0.0,0.0,0.0,0.0,0.0,0.0,0.0,0.0,0.0,0.0,0.0,0.0,0.0,0.0,0.0,0.0,0.0,0.0,0.0,0.0,0.0,0.0,0.0,5.4447,6.5615,7.1836,7.2708,7.3348,7.3523,7.3116,6.7617,0.0,0.0,0.0,0.0,0.0,0.0,0.0,0.0,0.0,0.0,0.0,0.0,0.0,0.0,0.0,0.0,0.0,0.0,0.0,0.0,0.0,0.0,0.0,0.0,0.0,0.0,0.0,3.2952,0.0,0.0,0.0,0.0,0.0,0.0,0.0,0.0,0.0,0.0,0.0,0.0,0.0,0.0,5.674,6.105,6.4482,6.7046,0.0,0.0,7.0036,6.782,6.9628,6.955,0.0,0.0,0.0,0.0,0.0,0.0,0.0,0.0,0.0,0.0,0.0,0.0,0.0,0.0,0.0,0.0,0.0,0.0,0.0,0.0,0.0,0.0,0.0,0.0,0.0,0.0,0.0,0.0,0.0,0.0,0.0,0.0,0.0,0.0,0.0,0.0,0.0,0.0,0.0,0.0,0.0,0.0,0.0,0.0,0.0,0.0,0.0,0.0,0.0,0.0,0.0,0.0,0.0,0.0,4.9671,5.323,6.32,6.9567,7.1836,7.2418,7.2476,7.1985,6.6222,6.1454,0.0,0.0,0.0,0.0,0.0,0.0,0.0,0.0,0.0,0.0,0.0,0.0,0.0,0.0,0.0,0.0,0.0,0.0,0.0,0.0,0.0,0.0,0.0,0.0,0.0,0.0,0.0,0.0,0.0,0.0,0.0,0.0,0.0,0.0,0.0,0.0,0.0,0.0,0.0,0.0,0.0,0.0,5.6516,5.9,0.0,0.0,0.0,6.5702,6.4474,0.0,0.0,0.0,0.0,0.0,0.0,0.0,0.0,0.0,0.0,0.0,0.0,0.0,0.0,0.0,0.0,0.0,0.0,0.0,0.0,0.0,0.0,0.0,0.0,0.0,0.0,0.0,0.0,0.0,0.0,0.0,0.0,0.0,0.0,0.0,0.0,0.0,0.0,0.0,0.0,0.0,0.0,0.0,0.0,0.0,0.0,0.0,0.0,0.0,0.0,0.0,0.0,0.0,0.0,0.0,0.0,0.0,5.178,6.0399,6.6775,7.053,7.172,7.1778,7.0673,6.5728,6.064,0.0,0.0,0.0,0.0,0.0,0.0,0.0,0.0,0.0,0.0,0.0,0.0,0.0,0.0,0.0,0.0,0.0,0.0,0.0,0.0,0.0,0.0,0.0,0.0,0.0,0.0,0.0,0.0,0.0,0.0,0.0,0.0,0.0,0.0,0.0,0.0,0.0,0.0,0.0,0.0,0.0,4.8838,5.2689,5.3237,5.3941,0.0,0.0,6.1172,6.3658,6.3855,0.0,0.0,0.0,0.0,0.0,0.0,0.0,0.0,0.0,0.0,0.0,0.0,0.0,0.0,0.0,0.0,0.0,0.0,0.0,0.0,0.0,0.0,0.0,0.0,0.0,0.0,0.0,0.0,0.0,0.0,0.0,0.0,0.0,0.0,0.0,0.0,0.0,0.0,0.0,0.0,0.0,0.0,0.0,0.0,0.0,0.0,0.0,0.0,0.0,0.0,0.0,0.0,0.0,0.0,0.0,0.0,5.0658,5.9086,6.5466,6.9218,6.9626,6.9626,6.9335,6.4361,5.9683,0.0,0.0,0.0,0.0,0.0,0.0,0.0,0.0,0.0,0.0,0.0,0.0,0.0,0.0,0.0,0.0,0.0,0.0,0.0,0.0,0.0,0.0,0.0,0.0,0.0,0.0,0.0,0.0,0.0,0.0,0.0,0.0,0.0,0.0,0.0,0.0,0.0,0.0,0.0,0.0,0.0,4.6264,5.0023,5.057,0.0,0.0,0.0,0.0,5.4042,5.3271,0.0,0.0,0.0,0.0,0.0,0.0,0.0,0.0,0.0,0.0,0.0,0.0,0.0,0.0,0.0,0.0,0.0,0.0,0.0,0.0,0.0,0.0,0.0,0.0,0.0,0.0,0.0,0.0,0.0,0.0,0.0,0.0,0.0,0.0,0.0,0.0,0.0,0.0,0.0,0.0,0.0,0.0,0.0,0.0,0.0,0.0,0.0,0.0,0.0,0.0,0.0,0.0,0.0,0.0,0.0,0.0,4.9958,5.6275,6.2297,6.7853,6.8055,6.8086,6.7939,6.3663,5.8869,0.0,0.0,0.0,0.0,0.0,0.0,0.0,0.0,0.0,0.0,0.0,0.0,0.0,0.0,0.0,0.0,0.0,0.0,0.0,0.0,0.0,0.0,0.0,0.0,0.0,0.0,0.0,0.0,0.0,0.0,0.0,0.0,0.0,0.0,0.0,0.0,0.0,0.0,0.0,0.0,4.2636,4.3412,4.6613,0.0,0.0,0.0,0.0,0.0,0.0,4.987,4.9256,0.0,0.0,0.0,0.0,0.0,0.0,0.0,0.0,0.0,0.0,0.0,0.0,0.0,0.0,0.0,0.0,0.0,0.0,0.0,0.0,0.0,0.0,0.0,0.0,0.0,0.0,0.0,0.0,0.0,0.0,0.0,0.0,0.0,0.0,0.0,0.0,0.0,0.0,0.0,0.0,0.0,0.0,0.0,0.0,0.0,0.0,0.0,0.0,0.0,0.0,0.0,0.0,0.0,0.0,0.0,4.8544,5.3274,5.8981,6.5875,6.6515,6.6748,6.6662,6.2733,5.7617,5.1303,0.0,0.0,0.0,0.0,0.0,0.0,0.0,0.0,0.0,0.0,0.0,0.0,0.0,0.0,0.0,0.0,0.0,0.0,0.0,0.0,0.0,0.0,0.0,0.0,0.0,0.0,0.0,0.0,0.0,0.0,0.0,0.0,0.0,0.0,0.0,0.0,0.0,0.0,0.0,4.0484,4.0891,0.0,0.0,0.0,0.0,0.0,0.0,0.0,0.0,4.69,0.0,0.0,0.0,0.0,0.0,0.0,0.0,0.0,0.0,0.0,0.0,0.0,0.0,0.0,0.0,0.0,0.0,0.0,0.0,0.0,0.0,0.0,0.0,0.0,0.0,0.0,0.0,0.0,0.0,0.0,0.0,0.0,0.0,0.0,0.0,0.0,0.0,0.0,0.0,0.0,0.0,0.0,0.0,0.0,0.0,0.0,0.0,0.0,0.0,0.0,0.0,0.0,0.0,0.0,0.0,0.0,5.1649,5.7733,6.1949,6.4274,6.5409,6.5321,6.0668,5.5084,4.8699,0.0,0.0,0.0,0.0,0.0,0.0,0.0,0.0,0.0,0.0,0.0,0.0,0.0,0.0,0.0,0.0,0.0,0.0,0.0,0.0,0.0,0.0,0.0,0.0,0.0,0.0,0.0,0.0,0.0,0.0,0.0,0.0,0.0,0.0,0.0,0.0,0.0,0.0,3.7052,3.8058,0.0,0.0,0.0,0.0,0.0,0.0,0.0,0.0,4.2135,0.0,0.0,0.0,0.0,0.0,0.0,0.0,0.0,0.0,0.0,0.0,0.0,0.0,0.0,0.0,0.0,0.0,0.0,0.0,0.0,0.0,0.0,0.0,0.0,0.0,0.0,0.0,0.0,0.0,0.0,0.0,0.0,0.0,0.0,0.0,0.0,0.0,0.0,0.0,0.0,0.0,0.0,0.0,0.0,0.0,0.0,0.0,0.0,0.0,0.0,0.0,0.0,0.0,0.0,0.0,0.0,0.0,0.0,5.5724,6.0117,6.2762,6.3751,6.2849,5.6771,5.1628,0.0,0.0,0.0,0.0,0.0,0.0,0.0,0.0,0.0,0.0,0.0,0.0,0.0,0.0,0.0,0.0,0.0,0.0,0.0,0.0,0.0,0.0,0.0,0.0,0.0,0.0,0.0,0.0,0.0,0.0,0.0,0.0,0.0,0.0,0.0,0.0,0.0,0.0,0.0,0.0,0.0,0.0,0.0,0.0,0.0,0.0,0.0,0.0,0.0,0.0,0.0,0.0,0.0,0.0,0.0,0.0,0.0,0.0,0.0,0.0,0.0,0.0,0.0,0.0,0.0,0.0,0.0,0.0,0.0,0.0,0.0,0.0,0.0,0.0,0.0,0.0,0.0,0.0,0.0,0.0,0.0,0.0,0.0,0.0,0.0,0.0,0.0,0.0,0.0,0.0,0.0,0.0,0.0,0.0,0.0,0.0,0.0,0.0,0.0,0.0,0.0,0.0,0.0,0.0,0.0,0.0,0.0,0.0,5.3524,5.7992,6.064,6.1628,6.0787,5.3663,4.878,0.0,0.0,0.0,0.0,0.0,0.0,0.0,0.0,0.0,0.0,0.0,0.0,0.0,0.0,0.0,0.0,0.0,0.0,0.0,0.0,0.0,0.0,0.0,0.0,0.0,0.0,0.0,0.0,0.0,0.0,0.0,0.0,0.0,0.0,0.0,0.0,0.0,0.0,0.0,0.0,0.0,0.0,0.0,0.0,0.0,0.0,0.0,0.0,4.0659,0.0,0.0,0.0,0.0,0.0,0.0,0.0,0.0,0.0,0.0,0.0,0.0,0.0,0.0,0.0,0.0,0.0,0.0,0.0,0.0,0.0,0.0,0.0,0.0,0.0,0.0,0.0,0.0,0.0,0.0,0.0,0.0,0.0,0.0,0.0,0.0,0.0,0.0,0.0,0.0,0.0,0.0,0.0,0.0,0.0,0.0,0.0,0.0,0.0,0.0,0.0,0.0,0.0,0.0,0.0,0.0,0.0,0.0,0.0,5.1363,5.4153,5.6797,5.8601,5.9272,5.3223,4.7559,0.0,0.0,0.0,0.0,0.0,0.0,0.0,0.0,0.0,0.0,0.0,0.0,0.0,0.0,0.0,0.0,0.0,0.0,0.0,0.0,0.0,0.0,0.0,0.0,0.0,0.0,0.0,0.0,0.0,0.0,0.0,0.0,0.0,0.0,0.0,0.0,0.0,0.0,0.0,0.0,0.0,0.0,0.0,0.0,0.0,0.0,0.0,0.0,0.0,0.0,0.0,0.0,0.0,0.0,0.0,0.0,0.0,0.0,0.0,0.0,0.0,0.0,0.0,0.0,0.0,0.0,0.0,0.0,0.0,0.0,0.0,0.0,0.0,0.0,0.0,0.0,0.0,0.0,0.0,0.0,0.0,0.0,0.0,0.0,0.0,0.0,0.0,0.0,0.0,0.0,0.0,0.0,0.0,0.0,0.0,0.0,0.0,0.0,0.0,0.0,0.0,0.0,0.0,0.0,0.0,0.0,0.0,0.0,4.7475,5.1338,5.3945,5.4062,5.1617,4.7522,4.4323,0.0,0.0,0.0,0.0,0.0,0.0,0.0,0.0,0.0,0.0,0.0,0.0,0.0,0.0,0.0,0.0,0.0,0.0,0.0,0.0,0.0,0.0,0.0,0.0,0.0,0.0,0.0,0.0,0.0,0.0,0.0,0.0,0.0,0.0,0.0,0.0,0.0,0.0,0.0,0.0,0.0,0.0,0.0,0.0,0.0,0.0,0.0,0.0,0.0,0.0,0.0,0.0,0.0,0.0,0.0,0.0,0.0,0.0,0.0,0.0,0.0,0.0,0.0,0.0,0.0,0.0,0.0,0.0,0.0,0.0,0.0,0.0,0.0,0.0,0.0,0.0,0.0,0.0,0.0,0.0,0.0,0.0,0.0,0.0,0.0,0.0,0.0,0.0,0.0,0.0,0.0,0.0,0.0,0.0,0.0,0.0,0.0,0.0,0.0,0.0,0.0,0.0,0.0,0.0,0.0,0.0,0.0,0.0,0.0,4.7763,4.9699,4.8824,4.51,4.3179,4.1706,0.0,0.0,0.0,0.0,0.0,0.0,0.0,0.0,0.0,0.0,0.0,0.0,0.0,0.0,0.0,0.0,0.0,0.0,0.0,0.0,0.0,0.0,0.0,0.0,0.0,0.0,0.0,0.0,0.0,0.0,0.0,0.0,0.0,0.0,0.0,0.0,0.0,0.0,0.0,0.0,0.0,0.0,0.0,0.0,0.0,0.0,0.0,0.0,0.0,0.0,0.0,0.0,0.0,0.0,0.0,0.0,0.0,0.0,0.0,0.0,0.0,0.0,0.0,0.0,0.0,0.0,0.0,0.0,0.0,0.0,0.0,0.0,0.0,0.0,0.0,0.0,0.0,0.0,0.0,0.0,0.0,0.0,0.0,0.0,0.0,0.0,0.0,0.0,0.0,0.0,0.0,0.0,0.0,0.0,0.0,0.0,0.0,0.0,0.0,0.0,0.0,0.0,0.0,0.0,0.0,0.0,0.0,0.0,0.0,4.2921,4.2837,4.2714,4.2404,4.2229,4.0444,0.0,0.0,0.0,0.0,0.0,0.0,0.0,0.0,0.0,0.0,0.0,0.0,0.0,0.0,0.0,0.0,0.0,0.0,0.0,0.0,0.0,0.0,0.0,0.0,0.0,0.0,0.0,0.0,0.0,0.0,0.0,0.0,0.0,0.0,0.0,0.0,0.0,0.0,0.0,0.0,0.0,0.0,0.0,0.0,0.0,0.0,0.0,0.0,0.0,0.0,0.0,0.0,0.0,0.0,0.0,0.0,0.0,0.0,0.0,0.0,0.0,0.0,0.0,0.0,0.0,0.0,0.0,0.0,0.0,0.0,0.0,0.0,0.0,0.0,0.0,0.0,0.0,0.0,0.0,0.0,0.0,0.0,0.0,0.0,0.0,0.0,0.0,0.0,0.0,0.0,0.0,0.0,0.0,0.0,0.0,0.0,0.0,0.0,0.0,0.0,0.0,0.0,0.0,0.0,0.0,0.0,0.0,0.0,0.0,3.7732,3.9003,3.9746,3.9728,3.9764,3.8623,3.6471,0.0,0.0,0.0,0.0,0.0,0.0,0.0,0.0,0.0,0.0,0.0,0.0,0.0,0.0,0.0,0.0,0.0,0.0,0.0,0.0,0.0,0.0,0.0,0.0,0.0,0.0,0.0,0.0,0.0,0.0,0.0,0.0,0.0,0.0,0.0,0.0,0.0,0.0,0.0,0.0,0.0,0.0,0.0,0.0,0.0,0.0,0.0,0.0,0.0,0.0,0.0,0.0,0.0,0.0,0.0,0.0,0.0,0.0,0.0,0.0,0.0,0.0,0.0,0.0,0.0,0.0,0.0,0.0,0.0,0.0,0.0,0.0,0.0,0.0,0.0,0.0,0.0,0.0,0.0,0.0,0.0,0.0,0.0,0.0,0.0,0.0,0.0,0.0,0.0,0.0,0.0,0.0,0.0,0.0,0.0,0.0,0.0,0.0,0.0,0.0,0.0,0.0,0.0,0.0,0.0,0.0,0.0,0.0,3.4339,3.655,3.7709,3.7634,3.7709,3.7069,0.0,0.0,0.0,0.0,0.0,0.0,0.0,0.0,0.0,0.0,0.0,0.0,0.0,0.0,0.0,0.0,0.0,0.0,0.0,0.0,0.0,0.0,0.0,0.0,0.0,0.0,0.0,0.0,0.0,0.0,0.0,0.0,0.0,0.0,0.0,0.0,0.0,0.0,0.0,0.0,0.0,0.0,0.0,0.0,0.0,0.0,0.0,0.0,0.0,0.0,0.0,0.0,0.0,0.0,0.0,0.0,0.0,0.0,0.0,0.0,0.0,0.0,0.0,0.0,0.0,0.0,0.0,0.0,0.0,0.0,0.0,0.0,0.0,0.0,0.0,0.0,0.0,0.0,0.0,0.0,0.0,0.0,0.0,0.0,0.0,0.0,0.0,0.0,0.0,0.0,0.0,0.0,0.0,0.0,0.0,0.0,0.0,0.0,0.0,0.0,0.0,0.0,0.0,0.0,0.0,0.0,0.0,0.0,3.0266,3.3168,3.5228,3.6237,3.6379,3.6304,3.5723,0.0,0.0,0.0,0.0,0.0,0.0,0.0,0.0,0.0,0.0,0.0,0.0,0.0,0.0,0.0,0.0,0.0,0.0,0.0,0.0,0.0,0.0,0.0,0.0,0.0,0.0,0.0,0.0,0.0,0.0,0.0,0.0,0.0,0.0,0.0,0.0,0.0,0.0,0.0,0.0,0.0,0.0,0.0,0.0,0.0,0.0,0.0,0.0,0.0,0.0,0.0,0.0,0.0,0.0,0.0,0.0,0.0,0.0,0.0,0.0,0.0,0.0,0.0,0.0,0.0,0.0,0.0,0.0,0.0,0.0,0.0,0.0,0.0,0.0,0.0,0.0,0.0,0.0,0.0,0.0,0.0,0.0,0.0,0.0,0.0,0.0,0.0,0.0,0.0,0.0,0.0,0.0,0.0,0.0,0.0,0.0,0.0,0.0,0.0,0.0,0.0,0.0,0.0,0.0,0.0,0.0,0.0,0.0,0.0,3.016,0.0,3.3443,0.0,3.393,3.3667,0.0,0.0,0.0,0.0,0.0,0.0,0.0,0.0,0.0,0.0,0.0,0.0,0.0,0.0,0.0,0.0,0.0,0.0,0.0,0.0,0.0,0.0,0.0,0.0,0.0,0.0,0.0,0.0,0.0,0.0,0.0,0.0,0.0,0.0,0.0,0.0,0.0,0.0,0.0,0.0,0.0,0.0,0.0,0.0,0.0,0.0,0.0,0.0,0.0,0.0,0.0,0.0,0.0,0.0,0.0,0.0,0.0,0.0,0.0,0.0,0.0,0.0,0.0,0.0,0.0,0.0,0.0,0.0,0.0,0.0,0.0,0.0,0.0,0.0,0.0,0.0,0.0,0.0,0.0,0.0,0.0,0.0,0.0,0.0,0.0,0.0,0.0,0.0,0.0,0.0,0.0,0.0,0.0,0.0,0.0,0.0,0.0,0.0,0.0,0.0,0.0,0.0,0.0,0.0,0.0,0.0,0.0,0.0,0.0,2.7488,2.8869,3.0322,0.0,3.2022,3.199,0.0,0.0,0.0,0.0,0.0,0.0,0.0,0.0,0.0,0.0,0.0,0.0,0.0,0.0,0.0,0.0,0.0,0.0,0.0,0.0,0.0,0.0,0.0,0.0,0.0,0.0,0.0,0.0,0.0,0.0,0.0,0.0,0.0,0.0,0.0,0.0,0.0,0.0,0.0,0.0,0.0,0.0,0.0,0.0,0.0,0.0,0.0,0.0,0.0,0.0,0.0,0.0,0.0,0.0,0.0,0.0,0.0,0.0,0.0,0.0,0.0,0.0,0.0,0.0,0.0,0.0,0.0,0.0,0.0,0.0,0.0,0.0,0.0,0.0,0.0,0.0,0.0,0.0,0.0,0.0,0.0,0.0,0.0,0.0,0.0,0.0,0.0,0.0,0.0,0.0,0.0,0.0,0.0,0.0,0.0,0.0,0.0,0.0,0.0,0.0,0.0,0.0,0.0,0.0,0.0,0.0,0.0,0.0,0.0,0.0,2.5356,2.7166,3.0805,3.0401,3.0774,0.0,0.0,0.0,0.0,0.0,0.0,0.0,0.0,0.0,0.0,0.0,0.0,0.0,0.0,0.0,0.0,0.0,0.0,0.0,0.0,0.0,0.0,0.0,0.0,0.0,0.0,0.0,0.0,0.0,0.0,0.0,0.0,0.0,0.0,0.0,0.0,0.0,0.0,0.0,0.0,0.0,0.0,0.0,0.0,0.0,0.0,0.0,0.0,0.0,0.0,0.0,0.0,0.0,0.0,0.0,0.0,0.0,0.0,0.0,0.0,0.0,0.0,0.0,0.0,0.0,0.0,0.0,0.0,0.0,0.0,0.0,0.0,0.0,0.0,0.0,0.0,0.0,0.0,0.0,0.0,0.0,0.0,0.0,0.0,0.0,0.0,0.0,0.0,0.0,0.0,0.0,0.0,0.0,0.0,0.0,0.0,0.0,0.0,0.0,0.0,0.0,0.0,0.0,0.0,0.0,0.0,0.0,0.0,0.0,0.0,2.5181,0.0,2.7214,2.8182,2.892,2.9336,0.0,0.0,0.0,0.0,0.0,0.0,0.0,0.0,0.0,0.0,0.0,0.0,0.0,0.0,0.0,0.0,0.0,0.0,0.0,0.0,0.0,0.0,0.0,0.0,0.0,0.0,0.0,0.0,0.0,0.0,0.0,0.0,0.0,0.0,0.0,0.0,0.0,0.0,0.0,0.0,0.0,0.0,0.0,0.0,0.0,0.0,0.0,0.0,0.0,0.0,0.0,0.0,0.0,0.0,0.0,0.0,0.0,0.0,0.0,0.0,0.0,0.0,0.0,0.0,0.0,0.0,0.0,0.0,0.0,0.0,0.0,0.0,0.0,0.0,0.0,0.0,0.0,0.0,0.0,0.0,0.0,0.0,0.0,0.0,0.0,0.0,0.0,0.0,0.0,0.0,0.0,0.0,0.0,0.0,0.0,0.0,0.0,0.0,0.0,0.0,0.0,0.0,0.0,0.0,0.0,0.0,0.0,0.0,0.0,0.0,0.0,2.5638,2.698,2.7848,0.0,0.0,0.0,0.0,0.0,0.0,0.0,0.0,0.0,0.0,0.0,0.0,0.0,0.0,0.0,0.0,0.0,0.0,0.0,0.0,0.0,0.0,0.0,0.0,0.0,0.0,0.0,0.0,0.0,0.0,0.0,0.0,0.0,0.0,0.0,0.0,0.0,0.0,0.0,0.0,0.0,0.0,0.0,0.0,0.0,0.0,0.0,0.0,0.0,0.0,0.0,0.0,0.0,0.0,0.0,0.0,0.0,0.0,0.0,0.0,0.0,0.0,0.0,0.0,0.0,0.0,0.0,0.0,0.0,0.0,0.0,0.0,0.0,0.0,0.0,0.0,0.0,0.0,0.0,0.0,0.0,0.0,0.0,0.0,0.0,0.0,0.0,0.0,0.0,0.0,0.0,0.0,0.0,0.0,0.0,0.0,0.0,0.0,0.0,0.0,0.0,0.0,0.0,0.0,0.0,0.0,0.0,0.0,0.0,0.0,0.0,2.3476,2.5347,2.6195,0.0,2.7729,0.0,0.0,0.0,0.0,0.0,0.0,0.0,0.0,0.0,0.0,0.0,0.0,0.0,0.0,0.0,0.0,0.0,0.0,0.0,0.0,0.0,0.0,0.0,0.0,0.0,0.0,0.0,0.0,0.0,0.0,0.0,0.0,0.0,0.0,0.0,0.0,0.0,0.0,0.0,0.0,0.0,0.0,0.0,0.0,0.0,0.0,0.0,0.0,0.0,0.0,0.0,0.0,0.0,0.0,0.0,0.0,0.0,0.0,0.0,0.0,0.0,0.0,0.0,0.0,0.0,0.0,0.0,0.0,0.0,0.0,0.0,0.0,0.0,0.0,0.0,0.0,0.0,0.0,0.0,0.0,0.0,0.0,0.0,0.0,0.0,0.0,0.0,0.0,0.0,0.0,0.0,0.0,0.0,0.0,0.0,0.0,0.0,0.0,0.0,0.0,0.0,0.0,0.0,0.0,0.0,0.0,0.0,0.0,0.0,0.0,0.0,0.0,2.3473,2.3914,2.4713,0.0,0.0,0.0,0.0,0.0,0.0,0.0,0.0,0.0,0.0,0.0,0.0,0.0,0.0,0.0,0.0,0.0,0.0,0.0,0.0,0.0,0.0,0.0,0.0,0.0,0.0,0.0,0.0,0.0,0.0,0.0,0.0,0.0,0.0,0.0,0.0,0.0,0.0,0.0,0.0,0.0,0.0,0.0,0.0,0.0,0.0,0.0,0.0,0.0,0.0,0.0,0.0,0.0,0.0,0.0,0.0,0.0,0.0,0.0,0.0,0.0,0.0,0.0,0.0,0.0,0.0,0.0,0.0,0.0,0.0,0.0,0.0,0.0,0.0,0.0,0.0,0.0,0.0,0.0,0.0,0.0,0.0,0.0,0.0,0.0,0.0,0.0,0.0,0.0,0.0,0.0,0.0,0.0,0.0,0.0,0.0,0.0,0.0,0.0,0.0,0.0,0.0,0.0,0.0,0.0,0.0,0.0,0.0,0.0,0.0,2.1998,2.253,2.253,2.2748,2.3144,0.0,0.0,0.0,0.0,0.0,0.0,0.0,0.0,0.0,0.0,0.0,0.0,0.0,0.0,0.0,0.0,0.0,0.0,0.0,0.0,0.0,0.0,0.0,0.0,0.0,0.0,0.0,0.0,0.0,0.0,0.0,0.0,0.0,0.0,0.0,0.0,0.0,0.0,0.0,0.0,0.0,0.0,0.0,0.0,0.0,0.0,0.0,0.0,0.0,0.0,0.0,0.0,0.0,0.0,0.0,0.0,0.0,0.0,0.0,0.0,0.0,0.0,0.0,0.0,0.0,0.0,0.0,0.0,0.0,0.0,0.0,0.0,0.0,0.0,0.0,0.0,0.0,0.0,0.0,0.0,0.0,0.0,0.0,0.0,0.0,0.0,0.0,0.0,0.0,0.0,0.0,0.0,0.0,0.0,0.0,0.0,0.0,0.0,0.0,0.0,0.0,0.0,0.0,0.0,0.0,0.0,0.0,0.0,0.0,0.0,0.0,0.0,0.0,0.0,2.209,0.0,0.0,0.0,0.0,0.0,0.0,0.0,0.0,0.0,0.0,0.0,0.0,0.0,0.0,0.0,0.0,0.0,0.0,0.0,0.0,0.0,0.0,0.0,0.0,0.0,0.0,0.0,0.0,0.0,0.0,0.0,0.0,0.0,0.0,0.0,0.0,0.0,0.0,0.0,0.0,0.0,0.0,0.0,0.0,0.0,0.0,0.0,0.0,0.0,0.0,0.0,0.0,0.0,0.0,0.0,0.0,0.0,0.0,0.0,0.0,0.0,0.0,0.0,0.0,0.0,0.0,0.0,0.0,0.0,0.0,0.0,0.0,0.0,0.0,0.0,0.0,0.0,0.0,0.0,0.0,0.0,0.0,0.0,0.0,0.0,0.0,0.0,0.0,0.0,0.0,0.0,0.0,0.0,0.0,0.0,0.0,0.0,0.0,0.0,0.0,0.0,0.0,0.0,0.0,0.0,0.0,0.0,0.0,0.0,0.0,0.0,0.0,0.0,0.0,0.0,0.0,0.0,0.0,0.0,0.0,0.0,0.0,0.0,0.0,0.0,0.0,0.0,0.0,0.0,0.0,0.0,0.0,0.0,0.0,0.0,0.0,0.0,0.0,0.0,0.0,0.0,0.0,0.0,0.0,0.0,0.0,0.0,0.0,0.0,0.0,0.0,0.0,0.0,0.0,0.0,0.0,0.0,0.0,0.0,0.0,0.0,0.0,0.0,0.0,0.0,0.0,0.0,0.0,0.0,0.0,0.0,0.0,0.0,0.0,0.0,0.0,0.0,0.0,0.0,0.0,0.0,0.0,0.0,0.0,0.0,0.0,0.0,0.0,0.0,0.0,0.0,0.0,0.0,0.0,0.0,0.0,0.0,0.0,0.0,0.0,0.0,0.0,0.0,0.0,0.0,0.0,0.0,0.0,0.0,0.0,0.0,0.0,0.0,0.0,0.0,0.0,0.0,0.0,0.0,0.0,0.0,0.0,0.0,0.0,0.0,0.0,0.0,0.0,0.0,0.0,0.0,0.0,0.0,0.0,0.0,0.0,0.0,0.0,0.0,0.0,0.0,0.0,0.0,0.0,0.0,0.0,0.0,0.0,0.0,0.0,0.0,0.0,0.0,0.0,0.0,0.0,0.0,0.0,0.0,0.0,0.0,0.0,0.0,0.0,0.0,0.0,0.0,0.0,0.0,0.0,0.0,0.0,0.0,0.0,0.0,0.0,0.0,0.0,0.0,0.0,0.0,0.0,0.0,0.0,0.0,0.0,0.0,0.0,0.0,0.0,0.0,0.0,0.0,0.0,0.0,0.0,0.0,0.0,0.0,0.0,0.0,0.0,0.0,0.0,0.0,0.0,0.0,0.0,0.0,0.0,0.0,0.0,0.0,0.0,0.0,0.0,0.0,0.0,0.0,0.0,0.0,0.0,0.0,0.0,0.0,0.0,0.0,0.0,0.0,0.0,0.0,0.0,0.0,0.0,0.0,0.0,0.0,0.0,0.0,0.0,0.0,0.0,0.0,0.0,0.0,0.0,0.0,0.0,0.0,0.0,0.0,0.0,0.0,0.0,0.0,0.0,0.0,0.0,0.0,0.0,0.0,0.0,0.0,0.0,0.0,0.0,0.0,0.0,0.0,0.0,0.0,0.0,0.0,0.0,0.0,0.0,0.0,0.0,0.0,0.0,0.0,0.0,0.0,0.0,0.0,0.0,0.0,0.0,0.0,0.0,0.0,0.0,0.0,0.0,0.0,0.0,0.0,0.0,0.0,0.0,0.0,0.0,0.0,0.0,0.0,0.0,0.0,0.0,0.0,0.0,0.0,0.0,0.0,0.0,0.0,0.0,0.0,0.0,0.0,0.0,0.0,0.0,0.0,0.0,0.0,0.0,0.0,0.0,0.0,0.0,0.0,0.0,0.0,0.0,0.0,0.0,0.0,0.0,0.0,0.0,0.0,0.0,0.0,0.0,0.0,0.0,0.0,0.0,0.0,0.0,0.0,0.0,0.0,0.0,0.0,0.0,0.0,0.0,0.0,0.0,0.0,0.0,0.0,0.0,0.0,0.0,0.0,0.0,0.0,0.0,0.0,0.0,0.0,0.0,0.0,0.0,0.0,0.0,0.0,0.0,0.0,0.0,0.0,0.0,0.0,0.0,0.0,0.0,0.0,0.0,0.0,0.0,0.0,0.0,0.0,0.0,0.0,0.0,0.0,0.0,0.0,0.0,0.0,0.0,0.0,0.0,0.0,0.0,0.0,0.0,0.0,0.0,0.0,0.0,0.0,0.0,0.0,0.0,0.0,0.0,0.0,0.0,0.0,0.0,0.0,0.0,0.0,0.0,0.0,0.0,0.0,0.0,0.0,0.0,0.0,0.0,0.0,0.0,0.0,0.0,0.0,0.0,0.0,0.0,0.0,0.0,0.0,0.0,0.0,0.0,0.0,0.0,0.0,0.0,0.0,0.0,0.0,0.0,0.0,0.0,0.0,0.0,0.0,0.0,0.0,0.0,0.0,0.0,0.0,0.0,0.0,0.0,0.0,0.0,0.0,0.0,0.0,0.0,0.0,0.0,0.0,0.0,0.0,0.0,0.0,0.0,0.0,0.0,0.0,0.0,0.0,0.0,0.0,0.0,0.0,0.0,0.0,0.0,0.0,0.0,0.0,0.0,0.0,0.0,0.0,0.0,0.0,0.0,0.0,0.0,0.0,0.0,0.0,0.0,0.0,0.0,0.0,0.0,0.0,0.0,0.0,0.0,0.0,0.0,0.0,0.0,0.0,0.0,0.0,0.0,0.0,0.0,0.0,0.0,0.0,0.0,0.0,0.0,0.0,0.0,0.0,0.0,0.0,0.0,0.0,0.0,0.0,0.0,0.0,0.0,0.0,0.0,0.0,0.0,0.0,0.0,0.0,0.0,0.0,0.0,0.0,0.0,0.0,0.0,0.0,0.0,0.0,0.0,0.0,0.0,0.0,0.0,0.0,0.0,0.0,0.0,0.0,0.0,0.0,0.0,0.0,0.0,0.0,0.0,0.0,0.0,0.0,0.0,0.0,0.0,0.0,0.0,0.0,0.0,0.0,0.0,0.0,0.0,0.0,0.0,0.0,0.0,0.0,0.0,0.0,0.0,0.0,0.0,0.0,0.0,0.0,0.0,0.0,0.0,0.0,0.0,0.0,0.0,0.0,0.0,0.0,0.0,0.0,0.0,0.0,0.0,0.0,0.0,0.0,0.0,0.0,0.0,0.0,0.0,0.0,0.0,0.0,0.0,0.0,0.0,0.0,0.0,0.0,0.0,0.0,0.0,0.0,0.0,0.0,0.0,0.0,0.0,0.0,0.0,0.0,0.0,0.0,0.0,0.0,0.0,0.0,0.0,0.0,0.0,0.0,0.0,0.0,0.0,0.0,0.0,0.0,0.0,0.0,0.0,0.0,0.0,0.0,0.0,0.0,0.0,0.0,0.0,0.0,0.0,0.0,0.0,0.0,0.0,0.0,0.0,0.0,0.0,0.0,0.0,0.0,0.0,0.0,0.0,0.0,0.0,0.0,0.0,0.0,0.0,0.0,0.0,0.0,0.0,0.0,0.0,0.0,0.0,0.0,0.0,0.0,0.0,0.0,0.0,0.0,0.0,0.0,0.0,0.0,0.0,0.0,0.0,0.0,0.0,0.0,0.0,0.0,0.0,0.0,0.0,0.0,0.0,0.0,0.0,0.0,0.0,0.0,0.0,0.0,0.0,0.0,0.0,0.0,0.0,0.0,0.0,0.0,0.0,0.0,0.0,0.0,0.0,0.0,0.0,0.0,0.0,0.0,0.0,0.0,0.0,0.0,0.0,0.0,0.0,0.0,0.0,0.0,0.0,0.0,0.0,0.0,0.0,0.0,0.0,0.0,0.0,0.0,0.0,0.0,0.0,0.0,0.0,0.0,0.0,0.0,0.0,0.0,0.0,0.0,0.0,0.0,0.0,0.0,0.0,0.0,0.0,0.0,0.0,0.0,0.0,0.0,0.0,0.0,0.0,0.0,0.0,0.0,0.0,0.0,0.0,0.0,0.0,0.0,0.0,0.0,0.0,0.0,0.0,0.0,0.0,0.0,0.0,0.0,0.0,0.0,0.0,0.0,0.0,0.0,0.0,0.0,0.0,0.0,0.0,0.0,0.0,0.0,0.0,0.0,0.0,0.0,0.0,0.0,0.0,0.0,0.0,0.0,0.0,0.0,0.0,0.0,0.0,0.0,0.0,0.0,0.0,0.0,0.0,0.0,0.0,0.0,0.0,0.0,0.0,0.0,0.0,0.0,0.0,0.0,0.0,0.0,0.0,0.0,0.0,0.0,0.0,0.0,0.0,0.0,0.0,0.0,0.0,0.0,0.0]}]]]